<?xml version='1.0' encoding='UTF-8'?><gpx version="1.1" creator="JPX - https://github.com/jenetics/jpx" xmlns="http://www.topografix.com/GPX/1/1"><trk><trkseg><trkpt lat="45.54694627163686" lon="10.472627820861096"><ele>271.0</ele><time>2026-04-29T13:18:28Z</time></trkpt><trkpt lat="45.5470133155203" lon="10.472528763899685"><ele>271.0</ele><time>2026-04-29T13:18:31Z</time></trkpt><trkpt lat="45.54708082728751" lon="10.472495679952186"><ele>271.0</ele><time>2026-04-29T13:18:32Z</time></trkpt><trkpt lat="45.547170018674585" lon="10.472450084369763"><ele>271.0</ele><time>2026-04-29T13:18:34Z</time></trkpt><trkpt lat="45.54724594524944" lon="10.472386949125033"><ele>271.0</ele><time>2026-04-29T13:18:36Z</time></trkpt><trkpt lat="45.547302791471935" lon="10.47233963332901"><ele>271.0</ele><time>2026-04-29T13:18:38Z</time></trkpt><trkpt lat="45.54735202521922" lon="10.47241510345895"><ele>271.0</ele><time>2026-04-29T13:18:42Z</time></trkpt><trkpt lat="45.54740494321515" lon="10.472510982195178"><ele>271.0</ele><time>2026-04-29T13:18:45Z</time></trkpt><trkpt lat="45.54746305803947" lon="10.47255567621659"><ele>271.0</ele><time>2026-04-29T13:18:48Z</time></trkpt><trkpt lat="45.54752791776735" lon="10.472597777941223"><ele>271.0</ele><time>2026-04-29T13:18:50Z</time></trkpt><trkpt lat="45.54758519136211" lon="10.472635838706127"><ele>271.0</ele><time>2026-04-29T13:18:52Z</time></trkpt><trkpt lat="45.54764109142924" lon="10.472679229653052"><ele>271.0</ele><time>2026-04-29T13:18:54Z</time></trkpt><trkpt lat="45.547699419385644" lon="10.47272329903213"><ele>271.0</ele><time>2026-04-29T13:18:56Z</time></trkpt><trkpt lat="45.547787223694364" lon="10.472768881561768"><ele>271.0</ele><time>2026-04-29T13:18:59Z</time></trkpt><trkpt lat="45.54787020338852" lon="10.472817840485906"><ele>271.0</ele><time>2026-04-29T13:19:02Z</time></trkpt><trkpt lat="45.547953550661944" lon="10.472864254872153"><ele>271.0</ele><time>2026-04-29T13:19:05Z</time></trkpt><trkpt lat="45.5480142464077" lon="10.47290721766679"><ele>271.0</ele><time>2026-04-29T13:19:08Z</time></trkpt><trkpt lat="45.548085972759985" lon="10.472958594483918"><ele>271.0</ele><time>2026-04-29T13:19:11Z</time></trkpt><trkpt lat="45.54816147114152" lon="10.473005745356062"><ele>271.0</ele><time>2026-04-29T13:19:14Z</time></trkpt><trkpt lat="45.54823588209502" lon="10.473069176073398"><ele>272.8333333333333</ele><time>2026-04-29T13:19:17Z</time></trkpt><trkpt lat="45.548300766742855" lon="10.473115995388602"><ele>274.66666666666663</ele><time>2026-04-29T13:19:19Z</time></trkpt><trkpt lat="45.54837087831147" lon="10.47317681209396"><ele>276.5</ele><time>2026-04-29T13:19:22Z</time></trkpt><trkpt lat="45.54844182716453" lon="10.47323127631356"><ele>278.3333333333333</ele><time>2026-04-29T13:19:25Z</time></trkpt><trkpt lat="45.54851757804458" lon="10.473285095045325"><ele>280.1666666666667</ele><time>2026-04-29T13:19:28Z</time></trkpt><trkpt lat="45.5485877446945" lon="10.473329606219046"><ele>282.0</ele><time>2026-04-29T13:19:31Z</time></trkpt><trkpt lat="45.54863966782121" lon="10.473382496852595"><ele>282.0</ele><time>2026-04-29T13:19:34Z</time></trkpt><trkpt lat="45.54870137824956" lon="10.473439804739632"><ele>282.0</ele><time>2026-04-29T13:19:37Z</time></trkpt><trkpt lat="45.54876346031603" lon="10.473493434974426"><ele>282.0</ele><time>2026-04-29T13:19:40Z</time></trkpt><trkpt lat="45.54882513329229" lon="10.473549711186594"><ele>282.0</ele><time>2026-04-29T13:19:43Z</time></trkpt><trkpt lat="45.5488875696508" lon="10.473601851260659"><ele>282.0</ele><time>2026-04-29T13:19:46Z</time></trkpt><trkpt lat="45.54895191508306" lon="10.473665571201403"><ele>282.0</ele><time>2026-04-29T13:19:49Z</time></trkpt><trkpt lat="45.54902198511778" lon="10.47372495791921"><ele>283.3333333333333</ele><time>2026-04-29T13:19:52Z</time></trkpt><trkpt lat="45.549097891589945" lon="10.473785945070523"><ele>284.6666666666667</ele><time>2026-04-29T13:19:55Z</time></trkpt><trkpt lat="45.54917654501761" lon="10.473836538049515"><ele>286.0</ele><time>2026-04-29T13:19:58Z</time></trkpt><trkpt lat="45.54925364029393" lon="10.473909822555536"><ele>287.33333333333337</ele><time>2026-04-29T13:20:01Z</time></trkpt><trkpt lat="45.54931252546767" lon="10.473983558162804"><ele>288.6666666666667</ele><time>2026-04-29T13:20:04Z</time></trkpt><trkpt lat="45.5493736307123" lon="10.47404385155922"><ele>290.0</ele><time>2026-04-29T13:20:07Z</time></trkpt><trkpt lat="45.549441819352936" lon="10.474126912563376"><ele>290.0</ele><time>2026-04-29T13:20:09Z</time></trkpt><trkpt lat="45.54950387280329" lon="10.474210747820793"><ele>290.0</ele><time>2026-04-29T13:20:12Z</time></trkpt><trkpt lat="45.54955690190606" lon="10.4742699019777"><ele>290.0</ele><time>2026-04-29T13:20:14Z</time></trkpt><trkpt lat="45.54960194520244" lon="10.474334047229103"><ele>290.0</ele><time>2026-04-29T13:20:16Z</time></trkpt><trkpt lat="45.54967605090977" lon="10.474421004310713"><ele>290.0</ele><time>2026-04-29T13:20:19Z</time></trkpt><trkpt lat="45.54974483892308" lon="10.474478714142636"><ele>290.0</ele><time>2026-04-29T13:20:22Z</time></trkpt><trkpt lat="45.54983836587445" lon="10.474557477780955"><ele>291.0</ele><time>2026-04-29T13:20:25Z</time></trkpt><trkpt lat="45.549909084662545" lon="10.474613003046636"><ele>292.0</ele><time>2026-04-29T13:20:28Z</time></trkpt><trkpt lat="45.549969091016465" lon="10.474652915972607"><ele>293.0</ele><time>2026-04-29T13:20:29Z</time></trkpt><trkpt lat="45.550033879230256" lon="10.474730018598539"><ele>294.0</ele><time>2026-04-29T13:20:31Z</time></trkpt><trkpt lat="45.55011462130297" lon="10.474794925489443"><ele>295.0</ele><time>2026-04-29T13:20:34Z</time></trkpt><trkpt lat="45.55018468430675" lon="10.474870611748823"><ele>296.0</ele><time>2026-04-29T13:20:37Z</time></trkpt><trkpt lat="45.550250026777235" lon="10.474935380248452"><ele>296.0</ele><time>2026-04-29T13:20:40Z</time></trkpt><trkpt lat="45.550318165609845" lon="10.474986928486308"><ele>296.0</ele><time>2026-04-29T13:20:43Z</time></trkpt><trkpt lat="45.55036929012709" lon="10.475062104413825"><ele>296.0</ele><time>2026-04-29T13:20:45Z</time></trkpt><trkpt lat="45.55042733246466" lon="10.475139852672154"><ele>296.0</ele><time>2026-04-29T13:20:47Z</time></trkpt><trkpt lat="45.55048766186733" lon="10.475228235935727"><ele>296.0</ele><time>2026-04-29T13:20:50Z</time></trkpt><trkpt lat="45.55055328927131" lon="10.475312206466487"><ele>296.0</ele><time>2026-04-29T13:20:52Z</time></trkpt><trkpt lat="45.55060247582856" lon="10.4753898457485"><ele>296.33333333333337</ele><time>2026-04-29T13:20:54Z</time></trkpt><trkpt lat="45.55067778797598" lon="10.475489991568642"><ele>296.6666666666667</ele><time>2026-04-29T13:20:56Z</time></trkpt><trkpt lat="45.5507430679024" lon="10.475573571733774"><ele>297.0</ele><time>2026-04-29T13:20:58Z</time></trkpt><trkpt lat="45.55080893398332" lon="10.47564808677296"><ele>297.3333333333333</ele><time>2026-04-29T13:21:00Z</time></trkpt><trkpt lat="45.550863562400025" lon="10.475728630925373"><ele>297.66666666666663</ele><time>2026-04-29T13:21:02Z</time></trkpt><trkpt lat="45.55091901281186" lon="10.47578348669419"><ele>298.0</ele><time>2026-04-29T13:21:04Z</time></trkpt><trkpt lat="45.55098937337738" lon="10.475823250059644"><ele>298.0</ele><time>2026-04-29T13:21:06Z</time></trkpt><trkpt lat="45.55106874178982" lon="10.475900498757632"><ele>298.0</ele><time>2026-04-29T13:21:08Z</time></trkpt><trkpt lat="45.551136924104554" lon="10.47598843115447"><ele>298.0</ele><time>2026-04-29T13:21:10Z</time></trkpt><trkpt lat="45.551211458717475" lon="10.476059573055078"><ele>298.0</ele><time>2026-04-29T13:21:12Z</time></trkpt><trkpt lat="45.55127913789609" lon="10.476107039068077"><ele>298.0</ele><time>2026-04-29T13:21:14Z</time></trkpt><trkpt lat="45.55134956076523" lon="10.476146139992519"><ele>298.0</ele><time>2026-04-29T13:21:16Z</time></trkpt><trkpt lat="45.55142199127987" lon="10.476188921748511"><ele>298.5</ele><time>2026-04-29T13:21:18Z</time></trkpt><trkpt lat="45.551492225714725" lon="10.476230426864408"><ele>299.0</ele><time>2026-04-29T13:21:20Z</time></trkpt><trkpt lat="45.5515620375887" lon="10.47627742263371"><ele>299.5</ele><time>2026-04-29T13:21:22Z</time></trkpt><trkpt lat="45.55163154498957" lon="10.476325969644192"><ele>300.0</ele><time>2026-04-29T13:21:24Z</time></trkpt><trkpt lat="45.55170427080378" lon="10.476370551331334"><ele>300.5</ele><time>2026-04-29T13:21:26Z</time></trkpt><trkpt lat="45.551775888656465" lon="10.476414430249005"><ele>301.0</ele><time>2026-04-29T13:21:28Z</time></trkpt><trkpt lat="45.551839937034245" lon="10.476459385684933"><ele>301.0</ele><time>2026-04-29T13:21:31Z</time></trkpt><trkpt lat="45.551895594847096" lon="10.47650590437189"><ele>301.0</ele><time>2026-04-29T13:21:33Z</time></trkpt><trkpt lat="45.55197012566904" lon="10.476564599708936"><ele>301.0</ele><time>2026-04-29T13:21:36Z</time></trkpt><trkpt lat="45.55204255074608" lon="10.47661629656928"><ele>301.0</ele><time>2026-04-29T13:21:39Z</time></trkpt><trkpt lat="45.55211064223503" lon="10.476679362658434"><ele>301.0</ele><time>2026-04-29T13:21:42Z</time></trkpt><trkpt lat="45.55217766153295" lon="10.476729092521849"><ele>301.0</ele><time>2026-04-29T13:21:45Z</time></trkpt><trkpt lat="45.55224249962243" lon="10.476787350366104"><ele>300.8333333333333</ele><time>2026-04-29T13:21:48Z</time></trkpt><trkpt lat="45.55230427809414" lon="10.476858863375064"><ele>300.66666666666663</ele><time>2026-04-29T13:21:51Z</time></trkpt><trkpt lat="45.55237402640563" lon="10.476919049741879"><ele>300.5</ele><time>2026-04-29T13:21:54Z</time></trkpt><trkpt lat="45.552438666641706" lon="10.477001724792089"><ele>300.3333333333333</ele><time>2026-04-29T13:21:56Z</time></trkpt><trkpt lat="45.55250173421861" lon="10.477086678305692"><ele>300.1666666666667</ele><time>2026-04-29T13:21:59Z</time></trkpt><trkpt lat="45.55256318629454" lon="10.477158426460374"><ele>300.0</ele><time>2026-04-29T13:22:01.999Z</time></trkpt><trkpt lat="45.55263133162355" lon="10.477228032325602"><ele>300.8333333333333</ele><time>2026-04-29T13:22:04.999Z</time></trkpt><trkpt lat="45.55270753706734" lon="10.477300105176138"><ele>301.6666666666667</ele><time>2026-04-29T13:22:07.999Z</time></trkpt><trkpt lat="45.55277747096984" lon="10.477384265865403"><ele>302.5</ele><time>2026-04-29T13:22:10.999Z</time></trkpt><trkpt lat="45.552839932052" lon="10.477438734256301"><ele>303.33333333333337</ele><time>2026-04-29T13:22:13.999Z</time></trkpt><trkpt lat="45.55291450691007" lon="10.477482297517442"><ele>304.1666666666667</ele><time>2026-04-29T13:22:15.999Z</time></trkpt><trkpt lat="45.552969592766125" lon="10.477540782657561"><ele>305.0</ele><time>2026-04-29T13:22:18Z</time></trkpt><trkpt lat="45.55302369737708" lon="10.477602632560119"><ele>305.0</ele><time>2026-04-29T13:22:20Z</time></trkpt><trkpt lat="45.55307480790225" lon="10.4776690175681"><ele>305.0</ele><time>2026-04-29T13:22:22Z</time></trkpt><trkpt lat="45.55312424834948" lon="10.477735353395083"><ele>305.0</ele><time>2026-04-29T13:22:24Z</time></trkpt><trkpt lat="45.553176500889975" lon="10.477789673322711"><ele>305.0</ele><time>2026-04-29T13:22:26Z</time></trkpt><trkpt lat="45.5532304142246" lon="10.477847409103667"><ele>305.0</ele><time>2026-04-29T13:22:28Z</time></trkpt><trkpt lat="45.553276613238594" lon="10.477911238340772"><ele>305.0</ele><time>2026-04-29T13:22:30Z</time></trkpt><trkpt lat="45.553319349828705" lon="10.477978347645104"><ele>305.0</ele><time>2026-04-29T13:22:32Z</time></trkpt><trkpt lat="45.55336180745778" lon="10.478046098914461"><ele>306.5</ele><time>2026-04-29T13:22:34Z</time></trkpt><trkpt lat="45.55340851108678" lon="10.478125295134156"><ele>308.0</ele><time>2026-04-29T13:22:36Z</time></trkpt><trkpt lat="45.553467691809296" lon="10.47823479614279"><ele>309.5</ele><time>2026-04-29T13:22:39Z</time></trkpt><trkpt lat="45.553519766887824" lon="10.478345833548985"><ele>311.0</ele><time>2026-04-29T13:22:42Z</time></trkpt><trkpt lat="45.55357361304033" lon="10.478425179804905"><ele>312.5</ele><time>2026-04-29T13:22:45Z</time></trkpt><trkpt lat="45.55360193584355" lon="10.478515189645066"><ele>314.0</ele><time>2026-04-29T13:22:49Z</time></trkpt><trkpt lat="45.55364443254448" lon="10.47858269855495"><ele>314.0</ele><time>2026-04-29T13:22:53Z</time></trkpt><trkpt lat="45.55369440120505" lon="10.478669149387493"><ele>314.0</ele><time>2026-04-29T13:22:56Z</time></trkpt><trkpt lat="45.55372137391795" lon="10.478766458337791"><ele>314.0</ele><time>2026-04-29T13:22:59Z</time></trkpt><trkpt lat="45.55378509836979" lon="10.478726734635066"><ele>314.0</ele><time>2026-04-29T13:23:05Z</time></trkpt><trkpt lat="45.55381124272629" lon="10.478599498198658"><ele>314.0</ele><time>2026-04-29T13:23:08Z</time></trkpt><trkpt lat="45.55378847646914" lon="10.478471377111253"><ele>314.0</ele><time>2026-04-29T13:23:11Z</time></trkpt><trkpt lat="45.553779028464376" lon="10.478318392258007"><ele>312.4</ele><time>2026-04-29T13:23:14Z</time></trkpt><trkpt lat="45.55379623472975" lon="10.47813395196501"><ele>310.79999999999995</ele><time>2026-04-29T13:23:16Z</time></trkpt><trkpt lat="45.55379723073838" lon="10.478024565674636"><ele>309.20000000000005</ele><time>2026-04-29T13:23:17Z</time></trkpt><trkpt lat="45.55380467035873" lon="10.47791152658715"><ele>307.6</ele><time>2026-04-29T13:23:18Z</time></trkpt><trkpt lat="45.55381579715497" lon="10.477789957116766"><ele>306.0</ele><time>2026-04-29T13:23:19Z</time></trkpt><trkpt lat="45.55382720861962" lon="10.477680646610082"><ele>305.0</ele><time>2026-04-29T13:23:20Z</time></trkpt><trkpt lat="45.55383566069497" lon="10.477575962192814"><ele>304.0</ele><time>2026-04-29T13:23:21Z</time></trkpt><trkpt lat="45.55385483036751" lon="10.477476587620858"><ele>303.0</ele><time>2026-04-29T13:23:22Z</time></trkpt><trkpt lat="45.5539059053583" lon="10.477387400343284"><ele>302.0</ele><time>2026-04-29T13:23:23Z</time></trkpt><trkpt lat="45.553960441100195" lon="10.477310781242583"><ele>301.0</ele><time>2026-04-29T13:23:24Z</time></trkpt><trkpt lat="45.55402170971983" lon="10.477235212968644"><ele>300.0</ele><time>2026-04-29T13:23:25Z</time></trkpt><trkpt lat="45.55409438443653" lon="10.477172425869604"><ele>300.0</ele><time>2026-04-29T13:23:26Z</time></trkpt><trkpt lat="45.55416953835457" lon="10.47712401905858"><ele>300.0</ele><time>2026-04-29T13:23:27Z</time></trkpt><trkpt lat="45.554243166844785" lon="10.477060108782235"><ele>300.0</ele><time>2026-04-29T13:23:28Z</time></trkpt><trkpt lat="45.554312142842214" lon="10.476993007416075"><ele>300.0</ele><time>2026-04-29T13:23:29Z</time></trkpt><trkpt lat="45.554361251534516" lon="10.476933874481757"><ele>300.0</ele><time>2026-04-29T13:23:30Z</time></trkpt><trkpt lat="45.554404157909154" lon="10.47685505218362"><ele>300.0</ele><time>2026-04-29T13:23:31Z</time></trkpt><trkpt lat="45.55446852418964" lon="10.476699130192628"><ele>300.1666666666667</ele><time>2026-04-29T13:23:33Z</time></trkpt><trkpt lat="45.55450245311527" lon="10.47661958314924"><ele>300.3333333333333</ele><time>2026-04-29T13:23:34Z</time></trkpt><trkpt lat="45.55454169092442" lon="10.476541775932217"><ele>300.5</ele><time>2026-04-29T13:23:35Z</time></trkpt><trkpt lat="45.55456482107037" lon="10.476457545980784"><ele>300.66666666666663</ele><time>2026-04-29T13:23:36Z</time></trkpt><trkpt lat="45.554631601847746" lon="10.476317426747897"><ele>300.8333333333333</ele><time>2026-04-29T13:23:38Z</time></trkpt><trkpt lat="45.554712253510424" lon="10.476194491441298"><ele>301.0</ele><time>2026-04-29T13:23:40Z</time></trkpt><trkpt lat="45.55474775180587" lon="10.476114841539037"><ele>299.66666666666663</ele><time>2026-04-29T13:23:41Z</time></trkpt><trkpt lat="45.554822454720025" lon="10.475963002068692"><ele>298.3333333333333</ele><time>2026-04-29T13:23:43Z</time></trkpt><trkpt lat="45.55486192049648" lon="10.475881211749726"><ele>297.0</ele><time>2026-04-29T13:23:44Z</time></trkpt><trkpt lat="45.55490142023024" lon="10.475797026507218"><ele>295.6666666666667</ele><time>2026-04-29T13:23:45Z</time></trkpt><trkpt lat="45.55493861669385" lon="10.475713917570173"><ele>294.33333333333337</ele><time>2026-04-29T13:23:45.999Z</time></trkpt><trkpt lat="45.55497494231217" lon="10.475625397375408"><ele>293.0</ele><time>2026-04-29T13:23:46.999Z</time></trkpt><trkpt lat="45.555009842647316" lon="10.475545654491611"><ele>292.99999999999994</ele><time>2026-04-29T13:23:47.999Z</time></trkpt><trkpt lat="45.55504663964388" lon="10.475462894091708"><ele>293.0</ele><time>2026-04-29T13:23:48.999Z</time></trkpt><trkpt lat="45.55508437030751" lon="10.475380366122492"><ele>293.0</ele><time>2026-04-29T13:23:49.999Z</time></trkpt><trkpt lat="45.55511901746049" lon="10.47529546701041"><ele>293.0</ele><time>2026-04-29T13:23:50.999Z</time></trkpt><trkpt lat="45.555145204915945" lon="10.47520198987226"><ele>293.0</ele><time>2026-04-29T13:23:51.999Z</time></trkpt><trkpt lat="45.55517309546704" lon="10.475114340402861"><ele>292.99999999999994</ele><time>2026-04-29T13:23:52.999Z</time></trkpt><trkpt lat="45.55519989660808" lon="10.475015993044144"><ele>293.0</ele><time>2026-04-29T13:23:53.999Z</time></trkpt><trkpt lat="45.555223241195684" lon="10.47492565005795"><ele>293.1428571428571</ele><time>2026-04-29T13:23:54.999Z</time></trkpt><trkpt lat="45.5552400425393" lon="10.474833074907728"><ele>293.2857142857143</ele><time>2026-04-29T13:23:55.999Z</time></trkpt><trkpt lat="45.555271113212264" lon="10.474747963967394"><ele>293.42857142857144</ele><time>2026-04-29T13:23:56.999Z</time></trkpt><trkpt lat="45.555312931966604" lon="10.474671013465462"><ele>293.57142857142856</ele><time>2026-04-29T13:23:57.999Z</time></trkpt><trkpt lat="45.555354684399816" lon="10.474598889263776"><ele>293.7142857142857</ele><time>2026-04-29T13:23:58.999Z</time></trkpt><trkpt lat="45.55540025216577" lon="10.474517865216779"><ele>293.85714285714283</ele><time>2026-04-29T13:23:59.999Z</time></trkpt><trkpt lat="45.55544132481858" lon="10.474433028872463"><ele>294.0</ele><time>2026-04-29T13:24:00.999Z</time></trkpt><trkpt lat="45.55548703522697" lon="10.47435360045047"><ele>292.5</ele><time>2026-04-29T13:24:01.999Z</time></trkpt><trkpt lat="45.55557849952051" lon="10.474281099332448"><ele>291.0</ele><time>2026-04-29T13:24:03.999Z</time></trkpt><trkpt lat="45.555642286673375" lon="10.474222619797086"><ele>289.5</ele><time>2026-04-29T13:24:06.999Z</time></trkpt><trkpt lat="45.555654145637526" lon="10.474133236212566"><ele>288.0</ele><time>2026-04-29T13:24:08.999Z</time></trkpt><trkpt lat="45.55569633744301" lon="10.474005143352898"><ele>286.5</ele><time>2026-04-29T13:24:12.999Z</time></trkpt><trkpt lat="45.555727703387355" lon="10.473892771908949"><ele>285.0</ele><time>2026-04-29T13:24:14.999Z</time></trkpt><trkpt lat="45.55575978106771" lon="10.473783076990642"><ele>284.6</ele><time>2026-04-29T13:24:16.999Z</time></trkpt><trkpt lat="45.55579517420218" lon="10.473646557406058"><ele>284.2</ele><time>2026-04-29T13:24:18.999Z</time></trkpt><trkpt lat="45.55582151233521" lon="10.473499901025363"><ele>283.8</ele><time>2026-04-29T13:24:20.999Z</time></trkpt><trkpt lat="45.55585485364336" lon="10.473337261331721"><ele>283.4</ele><time>2026-04-29T13:24:23Z</time></trkpt><trkpt lat="45.55584795457685" lon="10.473246469315631"><ele>283.0</ele><time>2026-04-29T13:24:24Z</time></trkpt><trkpt lat="45.55586132884582" lon="10.473157501505648"><ele>283.0</ele><time>2026-04-29T13:24:25Z</time></trkpt><trkpt lat="45.555915516596414" lon="10.472993495764257"><ele>283.0</ele><time>2026-04-29T13:24:27Z</time></trkpt><trkpt lat="45.555940974591806" lon="10.472904837207071"><ele>283.0</ele><time>2026-04-29T13:24:28Z</time></trkpt><trkpt lat="45.55595282333408" lon="10.472809273152283"><ele>283.0</ele><time>2026-04-29T13:24:29Z</time></trkpt><trkpt lat="45.55598992481438" lon="10.472727636897545"><ele>283.0</ele><time>2026-04-29T13:24:30Z</time></trkpt><trkpt lat="45.556014403877356" lon="10.472636993803901"><ele>283.0</ele><time>2026-04-29T13:24:31Z</time></trkpt><trkpt lat="45.556023607830085" lon="10.472537070080353"><ele>282.42857142857144</ele><time>2026-04-29T13:24:32Z</time></trkpt><trkpt lat="45.556049799017536" lon="10.472449167228705"><ele>281.8571428571429</ele><time>2026-04-29T13:24:33Z</time></trkpt><trkpt lat="45.55607624795299" lon="10.472356178543073"><ele>281.2857142857143</ele><time>2026-04-29T13:24:34Z</time></trkpt><trkpt lat="45.55611715079746" lon="10.472271803284618"><ele>280.7142857142857</ele><time>2026-04-29T13:24:35Z</time></trkpt><trkpt lat="45.55614243302739" lon="10.47218227046877"><ele>280.1428571428571</ele><time>2026-04-29T13:24:36Z</time></trkpt><trkpt lat="45.556157891124364" lon="10.472083309823946"><ele>279.57142857142856</ele><time>2026-04-29T13:24:37Z</time></trkpt><trkpt lat="45.55613460661309" lon="10.471981225424836"><ele>279.0</ele><time>2026-04-29T13:24:38Z</time></trkpt><trkpt lat="45.55612003702977" lon="10.471880759286462"><ele>279.0</ele><time>2026-04-29T13:24:39Z</time></trkpt><trkpt lat="45.55609121042561" lon="10.471774860048964"><ele>279.0</ele><time>2026-04-29T13:24:40Z</time></trkpt><trkpt lat="45.55603047799397" lon="10.471640894614296"><ele>279.0</ele><time>2026-04-29T13:24:42Z</time></trkpt><trkpt lat="45.555974466245324" lon="10.471491060646912"><ele>279.0</ele><time>2026-04-29T13:24:44Z</time></trkpt><trkpt lat="45.55593328907517" lon="10.471380217936924"><ele>279.0</ele><time>2026-04-29T13:24:46Z</time></trkpt><trkpt lat="45.556025687763665" lon="10.47130015465244"><ele>279.0</ele><time>2026-04-29T13:24:49Z</time></trkpt><trkpt lat="45.55607145944729" lon="10.47121188473955"><ele>279.0</ele><time>2026-04-29T13:24:51Z</time></trkpt><trkpt lat="45.55613691282536" lon="10.471124683683104"><ele>279.0</ele><time>2026-04-29T13:24:53Z</time></trkpt><trkpt lat="45.55620670155174" lon="10.47102106846998"><ele>279.0</ele><time>2026-04-29T13:24:55Z</time></trkpt><trkpt lat="45.55630216152431" lon="10.47094522527309"><ele>279.0</ele><time>2026-04-29T13:24:57Z</time></trkpt><trkpt lat="45.556384062818836" lon="10.470848203693011"><ele>279.3333333333333</ele><time>2026-04-29T13:24:59Z</time></trkpt><trkpt lat="45.55646744164201" lon="10.470753791696053"><ele>279.6666666666667</ele><time>2026-04-29T13:25:01Z</time></trkpt><trkpt lat="45.55655130511417" lon="10.470667578020208"><ele>280.0</ele><time>2026-04-29T13:25:03Z</time></trkpt><trkpt lat="45.556629002539204" lon="10.470595212724307"><ele>280.33333333333337</ele><time>2026-04-29T13:25:05Z</time></trkpt><trkpt lat="45.55669581324745" lon="10.470532635056621"><ele>280.6666666666667</ele><time>2026-04-29T13:25:07Z</time></trkpt><trkpt lat="45.55674857096734" lon="10.470483220002485"><ele>281.0</ele><time>2026-04-29T13:25:09Z</time></trkpt><trkpt lat="45.556811573124854" lon="10.470424209578823"><ele>281.0</ele><time>2026-04-29T13:25:11Z</time></trkpt><trkpt lat="45.556872342691356" lon="10.470364340226675"><ele>281.0</ele><time>2026-04-29T13:25:13Z</time></trkpt><trkpt lat="45.556965859049896" lon="10.47025798093029"><ele>281.0</ele><time>2026-04-29T13:25:17Z</time></trkpt><trkpt lat="45.557030762897114" lon="10.470188076940294"><ele>281.0</ele><time>2026-04-29T13:25:22Z</time></trkpt><trkpt lat="45.55710551665116" lon="10.47014636139076"><ele>281.0</ele><time>2026-04-29T13:25:24Z</time></trkpt><trkpt lat="45.557189335561596" lon="10.470094287104358"><ele>281.0</ele><time>2026-04-29T13:25:26Z</time></trkpt><trkpt lat="45.55728198873804" lon="10.470110691863152"><ele>281.2</ele><time>2026-04-29T13:25:28Z</time></trkpt><trkpt lat="45.55737850751648" lon="10.47013364023964"><ele>281.40000000000003</ele><time>2026-04-29T13:25:30Z</time></trkpt><trkpt lat="45.55748149859012" lon="10.470150965740714"><ele>281.6</ele><time>2026-04-29T13:25:32Z</time></trkpt><trkpt lat="45.557584739587305" lon="10.47017120450235"><ele>281.8</ele><time>2026-04-29T13:25:34Z</time></trkpt><trkpt lat="45.55762849413403" lon="10.470293550203424"><ele>282.0</ele><time>2026-04-29T13:25:35Z</time></trkpt><trkpt lat="45.55769247492781" lon="10.470304364314421"><ele>282.0</ele><time>2026-04-29T13:25:37Z</time></trkpt><trkpt lat="45.557842903157706" lon="10.470329789876066"><ele>282.0</ele><time>2026-04-29T13:25:39Z</time></trkpt><trkpt lat="45.55794080266349" lon="10.470346336967166"><ele>282.0</ele><time>2026-04-29T13:25:41Z</time></trkpt><trkpt lat="45.558041110364336" lon="10.470365105032219"><ele>282.0</ele><time>2026-04-29T13:25:43Z</time></trkpt><trkpt lat="45.55813109153565" lon="10.470384497638447"><ele>282.0</ele><time>2026-04-29T13:25:45Z</time></trkpt><trkpt lat="45.55821511246248" lon="10.470408235481566"><ele>282.2</ele><time>2026-04-29T13:25:47Z</time></trkpt><trkpt lat="45.558289738281914" lon="10.4704293189939"><ele>282.4</ele><time>2026-04-29T13:25:49Z</time></trkpt><trkpt lat="45.55838612968213" lon="10.470334067405457"><ele>282.6</ele><time>2026-04-29T13:25:51Z</time></trkpt><trkpt lat="45.5584718477581" lon="10.470341513931471"><ele>282.8</ele><time>2026-04-29T13:25:53Z</time></trkpt><trkpt lat="45.55854751494156" lon="10.470337819066009"><ele>283.0</ele><time>2026-04-29T13:25:55Z</time></trkpt><trkpt lat="45.558601748927295" lon="10.470450313495634"><ele>283.0</ele><time>2026-04-29T13:25:56Z</time></trkpt><trkpt lat="45.55866896984124" lon="10.470432760710262"><ele>283.0</ele><time>2026-04-29T13:25:58Z</time></trkpt><trkpt lat="45.55878319852273" lon="10.470402625257021"><ele>283.0</ele><time>2026-04-29T13:26:01Z</time></trkpt><trkpt lat="45.55887010638286" lon="10.470383056369448"><ele>283.0</ele><time>2026-04-29T13:26:03Z</time></trkpt><trkpt lat="45.5589576937214" lon="10.47035000782754"><ele>283.0</ele><time>2026-04-29T13:26:05Z</time></trkpt><trkpt lat="45.55907950662358" lon="10.470360132053607"><ele>283.0</ele><time>2026-04-29T13:26:07Z</time></trkpt><trkpt lat="45.55917921161724" lon="10.470353079436022"><ele>283.0</ele><time>2026-04-29T13:26:09Z</time></trkpt><trkpt lat="45.55928778311382" lon="10.470322477616298"><ele>283.0</ele><time>2026-04-29T13:26:11Z</time></trkpt><trkpt lat="45.55939934711606" lon="10.470280271560426"><ele>283.0</ele><time>2026-04-29T13:26:13Z</time></trkpt><trkpt lat="45.55946174905531" lon="10.47024606073147"><ele>283.0</ele><time>2026-04-29T13:26:14Z</time></trkpt><trkpt lat="45.559569770020914" lon="10.470173397504905"><ele>282.5</ele><time>2026-04-29T13:26:16Z</time></trkpt><trkpt lat="45.559668871729755" lon="10.470060864486946"><ele>282.0</ele><time>2026-04-29T13:26:18Z</time></trkpt><trkpt lat="45.55972129716271" lon="10.469996034148302"><ele>281.5</ele><time>2026-04-29T13:26:19Z</time></trkpt><trkpt lat="45.55977327135772" lon="10.469921083371197"><ele>281.0</ele><time>2026-04-29T13:26:20Z</time></trkpt><trkpt lat="45.55981887328642" lon="10.469853822490288"><ele>280.5</ele><time>2026-04-29T13:26:21Z</time></trkpt><trkpt lat="45.55986505366927" lon="10.469785708422922"><ele>280.0</ele><time>2026-04-29T13:26:22Z</time></trkpt><trkpt lat="45.55991276106934" lon="10.469714462636345"><ele>280.0</ele><time>2026-04-29T13:26:23Z</time></trkpt><trkpt lat="45.55995794475826" lon="10.469644353646258"><ele>280.0</ele><time>2026-04-29T13:26:24Z</time></trkpt><trkpt lat="45.560005993588085" lon="10.469570604279653"><ele>280.0</ele><time>2026-04-29T13:26:25Z</time></trkpt><trkpt lat="45.56005309400812" lon="10.46949831061281"><ele>280.0</ele><time>2026-04-29T13:26:26Z</time></trkpt><trkpt lat="45.56010018452445" lon="10.46942701622383"><ele>280.0</ele><time>2026-04-29T13:26:27Z</time></trkpt><trkpt lat="45.56014983931981" lon="10.469351894509243"><ele>280.0</ele><time>2026-04-29T13:26:28Z</time></trkpt><trkpt lat="45.56020012098839" lon="10.469275824425441"><ele>280.0</ele><time>2026-04-29T13:26:29Z</time></trkpt><trkpt lat="45.56024921202436" lon="10.469201598097698"><ele>279.85714285714283</ele><time>2026-04-29T13:26:30Z</time></trkpt><trkpt lat="45.56029864963865" lon="10.469126914937183"><ele>279.7142857142857</ele><time>2026-04-29T13:26:31Z</time></trkpt><trkpt lat="45.56034906533412" lon="10.469050754246702"><ele>279.57142857142856</ele><time>2026-04-29T13:26:32Z</time></trkpt><trkpt lat="45.5604014195151" lon="10.468970101553301"><ele>279.42857142857144</ele><time>2026-04-29T13:26:33Z</time></trkpt><trkpt lat="45.56045244866299" lon="10.46889101099184"><ele>279.2857142857143</ele><time>2026-04-29T13:26:34Z</time></trkpt><trkpt lat="45.56050002830674" lon="10.468817266868674"><ele>279.1428571428571</ele><time>2026-04-29T13:26:35Z</time></trkpt><trkpt lat="45.5605506988945" lon="10.468737516047018"><ele>279.0</ele><time>2026-04-29T13:26:36Z</time></trkpt><trkpt lat="45.56059856375503" lon="10.4686540251704"><ele>279.0</ele><time>2026-04-29T13:26:37Z</time></trkpt><trkpt lat="45.56064276343418" lon="10.468559263109155"><ele>279.0</ele><time>2026-04-29T13:26:38Z</time></trkpt><trkpt lat="45.56068461650518" lon="10.46845846782445"><ele>279.0</ele><time>2026-04-29T13:26:39Z</time></trkpt><trkpt lat="45.5607143912435" lon="10.468347296861854"><ele>279.0</ele><time>2026-04-29T13:26:40Z</time></trkpt><trkpt lat="45.56073718190312" lon="10.46824323819951"><ele>279.0</ele><time>2026-04-29T13:26:41Z</time></trkpt><trkpt lat="45.56075196471427" lon="10.468133681051905"><ele>279.0</ele><time>2026-04-29T13:26:42Z</time></trkpt><trkpt lat="45.560757333567615" lon="10.468027245614852"><ele>279.5</ele><time>2026-04-29T13:26:43Z</time></trkpt><trkpt lat="45.56074904303367" lon="10.467916354236886"><ele>280.0</ele><time>2026-04-29T13:26:44Z</time></trkpt><trkpt lat="45.56073557239274" lon="10.467818092643663"><ele>280.5</ele><time>2026-04-29T13:26:45Z</time></trkpt><trkpt lat="45.560722132390865" lon="10.467727432301041"><ele>281.0</ele><time>2026-04-29T13:26:46Z</time></trkpt><trkpt lat="45.560707405788904" lon="10.467637394705603"><ele>281.5</ele><time>2026-04-29T13:26:47Z</time></trkpt><trkpt lat="45.560676699344754" lon="10.467485953970337"><ele>282.0</ele><time>2026-04-29T13:26:49Z</time></trkpt><trkpt lat="45.56068149303865" lon="10.467394281818697"><ele>282.0</ele><time>2026-04-29T13:26:50Z</time></trkpt><trkpt lat="45.56067630020875" lon="10.467303176723997"><ele>282.0</ele><time>2026-04-29T13:26:51Z</time></trkpt><trkpt lat="45.56066991242072" lon="10.467212183946701"><ele>282.0</ele><time>2026-04-29T13:26:52Z</time></trkpt><trkpt lat="45.560667641042336" lon="10.467120657178496"><ele>282.0</ele><time>2026-04-29T13:26:53Z</time></trkpt><trkpt lat="45.56066369797165" lon="10.466938709506579"><ele>282.0</ele><time>2026-04-29T13:26:55Z</time></trkpt><trkpt lat="45.560658140226344" lon="10.46684832675991"><ele>282.0</ele><time>2026-04-29T13:26:56Z</time></trkpt><trkpt lat="45.560653807387254" lon="10.466756573810887"><ele>282.0</ele><time>2026-04-29T13:26:57Z</time></trkpt><trkpt lat="45.560647841756854" lon="10.466663196021548"><ele>281.6666666666667</ele><time>2026-04-29T13:26:58Z</time></trkpt><trkpt lat="45.56064765306415" lon="10.466568270642606"><ele>281.3333333333333</ele><time>2026-04-29T13:26:59Z</time></trkpt><trkpt lat="45.56064600268989" lon="10.466467413001574"><ele>281.0</ele><time>2026-04-29T13:27:00Z</time></trkpt><trkpt lat="45.560650734811496" lon="10.466359475119429"><ele>280.66666666666663</ele><time>2026-04-29T13:27:01Z</time></trkpt><trkpt lat="45.56066649697365" lon="10.466248279367228"><ele>280.3333333333333</ele><time>2026-04-29T13:27:02Z</time></trkpt><trkpt lat="45.56069905930695" lon="10.466137942782026"><ele>280.0</ele><time>2026-04-29T13:27:03Z</time></trkpt><trkpt lat="45.560749714486654" lon="10.46603180816413"><ele>279.2</ele><time>2026-04-29T13:27:04Z</time></trkpt><trkpt lat="45.560824006083884" lon="10.465939084992609"><ele>278.4</ele><time>2026-04-29T13:27:05Z</time></trkpt><trkpt lat="45.56091266452896" lon="10.465865484577069"><ele>277.6</ele><time>2026-04-29T13:27:06Z</time></trkpt><trkpt lat="45.561009837669566" lon="10.46581314483826"><ele>276.8</ele><time>2026-04-29T13:27:07Z</time></trkpt><trkpt lat="45.56110864123685" lon="10.465760485980665"><ele>276.0</ele><time>2026-04-29T13:27:08Z</time></trkpt><trkpt lat="45.56120098091467" lon="10.465690027120727"><ele>275.0</ele><time>2026-04-29T13:27:09Z</time></trkpt><trkpt lat="45.561292524778" lon="10.465610490396028"><ele>274.0</ele><time>2026-04-29T13:27:10Z</time></trkpt><trkpt lat="45.56138030730657" lon="10.465518197125931"><ele>273.0</ele><time>2026-04-29T13:27:11Z</time></trkpt><trkpt lat="45.561449679661834" lon="10.465387364320133"><ele>272.0</ele><time>2026-04-29T13:27:12Z</time></trkpt><trkpt lat="45.56151891866025" lon="10.46525371429408"><ele>271.0</ele><time>2026-04-29T13:27:13Z</time></trkpt><trkpt lat="45.56158318972706" lon="10.465107553034112"><ele>269.75</ele><time>2026-04-29T13:27:14Z</time></trkpt><trkpt lat="45.561653041221476" lon="10.464962899872054"><ele>268.5</ele><time>2026-04-29T13:27:15Z</time></trkpt><trkpt lat="45.56173151945617" lon="10.464823875172979"><ele>267.25</ele><time>2026-04-29T13:27:16Z</time></trkpt><trkpt lat="45.56182879526324" lon="10.464700576892366"><ele>266.0</ele><time>2026-04-29T13:27:17Z</time></trkpt><trkpt lat="45.561940442553365" lon="10.464603532827162"><ele>263.0</ele><time>2026-04-29T13:27:18Z</time></trkpt><trkpt lat="45.5620686832834" lon="10.464546977461325"><ele>260.0</ele><time>2026-04-29T13:27:19Z</time></trkpt><trkpt lat="45.56219459616237" lon="10.46449232386646"><ele>257.0</ele><time>2026-04-29T13:27:20Z</time></trkpt><trkpt lat="45.562305935860245" lon="10.464405033971106"><ele>254.0</ele><time>2026-04-29T13:27:21Z</time></trkpt><trkpt lat="45.562405351652615" lon="10.464283848253675"><ele>254.0</ele><time>2026-04-29T13:27:22Z</time></trkpt><trkpt lat="45.56249227225498" lon="10.464146076993641"><ele>254.0</ele><time>2026-04-29T13:27:23Z</time></trkpt><trkpt lat="45.56256951743714" lon="10.463997644133567"><ele>254.0</ele><time>2026-04-29T13:27:24Z</time></trkpt><trkpt lat="45.56264129213186" lon="10.463845262990619"><ele>254.0</ele><time>2026-04-29T13:27:25Z</time></trkpt><trkpt lat="45.56271065042806" lon="10.463692779741066"><ele>253.5</ele><time>2026-04-29T13:27:26Z</time></trkpt><trkpt lat="45.5627788533899" lon="10.463538367958328"><ele>253.0</ele><time>2026-04-29T13:27:27Z</time></trkpt><trkpt lat="45.562846947835226" lon="10.46338898856522"><ele>252.5</ele><time>2026-04-29T13:27:28Z</time></trkpt><trkpt lat="45.562914456337765" lon="10.463240917470708"><ele>252.0</ele><time>2026-04-29T13:27:29Z</time></trkpt><trkpt lat="45.56295982591812" lon="10.463093874150339"><ele>251.5</ele><time>2026-04-29T13:27:30Z</time></trkpt><trkpt lat="45.56303627146987" lon="10.46294385062727"><ele>251.0</ele><time>2026-04-29T13:27:31Z</time></trkpt><trkpt lat="45.563099425004744" lon="10.462802392453591"><ele>250.5</ele><time>2026-04-29T13:27:32Z</time></trkpt><trkpt lat="45.56316114957683" lon="10.462660752837172"><ele>250.0</ele><time>2026-04-29T13:27:33Z</time></trkpt><trkpt lat="45.56322310054122" lon="10.462526883340535"><ele>250.0</ele><time>2026-04-29T13:27:34Z</time></trkpt><trkpt lat="45.56327460719132" lon="10.462391224508137"><ele>250.0</ele><time>2026-04-29T13:27:35Z</time></trkpt><trkpt lat="45.563309943309115" lon="10.462254735832376"><ele>250.0</ele><time>2026-04-29T13:27:36Z</time></trkpt><trkpt lat="45.56331297471539" lon="10.46210861208217"><ele>250.0</ele><time>2026-04-29T13:27:37Z</time></trkpt><trkpt lat="45.56327438678099" lon="10.4619679279356"><ele>250.0</ele><time>2026-04-29T13:27:38Z</time></trkpt><trkpt lat="45.563218695157964" lon="10.461841583251685"><ele>249.4</ele><time>2026-04-29T13:27:39Z</time></trkpt><trkpt lat="45.563165500856876" lon="10.461720309073767"><ele>248.8</ele><time>2026-04-29T13:27:40Z</time></trkpt><trkpt lat="45.56311378446677" lon="10.46160243425861"><ele>248.2</ele><time>2026-04-29T13:27:41Z</time></trkpt><trkpt lat="45.56306654106429" lon="10.461480770887468"><ele>247.6</ele><time>2026-04-29T13:27:42Z</time></trkpt><trkpt lat="45.56302559232466" lon="10.461352370297847"><ele>247.0</ele><time>2026-04-29T13:27:43Z</time></trkpt><trkpt lat="45.56298022010914" lon="10.461227881635828"><ele>246.6</ele><time>2026-04-29T13:27:44Z</time></trkpt><trkpt lat="45.562952596158745" lon="10.461097171023408"><ele>246.2</ele><time>2026-04-29T13:27:45Z</time></trkpt><trkpt lat="45.56295149718056" lon="10.460972793963071"><ele>245.8</ele><time>2026-04-29T13:27:46Z</time></trkpt><trkpt lat="45.5630026448103" lon="10.46083437974726"><ele>245.4</ele><time>2026-04-29T13:27:47Z</time></trkpt><trkpt lat="45.563073347674425" lon="10.460743120681514"><ele>245.0</ele><time>2026-04-29T13:27:48Z</time></trkpt><trkpt lat="45.56316496212057" lon="10.460716529018763"><ele>245.0</ele><time>2026-04-29T13:27:49Z</time></trkpt><trkpt lat="45.56325312445442" lon="10.460717931613427"><ele>245.0</ele><time>2026-04-29T13:27:50Z</time></trkpt><trkpt lat="45.56332528874465" lon="10.460735275089263"><ele>245.0</ele><time>2026-04-29T13:27:51Z</time></trkpt><trkpt lat="45.56339785280028" lon="10.460743609324696"><ele>245.0</ele><time>2026-04-29T13:27:52Z</time></trkpt><trkpt lat="45.563467396421714" lon="10.460743518759209"><ele>245.0</ele><time>2026-04-29T13:27:53Z</time></trkpt><trkpt lat="45.56353414955191" lon="10.460745379131394"><ele>245.0</ele><time>2026-04-29T13:27:54Z</time></trkpt><trkpt lat="45.56360218303327" lon="10.460739616475543"><ele>245.0</ele><time>2026-04-29T13:27:55Z</time></trkpt><trkpt lat="45.563678662560285" lon="10.46073069700715"><ele>245.0</ele><time>2026-04-29T13:27:56Z</time></trkpt><trkpt lat="45.563743750891796" lon="10.460731062978658"><ele>245.0</ele><time>2026-04-29T13:27:57Z</time></trkpt><trkpt lat="45.5638649087154" lon="10.460741520201188"><ele>245.0</ele><time>2026-04-29T13:27:59Z</time></trkpt><trkpt lat="45.56399166726903" lon="10.4607420445152"><ele>245.0</ele><time>2026-04-29T13:28:01Z</time></trkpt><trkpt lat="45.56411979808235" lon="10.46073693289489"><ele>245.0</ele><time>2026-04-29T13:28:03Z</time></trkpt><trkpt lat="45.5641828826585" lon="10.460741993852903"><ele>245.0</ele><time>2026-04-29T13:28:04Z</time></trkpt><trkpt lat="45.5642920607906" lon="10.460737761928893"><ele>245.0</ele><time>2026-04-29T13:28:06Z</time></trkpt><trkpt lat="45.564357891674604" lon="10.460740956910929"><ele>245.0</ele><time>2026-04-29T13:28:07Z</time></trkpt><trkpt lat="45.5644291097293" lon="10.460744803108216"><ele>245.0</ele><time>2026-04-29T13:28:08Z</time></trkpt><trkpt lat="45.56449271751983" lon="10.460751416173734"><ele>245.0</ele><time>2026-04-29T13:28:09Z</time></trkpt><trkpt lat="45.564556402116146" lon="10.460773608650193"><ele>245.0</ele><time>2026-04-29T13:28:10Z</time></trkpt><trkpt lat="45.56460944096542" lon="10.460831933744318"><ele>245.0</ele><time>2026-04-29T13:28:11Z</time></trkpt><trkpt lat="45.56465989974227" lon="10.460887195820186"><ele>245.00000000000003</ele><time>2026-04-29T13:28:12Z</time></trkpt><trkpt lat="45.564768846111235" lon="10.46096539647045"><ele>245.0</ele><time>2026-04-29T13:28:14Z</time></trkpt><trkpt lat="45.56483245318705" lon="10.46094319804584"><ele>245.0</ele><time>2026-04-29T13:28:15Z</time></trkpt><trkpt lat="45.564883139917534" lon="10.4608768131521"><ele>245.0</ele><time>2026-04-29T13:28:16Z</time></trkpt><trkpt lat="45.56489801831081" lon="10.460778216622048"><ele>245.00000000000003</ele><time>2026-04-29T13:28:17Z</time></trkpt><trkpt lat="45.56495965421137" lon="10.46072847732841"><ele>245.0</ele><time>2026-04-29T13:28:18Z</time></trkpt><trkpt lat="45.56504868363532" lon="10.460599694819892"><ele>245.00000000000003</ele><time>2026-04-29T13:28:20Z</time></trkpt><trkpt lat="45.56513654824917" lon="10.460467687558102"><ele>245.0</ele><time>2026-04-29T13:28:22Z</time></trkpt><trkpt lat="45.56518096975811" lon="10.460398761729701"><ele>245.0</ele><time>2026-04-29T13:28:23Z</time></trkpt><trkpt lat="45.56522319981121" lon="10.4603255993059"><ele>245.0</ele><time>2026-04-29T13:28:24Z</time></trkpt><trkpt lat="45.56526462793569" lon="10.46024805790268"><ele>245.00000000000003</ele><time>2026-04-29T13:28:25Z</time></trkpt><trkpt lat="45.565305202109485" lon="10.460169409535467"><ele>245.0</ele><time>2026-04-29T13:28:26Z</time></trkpt><trkpt lat="45.56534984269062" lon="10.46009452253018"><ele>244.57142857142856</ele><time>2026-04-29T13:28:27Z</time></trkpt><trkpt lat="45.56539420660069" lon="10.460017256459217"><ele>244.14285714285714</ele><time>2026-04-29T13:28:28Z</time></trkpt><trkpt lat="45.565438259570634" lon="10.459942450039389"><ele>243.71428571428572</ele><time>2026-04-29T13:28:29Z</time></trkpt><trkpt lat="45.56548265829617" lon="10.459868407163459"><ele>243.28571428571428</ele><time>2026-04-29T13:28:30Z</time></trkpt><trkpt lat="45.56552869183382" lon="10.45979177644607"><ele>242.85714285714283</ele><time>2026-04-29T13:28:31Z</time></trkpt><trkpt lat="45.565571882539246" lon="10.45971283706789"><ele>242.42857142857142</ele><time>2026-04-29T13:28:32Z</time></trkpt><trkpt lat="45.565616929250346" lon="10.45963712339127"><ele>242.0</ele><time>2026-04-29T13:28:33Z</time></trkpt><trkpt lat="45.56566441442322" lon="10.459564493625262"><ele>241.39999999999998</ele><time>2026-04-29T13:28:34.001Z</time></trkpt><trkpt lat="45.56571786669462" lon="10.459499003282895"><ele>240.79999999999998</ele><time>2026-04-29T13:28:35.001Z</time></trkpt><trkpt lat="45.56576778714676" lon="10.459433187348663"><ele>240.2</ele><time>2026-04-29T13:28:36.001Z</time></trkpt><trkpt lat="45.56586013630647" lon="10.459344452219009"><ele>239.6</ele><time>2026-04-29T13:28:38.001Z</time></trkpt><trkpt lat="45.56596511023831" lon="10.459267634656728"><ele>239.0</ele><time>2026-04-29T13:28:40.001Z</time></trkpt><trkpt lat="45.566048215639306" lon="10.45923694185391"><ele>239.0</ele><time>2026-04-29T13:28:42.001Z</time></trkpt><trkpt lat="45.566147609102856" lon="10.459221193938424"><ele>239.0</ele><time>2026-04-29T13:28:44.001Z</time></trkpt><trkpt lat="45.56624740845199" lon="10.459158525861847"><ele>239.0</ele><time>2026-04-29T13:28:46.001Z</time></trkpt><trkpt lat="45.56630670866847" lon="10.459009801530064"><ele>239.0</ele><time>2026-04-29T13:28:48.001Z</time></trkpt><trkpt lat="45.56629007714753" lon="10.458830071431379"><ele>238.39999999999998</ele><time>2026-04-29T13:28:50.001Z</time></trkpt><trkpt lat="45.566285212792316" lon="10.458737392987423"><ele>237.79999999999998</ele><time>2026-04-29T13:28:51Z</time></trkpt><trkpt lat="45.56635796676758" lon="10.458571583218433"><ele>237.20000000000002</ele><time>2026-04-29T13:28:53Z</time></trkpt><trkpt lat="45.56639914317652" lon="10.458502361117267"><ele>236.60000000000002</ele><time>2026-04-29T13:28:54Z</time></trkpt><trkpt lat="45.56648610577764" lon="10.458362060649504"><ele>236.0</ele><time>2026-04-29T13:28:56Z</time></trkpt><trkpt lat="45.56653524243112" lon="10.45829812931176"><ele>236.0</ele><time>2026-04-29T13:28:57Z</time></trkpt><trkpt lat="45.56658030358821" lon="10.458226412769525"><ele>236.0</ele><time>2026-04-29T13:28:58Z</time></trkpt><trkpt lat="45.56662778523112" lon="10.458159713956684"><ele>236.0</ele><time>2026-04-29T13:28:59Z</time></trkpt><trkpt lat="45.566675572838115" lon="10.458090109507838"><ele>236.0</ele><time>2026-04-29T13:29:00Z</time></trkpt><trkpt lat="45.56672081166535" lon="10.458019315672129"><ele>236.0</ele><time>2026-04-29T13:29:01Z</time></trkpt><trkpt lat="45.566767689398866" lon="10.457951795812098"><ele>236.0</ele><time>2026-04-29T13:29:02Z</time></trkpt><trkpt lat="45.56681457372922" lon="10.457881466879863"><ele>236.0</ele><time>2026-04-29T13:29:03Z</time></trkpt><trkpt lat="45.566859745066694" lon="10.457813153537428"><ele>235.85714285714283</ele><time>2026-04-29T13:29:04Z</time></trkpt><trkpt lat="45.56690662234394" lon="10.457747352410339"><ele>235.71428571428572</ele><time>2026-04-29T13:29:05Z</time></trkpt><trkpt lat="45.56694998842717" lon="10.45767766091839"><ele>235.57142857142856</ele><time>2026-04-29T13:29:06Z</time></trkpt><trkpt lat="45.566995455430096" lon="10.45761055905227"><ele>235.42857142857142</ele><time>2026-04-29T13:29:07Z</time></trkpt><trkpt lat="45.567040361655955" lon="10.457544830130526"><ele>235.28571428571428</ele><time>2026-04-29T13:29:08Z</time></trkpt><trkpt lat="45.56708409608913" lon="10.4574799725504"><ele>235.14285714285714</ele><time>2026-04-29T13:29:09Z</time></trkpt><trkpt lat="45.56712841373884" lon="10.457414303767498"><ele>235.0</ele><time>2026-04-29T13:29:10Z</time></trkpt><trkpt lat="45.56721135773285" lon="10.457285797289439"><ele>235.75</ele><time>2026-04-29T13:29:12Z</time></trkpt><trkpt lat="45.567292714657256" lon="10.457157657780067"><ele>236.5</ele><time>2026-04-29T13:29:14Z</time></trkpt><trkpt lat="45.56736937965032" lon="10.457034325869147"><ele>237.25</ele><time>2026-04-29T13:29:16Z</time></trkpt><trkpt lat="45.567450768725664" lon="10.456904105570262"><ele>238.0</ele><time>2026-04-29T13:29:18Z</time></trkpt><trkpt lat="45.567527680375086" lon="10.456781270371238"><ele>238.0</ele><time>2026-04-29T13:29:20Z</time></trkpt><trkpt lat="45.56756977126875" lon="10.45671412972974"><ele>238.0</ele><time>2026-04-29T13:29:21Z</time></trkpt><trkpt lat="45.567648407046974" lon="10.456586149024227"><ele>238.0</ele><time>2026-04-29T13:29:23Z</time></trkpt><trkpt lat="45.567733147358226" lon="10.456461808245542"><ele>238.0</ele><time>2026-04-29T13:29:25Z</time></trkpt><trkpt lat="45.56781485667575" lon="10.456330819232985"><ele>238.0</ele><time>2026-04-29T13:29:27Z</time></trkpt><trkpt lat="45.5678967500353" lon="10.456203520314125"><ele>237.83333333333331</ele><time>2026-04-29T13:29:29Z</time></trkpt><trkpt lat="45.56798807627302" lon="10.456080302814408"><ele>237.66666666666666</ele><time>2026-04-29T13:29:31Z</time></trkpt><trkpt lat="45.56803328731649" lon="10.456013537277956"><ele>237.5</ele><time>2026-04-29T13:29:32Z</time></trkpt><trkpt lat="45.56808144164223" lon="10.45595241909944"><ele>237.33333333333331</ele><time>2026-04-29T13:29:33Z</time></trkpt><trkpt lat="45.568131770943424" lon="10.4558905533658"><ele>237.16666666666666</ele><time>2026-04-29T13:29:33.999Z</time></trkpt><trkpt lat="45.568183772314704" lon="10.45583015698512"><ele>237.0</ele><time>2026-04-29T13:29:34.999Z</time></trkpt><trkpt lat="45.56823817256609" lon="10.45577892900514"><ele>236.99999999999997</ele><time>2026-04-29T13:29:35.999Z</time></trkpt><trkpt lat="45.56829250530185" lon="10.455723819596805"><ele>237.0</ele><time>2026-04-29T13:29:36.999Z</time></trkpt><trkpt lat="45.56834869385951" lon="10.455672628594519"><ele>236.99999999999997</ele><time>2026-04-29T13:29:37.999Z</time></trkpt><trkpt lat="45.568406693408704" lon="10.45562023269735"><ele>236.99999999999997</ele><time>2026-04-29T13:29:38.999Z</time></trkpt><trkpt lat="45.56846428536216" lon="10.455567071547108"><ele>237.0</ele><time>2026-04-29T13:29:39.999Z</time></trkpt><trkpt lat="45.56852219048589" lon="10.455514096627645"><ele>236.99999999999997</ele><time>2026-04-29T13:29:40.999Z</time></trkpt><trkpt lat="45.56858138406963" lon="10.455462209212085"><ele>236.99999999999997</ele><time>2026-04-29T13:29:41.999Z</time></trkpt><trkpt lat="45.568641777561574" lon="10.455410371573684"><ele>236.71428571428567</ele><time>2026-04-29T13:29:42.999Z</time></trkpt><trkpt lat="45.568701755473526" lon="10.455358891291537"><ele>236.42857142857142</ele><time>2026-04-29T13:29:43.999Z</time></trkpt><trkpt lat="45.568764840632014" lon="10.455305202194975"><ele>236.1428571428571</ele><time>2026-04-29T13:29:44.999Z</time></trkpt><trkpt lat="45.568828865731504" lon="10.45525088310169"><ele>235.85714285714283</ele><time>2026-04-29T13:29:45.999Z</time></trkpt><trkpt lat="45.568892732191465" lon="10.455194441106956"><ele>235.57142857142856</ele><time>2026-04-29T13:29:46.999Z</time></trkpt><trkpt lat="45.568958002885445" lon="10.455137337968758"><ele>235.28571428571428</ele><time>2026-04-29T13:29:47.999Z</time></trkpt><trkpt lat="45.56902402446536" lon="10.455080812287902"><ele>235.0</ele><time>2026-04-29T13:29:48.999Z</time></trkpt><trkpt lat="45.56908871314325" lon="10.455019545134292"><ele>234.99999999999997</ele><time>2026-04-29T13:29:49.999Z</time></trkpt><trkpt lat="45.569155387988445" lon="10.45495969404493"><ele>235.0</ele><time>2026-04-29T13:29:50.999Z</time></trkpt><trkpt lat="45.56922199706134" lon="10.454896515675777"><ele>235.0</ele><time>2026-04-29T13:29:51.999Z</time></trkpt><trkpt lat="45.569287515675065" lon="10.454833497195265"><ele>235.0</ele><time>2026-04-29T13:29:52.999Z</time></trkpt><trkpt lat="45.569354437021595" lon="10.454770614689075"><ele>234.99999999999997</ele><time>2026-04-29T13:29:53.999Z</time></trkpt><trkpt lat="45.569422872163074" lon="10.454705004333936"><ele>235.0</ele><time>2026-04-29T13:29:54.999Z</time></trkpt><trkpt lat="45.569487973039436" lon="10.4546364011657"><ele>234.16666666666666</ele><time>2026-04-29T13:29:55.999Z</time></trkpt><trkpt lat="45.569555837665355" lon="10.454567233606646"><ele>233.33333333333331</ele><time>2026-04-29T13:29:56.999Z</time></trkpt><trkpt lat="45.56962289506272" lon="10.454497164274516"><ele>232.5</ele><time>2026-04-29T13:29:57.999Z</time></trkpt><trkpt lat="45.569690098484614" lon="10.45442684700284"><ele>231.66666666666669</ele><time>2026-04-29T13:29:58.999Z</time></trkpt><trkpt lat="45.569756991908555" lon="10.454354806271484"><ele>230.83333333333334</ele><time>2026-04-29T13:29:59.999Z</time></trkpt><trkpt lat="45.56982426898199" lon="10.454281443341792"><ele>230.0</ele><time>2026-04-29T13:30:00.999Z</time></trkpt><trkpt lat="45.56989432523385" lon="10.454209151663365"><ele>230.0</ele><time>2026-04-29T13:30:01.999Z</time></trkpt><trkpt lat="45.56996204282576" lon="10.45413066568117"><ele>230.0</ele><time>2026-04-29T13:30:02.999Z</time></trkpt><trkpt lat="45.57003216387964" lon="10.454053396344522"><ele>230.0</ele><time>2026-04-29T13:30:03.999Z</time></trkpt><trkpt lat="45.57010401382679" lon="10.453978474081012"><ele>230.0</ele><time>2026-04-29T13:30:04.999Z</time></trkpt><trkpt lat="45.57017717266553" lon="10.453903089405564"><ele>230.0</ele><time>2026-04-29T13:30:05.999Z</time></trkpt><trkpt lat="45.57025271454425" lon="10.453820706534076"><ele>229.2</ele><time>2026-04-29T13:30:06.999Z</time></trkpt><trkpt lat="45.57032820891791" lon="10.453743496006473"><ele>228.4</ele><time>2026-04-29T13:30:07.999Z</time></trkpt><trkpt lat="45.570404826392064" lon="10.453668127795666"><ele>227.60000000000002</ele><time>2026-04-29T13:30:08.999Z</time></trkpt><trkpt lat="45.57048255495291" lon="10.453589628539111"><ele>226.8</ele><time>2026-04-29T13:30:09.999Z</time></trkpt><trkpt lat="45.57055980196757" lon="10.453511101617517"><ele>226.0</ele><time>2026-04-29T13:30:10.999Z</time></trkpt><trkpt lat="45.57063590939371" lon="10.45343189762918"><ele>226.0</ele><time>2026-04-29T13:30:11.999Z</time></trkpt><trkpt lat="45.57071040609535" lon="10.453350194815457"><ele>226.00000000000003</ele><time>2026-04-29T13:30:12.999Z</time></trkpt><trkpt lat="45.57078431921446" lon="10.453272214876293"><ele>226.00000000000003</ele><time>2026-04-29T13:30:13.999Z</time></trkpt><trkpt lat="45.5708525624814" lon="10.45318960124871"><ele>226.0</ele><time>2026-04-29T13:30:14.999Z</time></trkpt><trkpt lat="45.5709211062912" lon="10.453105501118978"><ele>226.0</ele><time>2026-04-29T13:30:15.999Z</time></trkpt><trkpt lat="45.57098123594778" lon="10.453017549300233"><ele>225.83333333333331</ele><time>2026-04-29T13:30:16.999Z</time></trkpt><trkpt lat="45.57104115144138" lon="10.452929654239467"><ele>225.66666666666666</ele><time>2026-04-29T13:30:17.999Z</time></trkpt><trkpt lat="45.57109586422934" lon="10.452835967881901"><ele>225.5</ele><time>2026-04-29T13:30:18.999Z</time></trkpt><trkpt lat="45.57115169698347" lon="10.452748643746482"><ele>225.33333333333331</ele><time>2026-04-29T13:30:19.999Z</time></trkpt><trkpt lat="45.57120492850316" lon="10.452659517051595"><ele>225.16666666666666</ele><time>2026-04-29T13:30:20.999Z</time></trkpt><trkpt lat="45.571257243975396" lon="10.452573762319343"><ele>225.0</ele><time>2026-04-29T13:30:21.999Z</time></trkpt><trkpt lat="45.57130825123937" lon="10.452486297997252"><ele>225.0</ele><time>2026-04-29T13:30:22.999Z</time></trkpt><trkpt lat="45.57135981691482" lon="10.452401006720319"><ele>225.0</ele><time>2026-04-29T13:30:23.999Z</time></trkpt><trkpt lat="45.57141232834306" lon="10.45231899065156"><ele>225.0</ele><time>2026-04-29T13:30:24.999Z</time></trkpt><trkpt lat="45.57146327054129" lon="10.45223656834641"><ele>225.0</ele><time>2026-04-29T13:30:25.999Z</time></trkpt><trkpt lat="45.571512441332594" lon="10.452155605724412"><ele>225.0</ele><time>2026-04-29T13:30:26.999Z</time></trkpt><trkpt lat="45.57156112076081" lon="10.452074611476261"><ele>225.0</ele><time>2026-04-29T13:30:27.999Z</time></trkpt><trkpt lat="45.57161012724669" lon="10.451997127159112"><ele>225.00000000000003</ele><time>2026-04-29T13:30:28.999Z</time></trkpt><trkpt lat="45.57165565188787" lon="10.451917573025263"><ele>225.0</ele><time>2026-04-29T13:30:29.999Z</time></trkpt><trkpt lat="45.57170469100715" lon="10.451841403282819"><ele>225.00000000000003</ele><time>2026-04-29T13:30:30.999Z</time></trkpt><trkpt lat="45.57175311808961" lon="10.451764060357796"><ele>225.00000000000003</ele><time>2026-04-29T13:30:31.999Z</time></trkpt><trkpt lat="45.57179935361319" lon="10.451683531644813"><ele>225.0</ele><time>2026-04-29T13:30:32.999Z</time></trkpt><trkpt lat="45.57184693960771" lon="10.451607921146955"><ele>225.00000000000003</ele><time>2026-04-29T13:30:33.999Z</time></trkpt><trkpt lat="45.57189702031867" lon="10.451533629813659"><ele>225.00000000000003</ele><time>2026-04-29T13:30:34.999Z</time></trkpt><trkpt lat="45.57194745569078" lon="10.451457705360731"><ele>225.00000000000003</ele><time>2026-04-29T13:30:35.999Z</time></trkpt><trkpt lat="45.571997556890004" lon="10.451385937181868"><ele>225.0</ele><time>2026-04-29T13:30:36.999Z</time></trkpt><trkpt lat="45.57205116874325" lon="10.451315722954844"><ele>225.00000000000003</ele><time>2026-04-29T13:30:37.999Z</time></trkpt><trkpt lat="45.57210321612203" lon="10.4512439659851"><ele>225.00000000000003</ele><time>2026-04-29T13:30:39Z</time></trkpt><trkpt lat="45.57215551184722" lon="10.451173625207998"><ele>225.0</ele><time>2026-04-29T13:30:40Z</time></trkpt><trkpt lat="45.57221245078396" lon="10.451108929237058"><ele>225.00000000000003</ele><time>2026-04-29T13:30:41Z</time></trkpt><trkpt lat="45.57226608096265" lon="10.451038829533829"><ele>225.00000000000003</ele><time>2026-04-29T13:30:42Z</time></trkpt><trkpt lat="45.57231802474435" lon="10.450967505184728"><ele>224.8571428571429</ele><time>2026-04-29T13:30:43Z</time></trkpt><trkpt lat="45.57237304561407" lon="10.450899448225718"><ele>224.71428571428572</ele><time>2026-04-29T13:30:44Z</time></trkpt><trkpt lat="45.572428154266895" lon="10.450832092579533"><ele>224.57142857142858</ele><time>2026-04-29T13:30:45Z</time></trkpt><trkpt lat="45.5724813668181" lon="10.450764123302275"><ele>224.42857142857144</ele><time>2026-04-29T13:30:46Z</time></trkpt><trkpt lat="45.572535881170694" lon="10.450695442487921"><ele>224.28571428571428</ele><time>2026-04-29T13:30:47Z</time></trkpt><trkpt lat="45.572587777541536" lon="10.450625254865043"><ele>224.14285714285714</ele><time>2026-04-29T13:30:48Z</time></trkpt><trkpt lat="45.57264254586566" lon="10.4505535370771"><ele>224.0</ele><time>2026-04-29T13:30:49Z</time></trkpt><trkpt lat="45.57269757123273" lon="10.450487614217803"><ele>224.0</ele><time>2026-04-29T13:30:50Z</time></trkpt><trkpt lat="45.57275128348265" lon="10.450419303744322"><ele>224.0</ele><time>2026-04-29T13:30:51Z</time></trkpt><trkpt lat="45.57280583353778" lon="10.450348167516445"><ele>224.0</ele><time>2026-04-29T13:30:52Z</time></trkpt><trkpt lat="45.57285786387604" lon="10.450276024439765"><ele>224.0</ele><time>2026-04-29T13:30:53Z</time></trkpt><trkpt lat="45.57291031492519" lon="10.450206884212024"><ele>224.0</ele><time>2026-04-29T13:30:54Z</time></trkpt><trkpt lat="45.572961551336626" lon="10.450135741647651"><ele>224.0</ele><time>2026-04-29T13:30:55Z</time></trkpt><trkpt lat="45.57301176310121" lon="10.45006240488681"><ele>224.0</ele><time>2026-04-29T13:30:56Z</time></trkpt><trkpt lat="45.573058402051096" lon="10.449986874740446"><ele>224.00000000000003</ele><time>2026-04-29T13:30:57Z</time></trkpt><trkpt lat="45.57310150784579" lon="10.449904794275403"><ele>224.0</ele><time>2026-04-29T13:30:58Z</time></trkpt><trkpt lat="45.57314107707587" lon="10.449819449250692"><ele>224.0</ele><time>2026-04-29T13:30:59Z</time></trkpt><trkpt lat="45.573177970336104" lon="10.449728556280206"><ele>224.0</ele><time>2026-04-29T13:31:00Z</time></trkpt><trkpt lat="45.573211850653145" lon="10.449633202009997"><ele>224.00000000000003</ele><time>2026-04-29T13:31:01Z</time></trkpt><trkpt lat="45.57324341366229" lon="10.449529898498968"><ele>224.0</ele><time>2026-04-29T13:31:02Z</time></trkpt><trkpt lat="45.57327082130492" lon="10.449420596510581"><ele>223.66666666666669</ele><time>2026-04-29T13:31:03Z</time></trkpt><trkpt lat="45.57329622198935" lon="10.449307740066036"><ele>223.33333333333334</ele><time>2026-04-29T13:31:04Z</time></trkpt><trkpt lat="45.57332367633203" lon="10.44919143457604"><ele>223.0</ele><time>2026-04-29T13:31:05Z</time></trkpt><trkpt lat="45.57335352147619" lon="10.449072292708523"><ele>222.66666666666669</ele><time>2026-04-29T13:31:06Z</time></trkpt><trkpt lat="45.573385186337234" lon="10.448952015119874"><ele>222.33333333333334</ele><time>2026-04-29T13:31:07Z</time></trkpt><trkpt lat="45.57341616023177" lon="10.44882777086265"><ele>222.0</ele><time>2026-04-29T13:31:08Z</time></trkpt><trkpt lat="45.573450785767534" lon="10.448703450267313"><ele>221.6</ele><time>2026-04-29T13:31:09Z</time></trkpt><trkpt lat="45.57348480196715" lon="10.448579770005601"><ele>221.2</ele><time>2026-04-29T13:31:10Z</time></trkpt><trkpt lat="45.573518483617114" lon="10.448457499865093"><ele>220.8</ele><time>2026-04-29T13:31:11Z</time></trkpt><trkpt lat="45.573554994099894" lon="10.448340881447734"><ele>220.4</ele><time>2026-04-29T13:31:12Z</time></trkpt><trkpt lat="45.573600874055366" lon="10.448218625367115"><ele>220.0</ele><time>2026-04-29T13:31:13Z</time></trkpt><trkpt lat="45.57364871432405" lon="10.448104709801"><ele>219.2</ele><time>2026-04-29T13:31:14Z</time></trkpt><trkpt lat="45.57370563757722" lon="10.44799633466038"><ele>218.4</ele><time>2026-04-29T13:31:15Z</time></trkpt><trkpt lat="45.573770568643596" lon="10.447886986396387"><ele>217.60000000000002</ele><time>2026-04-29T13:31:16Z</time></trkpt><trkpt lat="45.573838626909755" lon="10.44778673958734"><ele>216.8</ele><time>2026-04-29T13:31:17Z</time></trkpt><trkpt lat="45.57390728660915" lon="10.44768952034098"><ele>216.0</ele><time>2026-04-29T13:31:18Z</time></trkpt><trkpt lat="45.57397939534258" lon="10.447587596286448"><ele>215.4</ele><time>2026-04-29T13:31:19Z</time></trkpt><trkpt lat="45.57405096997481" lon="10.447484721320084"><ele>214.8</ele><time>2026-04-29T13:31:20Z</time></trkpt><trkpt lat="45.57412425616506" lon="10.44738217578629"><ele>214.20000000000002</ele><time>2026-04-29T13:31:21Z</time></trkpt><trkpt lat="45.57419880854315" lon="10.44727947215838"><ele>213.60000000000002</ele><time>2026-04-29T13:31:22Z</time></trkpt><trkpt lat="45.574273677473236" lon="10.447175231309789"><ele>213.0</ele><time>2026-04-29T13:31:23Z</time></trkpt><trkpt lat="45.574346213485214" lon="10.447071127762424"><ele>212.4</ele><time>2026-04-29T13:31:24Z</time></trkpt><trkpt lat="45.574420674420224" lon="10.446965387471318"><ele>211.8</ele><time>2026-04-29T13:31:25Z</time></trkpt><trkpt lat="45.57449537977656" lon="10.446862496056417"><ele>211.2</ele><time>2026-04-29T13:31:26Z</time></trkpt><trkpt lat="45.574569254437115" lon="10.446756441750821"><ele>210.6</ele><time>2026-04-29T13:31:27Z</time></trkpt><trkpt lat="45.57464166114982" lon="10.446656944527271"><ele>210.0</ele><time>2026-04-29T13:31:28Z</time></trkpt><trkpt lat="45.57471162211214" lon="10.446561066198816"><ele>210.0</ele><time>2026-04-29T13:31:29Z</time></trkpt><trkpt lat="45.57478124822891" lon="10.446466847847493"><ele>210.0</ele><time>2026-04-29T13:31:30Z</time></trkpt><trkpt lat="45.574851242314516" lon="10.446368378982648"><ele>210.0</ele><time>2026-04-29T13:31:31Z</time></trkpt><trkpt lat="45.57491739329437" lon="10.446276874432275"><ele>210.0</ele><time>2026-04-29T13:31:32Z</time></trkpt><trkpt lat="45.57498094706848" lon="10.44617961935537"><ele>210.0</ele><time>2026-04-29T13:31:33Z</time></trkpt><trkpt lat="45.57503885361485" lon="10.446079945494951"><ele>209.33333333333334</ele><time>2026-04-29T13:31:34Z</time></trkpt><trkpt lat="45.57509670516759" lon="10.445979508435162"><ele>208.66666666666669</ele><time>2026-04-29T13:31:35Z</time></trkpt><trkpt lat="45.57515275789819" lon="10.44587966078093"><ele>208.0</ele><time>2026-04-29T13:31:36Z</time></trkpt><trkpt lat="45.5752042945479" lon="10.44577696618878"><ele>207.33333333333334</ele><time>2026-04-29T13:31:37Z</time></trkpt><trkpt lat="45.57524390863938" lon="10.445667050905994"><ele>206.66666666666669</ele><time>2026-04-29T13:31:38Z</time></trkpt><trkpt lat="45.57528892899774" lon="10.445561289650183"><ele>206.0</ele><time>2026-04-29T13:31:39Z</time></trkpt><trkpt lat="45.57533797251944" lon="10.445459030953314"><ele>205.33333333333334</ele><time>2026-04-29T13:31:40Z</time></trkpt><trkpt lat="45.57539367848697" lon="10.445368021510149"><ele>204.66666666666669</ele><time>2026-04-29T13:31:41Z</time></trkpt><trkpt lat="45.575455005810475" lon="10.445287082391701"><ele>204.0</ele><time>2026-04-29T13:31:42Z</time></trkpt><trkpt lat="45.57552302807007" lon="10.445214511309484"><ele>203.33333333333331</ele><time>2026-04-29T13:31:43Z</time></trkpt><trkpt lat="45.57560501421603" lon="10.44518446753042"><ele>202.66666666666666</ele><time>2026-04-29T13:31:44Z</time></trkpt><trkpt lat="45.57568055372995" lon="10.445142228944205"><ele>202.0</ele><time>2026-04-29T13:31:45Z</time></trkpt><trkpt lat="45.5757642887022" lon="10.445148107907473"><ele>201.99999999999997</ele><time>2026-04-29T13:31:46Z</time></trkpt><trkpt lat="45.575829062612144" lon="10.445085816861289"><ele>202.0</ele><time>2026-04-29T13:31:47Z</time></trkpt><trkpt lat="45.575847243036236" lon="10.444966476384053"><ele>202.0</ele><time>2026-04-29T13:31:48Z</time></trkpt><trkpt lat="45.5758271054982" lon="10.444848443261892"><ele>202.0</ele><time>2026-04-29T13:31:49Z</time></trkpt><trkpt lat="45.57580120553171" lon="10.444741267208636"><ele>201.99999999999997</ele><time>2026-04-29T13:31:50Z</time></trkpt><trkpt lat="45.57573175541482" lon="10.444681370563423"><ele>202.0</ele><time>2026-04-29T13:31:51Z</time></trkpt><trkpt lat="45.575765792658444" lon="10.444549111446074"><ele>202.0</ele><time>2026-04-29T13:31:52Z</time></trkpt><trkpt lat="45.575776678174485" lon="10.444453759015582"><ele>202.0</ele><time>2026-04-29T13:31:53Z</time></trkpt><trkpt lat="45.57580332409063" lon="10.444356576566888"><ele>202.0</ele><time>2026-04-29T13:31:54Z</time></trkpt><trkpt lat="45.57584343085228" lon="10.444271492924136"><ele>202.0</ele><time>2026-04-29T13:31:55Z</time></trkpt><trkpt lat="45.57588467075728" lon="10.444193373336462"><ele>202.0</ele><time>2026-04-29T13:31:56Z</time></trkpt><trkpt lat="45.57591831201155" lon="10.444109417514023"><ele>202.0</ele><time>2026-04-29T13:31:57Z</time></trkpt><trkpt lat="45.57595127622378" lon="10.444025748448432"><ele>202.0</ele><time>2026-04-29T13:31:58Z</time></trkpt><trkpt lat="45.57598373436151" lon="10.443943768851327"><ele>202.0</ele><time>2026-04-29T13:31:59Z</time></trkpt><trkpt lat="45.57601630568082" lon="10.443855874353796"><ele>202.0</ele><time>2026-04-29T13:32:00Z</time></trkpt><trkpt lat="45.57604483767313" lon="10.443770574531378"><ele>202.0</ele><time>2026-04-29T13:32:01Z</time></trkpt><trkpt lat="45.576077131906935" lon="10.443684344913235"><ele>202.0</ele><time>2026-04-29T13:32:02Z</time></trkpt><trkpt lat="45.57611489892073" lon="10.443600405743332"><ele>202.0</ele><time>2026-04-29T13:32:03Z</time></trkpt><trkpt lat="45.57615540448388" lon="10.443516031119255"><ele>202.0</ele><time>2026-04-29T13:32:04Z</time></trkpt><trkpt lat="45.576201022230336" lon="10.443434832437264"><ele>202.0</ele><time>2026-04-29T13:32:05Z</time></trkpt><trkpt lat="45.576253662633675" lon="10.443357360013712"><ele>201.83333333333331</ele><time>2026-04-29T13:32:06Z</time></trkpt><trkpt lat="45.57629962067877" lon="10.443267814665697"><ele>201.66666666666666</ele><time>2026-04-29T13:32:07Z</time></trkpt><trkpt lat="45.57634236835563" lon="10.443165489090916"><ele>201.5</ele><time>2026-04-29T13:32:08Z</time></trkpt><trkpt lat="45.576381615496736" lon="10.443061618664855"><ele>201.33333333333331</ele><time>2026-04-29T13:32:09Z</time></trkpt><trkpt lat="45.57642359684312" lon="10.44295798384511"><ele>201.16666666666666</ele><time>2026-04-29T13:32:10Z</time></trkpt><trkpt lat="45.576466277786146" lon="10.442853775950098"><ele>201.0</ele><time>2026-04-29T13:32:11Z</time></trkpt><trkpt lat="45.576525383607816" lon="10.442757066384528"><ele>200.66666666666666</ele><time>2026-04-29T13:32:12Z</time></trkpt><trkpt lat="45.576599513986935" lon="10.442681281648325"><ele>200.33333333333331</ele><time>2026-04-29T13:32:13Z</time></trkpt><trkpt lat="45.57667730954245" lon="10.442616682220114"><ele>200.0</ele><time>2026-04-29T13:32:14Z</time></trkpt><trkpt lat="45.57676391331445" lon="10.442572531842503"><ele>199.66666666666666</ele><time>2026-04-29T13:32:15Z</time></trkpt><trkpt lat="45.57684302187983" lon="10.442527185057632"><ele>199.33333333333331</ele><time>2026-04-29T13:32:16Z</time></trkpt><trkpt lat="45.57692376415568" lon="10.442494048451257"><ele>199.0</ele><time>2026-04-29T13:32:17Z</time></trkpt><trkpt lat="45.577007751431175" lon="10.442476829130612"><ele>198.66666666666666</ele><time>2026-04-29T13:32:18Z</time></trkpt><trkpt lat="45.57707318717194" lon="10.442424962868467"><ele>198.33333333333331</ele><time>2026-04-29T13:32:19Z</time></trkpt><trkpt lat="45.577105307000956" lon="10.44234654367198"><ele>198.0</ele><time>2026-04-29T13:32:20Z</time></trkpt><trkpt lat="45.577113216932965" lon="10.442205401056267"><ele>197.66666666666669</ele><time>2026-04-29T13:32:22Z</time></trkpt><trkpt lat="45.577052982404695" lon="10.44212311379591"><ele>197.33333333333334</ele><time>2026-04-29T13:32:55.001Z</time></trkpt><trkpt lat="45.5770135626976" lon="10.442046634111207"><ele>197.0</ele><time>2026-04-29T13:32:57.001Z</time></trkpt><trkpt lat="45.57697837879779" lon="10.441929122260863"><ele>196.75</ele><time>2026-04-29T13:32:59.001Z</time></trkpt><trkpt lat="45.576939580818866" lon="10.441790380691746"><ele>196.5</ele><time>2026-04-29T13:33:01.001Z</time></trkpt><trkpt lat="45.57689531826028" lon="10.44163704986898"><ele>196.25</ele><time>2026-04-29T13:33:03Z</time></trkpt><trkpt lat="45.576847820987595" lon="10.441469200150111"><ele>196.0</ele><time>2026-04-29T13:33:05Z</time></trkpt><trkpt lat="45.5768033097867" lon="10.441322187226222"><ele>195.49999999999997</ele><time>2026-04-29T13:33:07Z</time></trkpt><trkpt lat="45.576757791578686" lon="10.441169494624766"><ele>195.0</ele><time>2026-04-29T13:33:09Z</time></trkpt><trkpt lat="45.576715744951414" lon="10.441024527280108"><ele>194.5</ele><time>2026-04-29T13:33:11Z</time></trkpt><trkpt lat="45.57668703952424" lon="10.44092902093199"><ele>194.0</ele><time>2026-04-29T13:33:13Z</time></trkpt><trkpt lat="45.576642776559005" lon="10.440855654169079"><ele>193.49999999999997</ele><time>2026-04-29T13:33:27Z</time></trkpt><trkpt lat="45.576617361245646" lon="10.440769488498148"><ele>193.0</ele><time>2026-04-29T13:33:29Z</time></trkpt><trkpt lat="45.57658729105306" lon="10.44066754145887"><ele>192.99999999999997</ele><time>2026-04-29T13:33:31Z</time></trkpt><trkpt lat="45.57651557688983" lon="10.440648297897486"><ele>193.0</ele><time>2026-04-29T13:33:32Z</time></trkpt><trkpt lat="45.576478311445385" lon="10.440541473478554"><ele>193.0</ele><time>2026-04-29T13:33:34Z</time></trkpt><trkpt lat="45.57644769175965" lon="10.440427738971428"><ele>193.0</ele><time>2026-04-29T13:33:36Z</time></trkpt><trkpt lat="45.576409629695824" lon="10.440308554944119"><ele>192.99999999999997</ele><time>2026-04-29T13:33:38Z</time></trkpt><trkpt lat="45.57637019747421" lon="10.440188929733221"><ele>193.0</ele><time>2026-04-29T13:33:40Z</time></trkpt><trkpt lat="45.576335939915936" lon="10.440064115736357"><ele>192.99999999999997</ele><time>2026-04-29T13:33:42Z</time></trkpt><trkpt lat="45.5762990553296" lon="10.43994868380664"><ele>193.0</ele><time>2026-04-29T13:33:44Z</time></trkpt><trkpt lat="45.57627516959657" lon="10.439860660059246"><ele>193.0</ele><time>2026-04-29T13:33:46Z</time></trkpt><trkpt lat="45.57624262045286" lon="10.439772732558705"><ele>193.0</ele><time>2026-04-29T13:33:50Z</time></trkpt><trkpt lat="45.576221078999" lon="10.439677000055957"><ele>192.99999999999997</ele><time>2026-04-29T13:33:52Z</time></trkpt><trkpt lat="45.57618819415326" lon="10.439572153505559"><ele>193.0</ele><time>2026-04-29T13:33:54Z</time></trkpt><trkpt lat="45.576158301858314" lon="10.43946542827915"><ele>193.60000000000002</ele><time>2026-04-29T13:33:56Z</time></trkpt><trkpt lat="45.57612230305144" lon="10.439353264652118"><ele>194.20000000000002</ele><time>2026-04-29T13:33:58Z</time></trkpt><trkpt lat="45.576090056130134" lon="10.439223381950988"><ele>194.8</ele><time>2026-04-29T13:34:00Z</time></trkpt><trkpt lat="45.576055901457586" lon="10.439093465129945"><ele>195.4</ele><time>2026-04-29T13:34:02Z</time></trkpt><trkpt lat="45.57602270146834" lon="10.438961756835182"><ele>196.0</ele><time>2026-04-29T13:34:04Z</time></trkpt><trkpt lat="45.57598622322331" lon="10.438831986084939"><ele>196.0</ele><time>2026-04-29T13:34:06Z</time></trkpt><trkpt lat="45.57599337318328" lon="10.43859271646923"><ele>196.0</ele><time>2026-04-29T13:34:09Z</time></trkpt><trkpt lat="45.57596609599144" lon="10.438474425948513"><ele>196.0</ele><time>2026-04-29T13:34:11Z</time></trkpt><trkpt lat="45.57593739238948" lon="10.438344657890767"><ele>196.0</ele><time>2026-04-29T13:34:13Z</time></trkpt><trkpt lat="45.575910128199055" lon="10.43821456873458"><ele>196.0</ele><time>2026-04-29T13:34:15Z</time></trkpt><trkpt lat="45.57588681173639" lon="10.438101681260484"><ele>196.0</ele><time>2026-04-29T13:34:17Z</time></trkpt><trkpt lat="45.57586017053371" lon="10.437971154690471"><ele>196.0</ele><time>2026-04-29T13:34:19Z</time></trkpt><trkpt lat="45.57583286361103" lon="10.437831934085946"><ele>196.0</ele><time>2026-04-29T13:34:21Z</time></trkpt><trkpt lat="45.57580727088854" lon="10.437701453142065"><ele>196.0</ele><time>2026-04-29T13:34:23Z</time></trkpt><trkpt lat="45.575783097029145" lon="10.437578206147188"><ele>196.0</ele><time>2026-04-29T13:34:25Z</time></trkpt><trkpt lat="45.57575254721552" lon="10.437478936338259"><ele>196.16666666666666</ele><time>2026-04-29T13:34:32Z</time></trkpt><trkpt lat="45.575781246761345" lon="10.437373986225861"><ele>196.33333333333331</ele><time>2026-04-29T13:34:34Z</time></trkpt><trkpt lat="45.575823551785305" lon="10.437276644494792"><ele>196.5</ele><time>2026-04-29T13:34:36Z</time></trkpt><trkpt lat="45.57588575403465" lon="10.437181211250037"><ele>196.66666666666669</ele><time>2026-04-29T13:34:38Z</time></trkpt><trkpt lat="45.5759333263843" lon="10.437074296081294"><ele>196.83333333333334</ele><time>2026-04-29T13:34:40Z</time></trkpt><trkpt lat="45.57601404058629" lon="10.437014961099328"><ele>197.0</ele><time>2026-04-29T13:34:42Z</time></trkpt><trkpt lat="45.576101335721255" lon="10.437005412538449"><ele>197.39999999999998</ele><time>2026-04-29T13:34:43.999Z</time></trkpt><trkpt lat="45.57619721232549" lon="10.437024238991123"><ele>197.79999999999998</ele><time>2026-04-29T13:34:45.999Z</time></trkpt><trkpt lat="45.57629318269514" lon="10.437034364522413"><ele>198.2</ele><time>2026-04-29T13:34:47.999Z</time></trkpt><trkpt lat="45.57639073418128" lon="10.437039291849352"><ele>198.6</ele><time>2026-04-29T13:34:49.999Z</time></trkpt><trkpt lat="45.576489722509315" lon="10.43704260408498"><ele>199.0</ele><time>2026-04-29T13:34:52Z</time></trkpt><trkpt lat="45.576586039220864" lon="10.437046395176184"><ele>199.0</ele><time>2026-04-29T13:34:54Z</time></trkpt><trkpt lat="45.576682005908665" lon="10.437053738330691"><ele>199.0</ele><time>2026-04-29T13:34:56Z</time></trkpt><trkpt lat="45.576778741909706" lon="10.437060555031474"><ele>199.0</ele><time>2026-04-29T13:34:58Z</time></trkpt><trkpt lat="45.57687907485999" lon="10.43707552847037"><ele>199.0</ele><time>2026-04-29T13:35:00Z</time></trkpt><trkpt lat="45.57694581803345" lon="10.437087203199068"><ele>199.0</ele><time>2026-04-29T13:35:02Z</time></trkpt><trkpt lat="45.57706889677499" lon="10.43709859856992"><ele>199.2</ele><time>2026-04-29T13:35:04Z</time></trkpt><trkpt lat="45.57716681497202" lon="10.43711396635711"><ele>199.39999999999998</ele><time>2026-04-29T13:35:06Z</time></trkpt><trkpt lat="45.57726344517245" lon="10.437129917264437"><ele>199.6</ele><time>2026-04-29T13:35:08Z</time></trkpt><trkpt lat="45.57736254912866" lon="10.43714190687585"><ele>199.8</ele><time>2026-04-29T13:35:10Z</time></trkpt><trkpt lat="45.57746727605666" lon="10.437138244229656"><ele>200.0</ele><time>2026-04-29T13:35:12Z</time></trkpt><trkpt lat="45.577570059570576" lon="10.437146830933191"><ele>200.0</ele><time>2026-04-29T13:35:14Z</time></trkpt><trkpt lat="45.57766489993694" lon="10.43715940575191"><ele>200.0</ele><time>2026-04-29T13:35:16Z</time></trkpt><trkpt lat="45.577761724928195" lon="10.437164656005526"><ele>200.0</ele><time>2026-04-29T13:35:18Z</time></trkpt><trkpt lat="45.57785537178432" lon="10.43717965356241"><ele>200.0</ele><time>2026-04-29T13:35:20Z</time></trkpt><trkpt lat="45.57794702721249" lon="10.437187951492954"><ele>200.0</ele><time>2026-04-29T13:35:22Z</time></trkpt><trkpt lat="45.578049974618786" lon="10.437186135350261"><ele>199.6</ele><time>2026-04-29T13:35:24Z</time></trkpt><trkpt lat="45.57814387611942" lon="10.43718810750023"><ele>199.2</ele><time>2026-04-29T13:35:26Z</time></trkpt><trkpt lat="45.57823809208102" lon="10.43719694942802"><ele>198.8</ele><time>2026-04-29T13:35:28Z</time></trkpt><trkpt lat="45.5783289363164" lon="10.437204853215922"><ele>198.4</ele><time>2026-04-29T13:35:30Z</time></trkpt><trkpt lat="45.578424043310555" lon="10.437212924064054"><ele>198.0</ele><time>2026-04-29T13:35:32Z</time></trkpt><trkpt lat="45.57851943365327" lon="10.437212082702533"><ele>198.0</ele><time>2026-04-29T13:35:34Z</time></trkpt><trkpt lat="45.57861594351121" lon="10.437216845026066"><ele>198.0</ele><time>2026-04-29T13:35:36Z</time></trkpt><trkpt lat="45.57870425214481" lon="10.437229639982075"><ele>198.0</ele><time>2026-04-29T13:35:38Z</time></trkpt><trkpt lat="45.578797392084034" lon="10.437233045287945"><ele>198.0</ele><time>2026-04-29T13:35:40Z</time></trkpt><trkpt lat="45.5788956232167" lon="10.437241652654764"><ele>198.0</ele><time>2026-04-29T13:35:42Z</time></trkpt><trkpt lat="45.5789797807204" lon="10.437257932470065"><ele>197.8</ele><time>2026-04-29T13:35:44Z</time></trkpt><trkpt lat="45.57907067863179" lon="10.437266150834057"><ele>197.60000000000002</ele><time>2026-04-29T13:35:46Z</time></trkpt><trkpt lat="45.57917098370141" lon="10.43726630146675"><ele>197.39999999999998</ele><time>2026-04-29T13:35:48Z</time></trkpt><trkpt lat="45.57926600671247" lon="10.437273928572884"><ele>197.2</ele><time>2026-04-29T13:35:50Z</time></trkpt><trkpt lat="45.57935798179029" lon="10.437284711509928"><ele>197.0</ele><time>2026-04-29T13:35:52Z</time></trkpt><trkpt lat="45.57945683443904" lon="10.437285868331905"><ele>197.39999999999998</ele><time>2026-04-29T13:35:54Z</time></trkpt><trkpt lat="45.579552101054674" lon="10.43730527839222"><ele>197.79999999999998</ele><time>2026-04-29T13:35:56Z</time></trkpt><trkpt lat="45.579647070937796" lon="10.437311805513769"><ele>198.2</ele><time>2026-04-29T13:35:58Z</time></trkpt><trkpt lat="45.579741728402965" lon="10.437323742606909"><ele>198.6</ele><time>2026-04-29T13:36:00Z</time></trkpt><trkpt lat="45.579840290059764" lon="10.437324862187674"><ele>199.0</ele><time>2026-04-29T13:36:02Z</time></trkpt><trkpt lat="45.57993567232853" lon="10.437335108967696"><ele>199.0</ele><time>2026-04-29T13:36:04Z</time></trkpt><trkpt lat="45.580034235535614" lon="10.437350643291175"><ele>199.0</ele><time>2026-04-29T13:36:06Z</time></trkpt><trkpt lat="45.580178418533734" lon="10.437369977798106"><ele>199.0</ele><time>2026-04-29T13:36:09Z</time></trkpt><trkpt lat="45.58027056595505" lon="10.437378672041545"><ele>199.0</ele><time>2026-04-29T13:36:11Z</time></trkpt><trkpt lat="45.580363785454296" lon="10.437384067959679"><ele>199.0</ele><time>2026-04-29T13:36:13Z</time></trkpt><trkpt lat="45.58045709696129" lon="10.437389160663107"><ele>199.16666666666666</ele><time>2026-04-29T13:36:15Z</time></trkpt><trkpt lat="45.580543259119366" lon="10.437398307346275"><ele>199.33333333333331</ele><time>2026-04-29T13:36:17Z</time></trkpt><trkpt lat="45.58061732728646" lon="10.43740645704321"><ele>199.5</ele><time>2026-04-29T13:36:19Z</time></trkpt><trkpt lat="45.580696460867145" lon="10.437379798350607"><ele>199.66666666666669</ele><time>2026-04-29T13:36:29Z</time></trkpt><trkpt lat="45.58070859454792" lon="10.437285034057972"><ele>199.83333333333334</ele><time>2026-04-29T13:36:31Z</time></trkpt><trkpt lat="45.58070671041271" lon="10.437175179474917"><ele>200.0</ele><time>2026-04-29T13:36:33Z</time></trkpt><trkpt lat="45.58069661549969" lon="10.437065833839629"><ele>200.33333333333334</ele><time>2026-04-29T13:36:34.999Z</time></trkpt><trkpt lat="45.580664759418234" lon="10.436929256648469"><ele>200.66666666666669</ele><time>2026-04-29T13:36:37.999Z</time></trkpt><trkpt lat="45.58065238694768" lon="10.43682396036499"><ele>201.0</ele><time>2026-04-29T13:36:39.999Z</time></trkpt><trkpt lat="45.58063968752297" lon="10.43670041887296"><ele>201.33333333333331</ele><time>2026-04-29T13:36:42.999Z</time></trkpt><trkpt lat="45.58061929147128" lon="10.43657158994627"><ele>201.66666666666666</ele><time>2026-04-29T13:36:45.999Z</time></trkpt><trkpt lat="45.58060465707367" lon="10.436474801745062"><ele>202.0</ele><time>2026-04-29T13:36:48.999Z</time></trkpt><trkpt lat="45.580589745261456" lon="10.436356709435792"><ele>203.8</ele><time>2026-04-29T13:36:51.999Z</time></trkpt><trkpt lat="45.58056630526736" lon="10.436250351575561"><ele>205.6</ele><time>2026-04-29T13:36:54.999Z</time></trkpt><trkpt lat="45.58053887330396" lon="10.436138942210585"><ele>207.4</ele><time>2026-04-29T13:36:58Z</time></trkpt><trkpt lat="45.58050455871591" lon="10.435963903512288"><ele>209.20000000000002</ele><time>2026-04-29T13:37:01Z</time></trkpt><trkpt lat="45.58047998427729" lon="10.43584945295379"><ele>211.0</ele><time>2026-04-29T13:37:04Z</time></trkpt><trkpt lat="45.580422378416785" lon="10.4357542079225"><ele>211.0</ele><time>2026-04-29T13:37:07Z</time></trkpt><trkpt lat="45.580389904344514" lon="10.43566165075818"><ele>211.0</ele><time>2026-04-29T13:37:09Z</time></trkpt><trkpt lat="45.580355410588226" lon="10.435583805090017"><ele>211.0</ele><time>2026-04-29T13:37:11Z</time></trkpt><trkpt lat="45.58031293283565" lon="10.435507739295502"><ele>211.0</ele><time>2026-04-29T13:37:13Z</time></trkpt><trkpt lat="45.580272193625675" lon="10.435426900470455"><ele>211.0</ele><time>2026-04-29T13:37:15Z</time></trkpt><trkpt lat="45.58022466350263" lon="10.435352846958617"><ele>211.0</ele><time>2026-04-29T13:37:17Z</time></trkpt><trkpt lat="45.58017680463505" lon="10.435272292249806"><ele>211.0</ele><time>2026-04-29T13:37:19Z</time></trkpt><trkpt lat="45.58011888997302" lon="10.435182790507183"><ele>210.8</ele><time>2026-04-29T13:37:22Z</time></trkpt><trkpt lat="45.58004716589074" lon="10.435062941589589"><ele>210.60000000000002</ele><time>2026-04-29T13:37:25Z</time></trkpt><trkpt lat="45.58001090867541" lon="10.43496981936653"><ele>210.4</ele><time>2026-04-29T13:37:27Z</time></trkpt><trkpt lat="45.57993036948991" lon="10.4348168254516"><ele>210.2</ele><time>2026-04-29T13:37:29Z</time></trkpt><trkpt lat="45.579884484045095" lon="10.434730549524783"><ele>210.0</ele><time>2026-04-29T13:37:31Z</time></trkpt><trkpt lat="45.57982265449221" lon="10.434622105285378"><ele>210.0</ele><time>2026-04-29T13:37:33Z</time></trkpt><trkpt lat="45.5797572022953" lon="10.434494240058527"><ele>210.0</ele><time>2026-04-29T13:37:36Z</time></trkpt><trkpt lat="45.57971660362191" lon="10.43440527274811"><ele>210.0</ele><time>2026-04-29T13:37:38Z</time></trkpt><trkpt lat="45.57967316546463" lon="10.434317448082808"><ele>210.0</ele><time>2026-04-29T13:37:40Z</time></trkpt><trkpt lat="45.579637444283996" lon="10.434240877352565"><ele>210.0</ele><time>2026-04-29T13:37:42Z</time></trkpt><trkpt lat="45.57959791127916" lon="10.434130761731574"><ele>210.0</ele><time>2026-04-29T13:37:45Z</time></trkpt><trkpt lat="45.57954850038437" lon="10.43400630057262"><ele>210.0</ele><time>2026-04-29T13:37:48Z</time></trkpt><trkpt lat="45.57952763249117" lon="10.433908064964212"><ele>210.0</ele><time>2026-04-29T13:37:50Z</time></trkpt><trkpt lat="45.579567819656916" lon="10.433800059146689"><ele>210.0</ele><time>2026-04-29T13:37:53Z</time></trkpt><trkpt lat="45.57962496993396" lon="10.433734532589831"><ele>210.0</ele><time>2026-04-29T13:37:56Z</time></trkpt><trkpt lat="45.57967464203224" lon="10.433646539563277"><ele>210.0</ele><time>2026-04-29T13:37:59Z</time></trkpt><trkpt lat="45.57972978672152" lon="10.433580710216562"><ele>210.0</ele><time>2026-04-29T13:38:02Z</time></trkpt><trkpt lat="45.57978543349681" lon="10.433519071795633"><ele>210.33333333333334</ele><time>2026-04-29T13:38:05Z</time></trkpt><trkpt lat="45.57984128707832" lon="10.43344998751996"><ele>210.66666666666669</ele><time>2026-04-29T13:38:09Z</time></trkpt><trkpt lat="45.57989010288862" lon="10.433364312633467"><ele>211.0</ele><time>2026-04-29T13:38:13Z</time></trkpt><trkpt lat="45.57995978601575" lon="10.433314441248159"><ele>211.33333333333334</ele><time>2026-04-29T13:38:17Z</time></trkpt><trkpt lat="45.580027590489664" lon="10.433264650985704"><ele>211.66666666666669</ele><time>2026-04-29T13:38:21Z</time></trkpt><trkpt lat="45.58010166499573" lon="10.433204629502614"><ele>212.0</ele><time>2026-04-29T13:38:25Z</time></trkpt><trkpt lat="45.58024407493165" lon="10.433091778902613"><ele>212.00000000000003</ele><time>2026-04-29T13:38:28Z</time></trkpt><trkpt lat="45.58032616886986" lon="10.433044996170615"><ele>212.0</ele><time>2026-04-29T13:38:30Z</time></trkpt><trkpt lat="45.5804033120679" lon="10.432999146351747"><ele>212.0</ele><time>2026-04-29T13:38:32Z</time></trkpt><trkpt lat="45.58048912165004" lon="10.432973789724457"><ele>212.0</ele><time>2026-04-29T13:38:33.999Z</time></trkpt><trkpt lat="45.58057136961585" lon="10.432951680783878"><ele>212.00000000000003</ele><time>2026-04-29T13:38:35.999Z</time></trkpt><trkpt lat="45.58064669884286" lon="10.432935720367105"><ele>212.0</ele><time>2026-04-29T13:38:37.999Z</time></trkpt><trkpt lat="45.580720750134574" lon="10.432909583936903"><ele>213.2857142857143</ele><time>2026-04-29T13:38:39.999Z</time></trkpt><trkpt lat="45.58077329804307" lon="10.432856652354204"><ele>214.57142857142856</ele><time>2026-04-29T13:38:41.999Z</time></trkpt><trkpt lat="45.58081858279685" lon="10.432790695197252"><ele>215.85714285714286</ele><time>2026-04-29T13:38:43.999Z</time></trkpt><trkpt lat="45.58087402584102" lon="10.432724513543516"><ele>217.14285714285717</ele><time>2026-04-29T13:38:45.999Z</time></trkpt><trkpt lat="45.58090890334963" lon="10.432643361741722"><ele>218.42857142857144</ele><time>2026-04-29T13:38:48.999Z</time></trkpt><trkpt lat="45.580961780940626" lon="10.432577256137245"><ele>219.71428571428572</ele><time>2026-04-29T13:38:50.999Z</time></trkpt><trkpt lat="45.58100753535883" lon="10.432512163829934"><ele>221.0</ele><time>2026-04-29T13:38:52.999Z</time></trkpt><trkpt lat="45.58104721009479" lon="10.432435484192675"><ele>221.00000000000003</ele><time>2026-04-29T13:38:54.999Z</time></trkpt><trkpt lat="45.58110534387691" lon="10.432370858705639"><ele>221.0</ele><time>2026-04-29T13:38:56.999Z</time></trkpt><trkpt lat="45.58115908764472" lon="10.432315721280535"><ele>221.0</ele><time>2026-04-29T13:38:58.999Z</time></trkpt><trkpt lat="45.58121450415606" lon="10.432247401135019"><ele>221.0</ele><time>2026-04-29T13:39:00.999Z</time></trkpt><trkpt lat="45.58127737919801" lon="10.432174305016954"><ele>221.0</ele><time>2026-04-29T13:39:03Z</time></trkpt><trkpt lat="45.581332896407105" lon="10.43210628518449"><ele>221.00000000000003</ele><time>2026-04-29T13:39:05Z</time></trkpt><trkpt lat="45.581400782797665" lon="10.432042921747016"><ele>221.0</ele><time>2026-04-29T13:39:08Z</time></trkpt><trkpt lat="45.58147128325067" lon="10.431974612022525"><ele>222.8571428571429</ele><time>2026-04-29T13:39:11Z</time></trkpt><trkpt lat="45.581540452258146" lon="10.431924402067814"><ele>224.71428571428572</ele><time>2026-04-29T13:39:14Z</time></trkpt><trkpt lat="45.581608674859645" lon="10.431892897895585"><ele>226.57142857142858</ele><time>2026-04-29T13:39:17Z</time></trkpt><trkpt lat="45.5816878486936" lon="10.431854027781764"><ele>228.42857142857144</ele><time>2026-04-29T13:39:21Z</time></trkpt><trkpt lat="45.581758679742215" lon="10.431813104909438"><ele>230.2857142857143</ele><time>2026-04-29T13:39:24Z</time></trkpt><trkpt lat="45.58182905663626" lon="10.43177573019844"><ele>232.14285714285717</ele><time>2026-04-29T13:39:27Z</time></trkpt><trkpt lat="45.58189168955814" lon="10.431759333440057"><ele>234.0</ele><time>2026-04-29T13:39:30Z</time></trkpt><trkpt lat="45.58196007595937" lon="10.431746986481537"><ele>236.71428571428572</ele><time>2026-04-29T13:39:34Z</time></trkpt><trkpt lat="45.58203286077146" lon="10.431714320932317"><ele>239.42857142857144</ele><time>2026-04-29T13:39:38Z</time></trkpt><trkpt lat="45.58209455218287" lon="10.431696159481833"><ele>242.14285714285717</ele><time>2026-04-29T13:39:41Z</time></trkpt><trkpt lat="45.58216871362087" lon="10.43167858160218"><ele>244.8571428571429</ele><time>2026-04-29T13:39:45Z</time></trkpt><trkpt lat="45.582235483875245" lon="10.43163643250304"><ele>247.57142857142858</ele><time>2026-04-29T13:39:49Z</time></trkpt><trkpt lat="45.582307034875114" lon="10.431601770999151"><ele>250.28571428571433</ele><time>2026-04-29T13:39:53Z</time></trkpt><trkpt lat="45.58237352755588" lon="10.431554183104925"><ele>253.00000000000003</ele><time>2026-04-29T13:39:57Z</time></trkpt><trkpt lat="45.58244399035327" lon="10.431554555628376"><ele>253.00000000000003</ele><time>2026-04-29T13:40:01Z</time></trkpt><trkpt lat="45.58251213710021" lon="10.43158453546116"><ele>253.0</ele><time>2026-04-29T13:40:05Z</time></trkpt><trkpt lat="45.5825168393192" lon="10.431690440390524"><ele>253.00000000000003</ele><time>2026-04-29T13:40:09Z</time></trkpt><trkpt lat="45.58249801462196" lon="10.43178125111722"><ele>253.00000000000003</ele><time>2026-04-29T13:40:13Z</time></trkpt><trkpt lat="45.5824628532354" lon="10.431876609008242"><ele>253.0</ele><time>2026-04-29T13:40:17Z</time></trkpt><trkpt lat="45.58244138115393" lon="10.431984396636873"><ele>253.00000000000003</ele><time>2026-04-29T13:40:21Z</time></trkpt><trkpt lat="45.582426304226125" lon="10.4320772910868"><ele>253.00000000000003</ele><time>2026-04-29T13:40:23.999Z</time></trkpt><trkpt lat="45.582394370201975" lon="10.432188558656993"><ele>254.28571428571433</ele><time>2026-04-29T13:40:27.999Z</time></trkpt><trkpt lat="45.58238490800479" lon="10.432300279809787"><ele>255.57142857142858</ele><time>2026-04-29T13:40:31.999Z</time></trkpt><trkpt lat="45.58242263609312" lon="10.432379822860328"><ele>256.8571428571429</ele><time>2026-04-29T13:40:35.999Z</time></trkpt><trkpt lat="45.58249143275158" lon="10.43238152123722"><ele>258.14285714285717</ele><time>2026-04-29T13:40:39.999Z</time></trkpt><trkpt lat="45.58256525157147" lon="10.43235897925278"><ele>259.42857142857144</ele><time>2026-04-29T13:40:44.999Z</time></trkpt><trkpt lat="45.5826415506246" lon="10.43233244363087"><ele>260.7142857142857</ele><time>2026-04-29T13:40:49.999Z</time></trkpt><trkpt lat="45.58272005265794" lon="10.43232327264074"><ele>262.0</ele><time>2026-04-29T13:40:53.999Z</time></trkpt><trkpt lat="45.58280363826132" lon="10.432303224629134"><ele>263.57142857142856</ele><time>2026-04-29T13:40:57.999Z</time></trkpt><trkpt lat="45.5828673627441" lon="10.432273790449386"><ele>265.14285714285717</ele><time>2026-04-29T13:41:00.999Z</time></trkpt><trkpt lat="45.58293078462093" lon="10.4322805521803"><ele>266.7142857142857</ele><time>2026-04-29T13:41:03.999Z</time></trkpt><trkpt lat="45.58300883365522" lon="10.43225957287973"><ele>268.2857142857143</ele><time>2026-04-29T13:41:07.999Z</time></trkpt><trkpt lat="45.58307407245994" lon="10.432259332585808"><ele>269.8571428571429</ele><time>2026-04-29T13:41:11Z</time></trkpt><trkpt lat="45.58313835674735" lon="10.432247109244916"><ele>271.42857142857144</ele><time>2026-04-29T13:41:14Z</time></trkpt><trkpt lat="45.583202774219224" lon="10.432222465372966"><ele>273.0</ele><time>2026-04-29T13:41:17Z</time></trkpt><trkpt lat="45.583263779512656" lon="10.43220003330893"><ele>273.0</ele><time>2026-04-29T13:41:20Z</time></trkpt><trkpt lat="45.583345958543106" lon="10.432183176569122"><ele>273.0</ele><time>2026-04-29T13:41:24Z</time></trkpt><trkpt lat="45.583409933412234" lon="10.43215523061047"><ele>273.0</ele><time>2026-04-29T13:41:27Z</time></trkpt><trkpt lat="45.58346050188938" lon="10.432081448111642"><ele>273.0</ele><time>2026-04-29T13:41:30Z</time></trkpt><trkpt lat="45.58349121370112" lon="10.432001258861902"><ele>273.0</ele><time>2026-04-29T13:41:33Z</time></trkpt><trkpt lat="45.58353166239355" lon="10.43192449418676"><ele>273.0</ele><time>2026-04-29T13:41:36Z</time></trkpt><trkpt lat="45.58355220592836" lon="10.431832170999774"><ele>273.0</ele><time>2026-04-29T13:41:40Z</time></trkpt><trkpt lat="45.58357387310877" lon="10.431733957819793"><ele>273.5</ele><time>2026-04-29T13:41:44Z</time></trkpt><trkpt lat="45.58361199857107" lon="10.431655605319992"><ele>274.0</ele><time>2026-04-29T13:41:47Z</time></trkpt><trkpt lat="45.583663725390174" lon="10.431584137288134"><ele>274.5</ele><time>2026-04-29T13:41:51Z</time></trkpt><trkpt lat="45.58374203462109" lon="10.431542982821052"><ele>275.0</ele><time>2026-04-29T13:41:55Z</time></trkpt><trkpt lat="45.58382283444454" lon="10.43153538190095"><ele>275.5</ele><time>2026-04-29T13:41:59Z</time></trkpt><trkpt lat="45.58390526408591" lon="10.431544231946576"><ele>276.0</ele><time>2026-04-29T13:42:03Z</time></trkpt><trkpt lat="45.5839744681749" lon="10.431573371699848"><ele>277.8333333333333</ele><time>2026-04-29T13:42:06Z</time></trkpt><trkpt lat="45.584059499788516" lon="10.431572676237622"><ele>279.6666666666667</ele><time>2026-04-29T13:42:09Z</time></trkpt><trkpt lat="45.584126327990674" lon="10.431536672154408"><ele>281.5</ele><time>2026-04-29T13:42:12Z</time></trkpt><trkpt lat="45.584192596040644" lon="10.431469839114698"><ele>283.33333333333337</ele><time>2026-04-29T13:42:16Z</time></trkpt><trkpt lat="45.58424970857264" lon="10.431399576401553"><ele>285.1666666666667</ele><time>2026-04-29T13:42:20Z</time></trkpt><trkpt lat="45.5843166474872" lon="10.431343823583475"><ele>287.0</ele><time>2026-04-29T13:42:24Z</time></trkpt><trkpt lat="45.58436413230104" lon="10.431257353914372"><ele>288.2857142857143</ele><time>2026-04-29T13:42:28Z</time></trkpt><trkpt lat="45.58437967103307" lon="10.431151728914971"><ele>289.57142857142856</ele><time>2026-04-29T13:42:31.999Z</time></trkpt><trkpt lat="45.58435317992741" lon="10.431067008421197"><ele>290.8571428571429</ele><time>2026-04-29T13:42:35.999Z</time></trkpt><trkpt lat="45.58431984208237" lon="10.430985131323315"><ele>292.1428571428571</ele><time>2026-04-29T13:42:39.999Z</time></trkpt><trkpt lat="45.58430239785634" lon="10.430889234194039"><ele>293.42857142857144</ele><time>2026-04-29T13:42:43.999Z</time></trkpt><trkpt lat="45.584298577355575" lon="10.430797204558354"><ele>294.7142857142857</ele><time>2026-04-29T13:42:47.999Z</time></trkpt><trkpt lat="45.58428664650815" lon="10.430698829994693"><ele>296.0</ele><time>2026-04-29T13:42:51.999Z</time></trkpt><trkpt lat="45.584283325844005" lon="10.430606626119172"><ele>296.0</ele><time>2026-04-29T13:42:55.999Z</time></trkpt><trkpt lat="45.58427939063634" lon="10.43049948028128"><ele>296.0</ele><time>2026-04-29T13:43:00.999Z</time></trkpt><trkpt lat="45.58428052056418" lon="10.430396950129676"><ele>296.0</ele><time>2026-04-29T13:43:05.999Z</time></trkpt><trkpt lat="45.58427814942693" lon="10.430305749759722"><ele>296.0</ele><time>2026-04-29T13:43:09.999Z</time></trkpt><trkpt lat="45.58428506893185" lon="10.430199870754073"><ele>296.0</ele><time>2026-04-29T13:43:15Z</time></trkpt><trkpt lat="45.58427951714331" lon="10.430091843387883"><ele>296.0</ele><time>2026-04-29T13:43:20Z</time></trkpt><trkpt lat="45.5842947162957" lon="10.429998077343983"><ele>296.0</ele><time>2026-04-29T13:43:24Z</time></trkpt><trkpt lat="45.58428669388741" lon="10.429902256706738"><ele>297.57142857142856</ele><time>2026-04-29T13:43:28Z</time></trkpt><trkpt lat="45.584293791147246" lon="10.429812396940124"><ele>299.1428571428571</ele><time>2026-04-29T13:43:32Z</time></trkpt><trkpt lat="45.58428300924885" lon="10.42970880137651"><ele>300.71428571428567</ele><time>2026-04-29T13:43:37Z</time></trkpt><trkpt lat="45.58428648555297" lon="10.4296089187824"><ele>302.2857142857143</ele><time>2026-04-29T13:43:42Z</time></trkpt><trkpt lat="45.58427838092591" lon="10.429506899155749"><ele>303.85714285714283</ele><time>2026-04-29T13:43:47Z</time></trkpt><trkpt lat="45.58427041338946" lon="10.429410092094681"><ele>305.4285714285714</ele><time>2026-04-29T13:43:52Z</time></trkpt><trkpt lat="45.58428528930072" lon="10.429316738456361"><ele>307.0</ele><time>2026-04-29T13:43:57Z</time></trkpt><trkpt lat="45.58427753428368" lon="10.429225762194534"><ele>308.85714285714283</ele><time>2026-04-29T13:44:01Z</time></trkpt><trkpt lat="45.58425545808056" lon="10.429136118237922"><ele>310.7142857142857</ele><time>2026-04-29T13:44:05Z</time></trkpt><trkpt lat="45.58423343431058" lon="10.429031763893015"><ele>312.57142857142856</ele><time>2026-04-29T13:44:10Z</time></trkpt><trkpt lat="45.58422306629957" lon="10.428922631032593"><ele>314.42857142857144</ele><time>2026-04-29T13:44:15Z</time></trkpt><trkpt lat="45.584185410366175" lon="10.428831030412201"><ele>316.2857142857143</ele><time>2026-04-29T13:44:20Z</time></trkpt><trkpt lat="45.584145212913654" lon="10.4287359115216"><ele>318.1428571428571</ele><time>2026-04-29T13:44:25Z</time></trkpt><trkpt lat="45.584131635152566" lon="10.428645745743903"><ele>320.0</ele><time>2026-04-29T13:44:29Z</time></trkpt><trkpt lat="45.584160295932826" lon="10.42855693753284"><ele>322.33333333333337</ele><time>2026-04-29T13:44:33Z</time></trkpt><trkpt lat="45.584232670585585" lon="10.428521307537295"><ele>324.6666666666667</ele><time>2026-04-29T13:44:37Z</time></trkpt><trkpt lat="45.584303453268376" lon="10.428525914888182"><ele>327.0</ele><time>2026-04-29T13:44:40.999Z</time></trkpt><trkpt lat="45.58437733227519" lon="10.428552127902066"><ele>329.3333333333333</ele><time>2026-04-29T13:44:44.999Z</time></trkpt><trkpt lat="45.584450941589246" lon="10.428574765433005"><ele>331.66666666666663</ele><time>2026-04-29T13:44:48.999Z</time></trkpt><trkpt lat="45.58453244290514" lon="10.428611227525874"><ele>334.0</ele><time>2026-04-29T13:44:52.999Z</time></trkpt><trkpt lat="45.58459384550938" lon="10.42864334099037"><ele>335.1428571428571</ele><time>2026-04-29T13:44:55.999Z</time></trkpt><trkpt lat="45.584660720449925" lon="10.428659086460119"><ele>336.2857142857143</ele><time>2026-04-29T13:44:58.999Z</time></trkpt><trkpt lat="45.58472411488904" lon="10.42867529398765"><ele>337.42857142857144</ele><time>2026-04-29T13:45:01.999Z</time></trkpt><trkpt lat="45.584806271619065" lon="10.428664379803703"><ele>338.57142857142856</ele><time>2026-04-29T13:45:05.999Z</time></trkpt><trkpt lat="45.58486437748998" lon="10.428627179118156"><ele>339.7142857142857</ele><time>2026-04-29T13:45:08.999Z</time></trkpt><trkpt lat="45.5849275220553" lon="10.428567730284515"><ele>340.85714285714283</ele><time>2026-04-29T13:45:11.999Z</time></trkpt><trkpt lat="45.58497841977059" lon="10.42849692510125"><ele>342.0</ele><time>2026-04-29T13:45:14.999Z</time></trkpt><trkpt lat="45.585040843017985" lon="10.428454575626265"><ele>341.99999999999994</ele><time>2026-04-29T13:45:17.999Z</time></trkpt><trkpt lat="45.58509698971943" lon="10.428397857925404"><ele>342.0</ele><time>2026-04-29T13:45:21Z</time></trkpt><trkpt lat="45.58515004374159" lon="10.428334522393643"><ele>342.0</ele><time>2026-04-29T13:45:24Z</time></trkpt><trkpt lat="45.585203787057715" lon="10.428266906133764"><ele>342.0</ele><time>2026-04-29T13:45:27Z</time></trkpt><trkpt lat="45.5852565750087" lon="10.428203601327601"><ele>342.0</ele><time>2026-04-29T13:45:30Z</time></trkpt><trkpt lat="45.58530067704835" lon="10.428124956074624"><ele>341.99999999999994</ele><time>2026-04-29T13:45:34Z</time></trkpt><trkpt lat="45.58535910272021" lon="10.42805024237197"><ele>342.0</ele><time>2026-04-29T13:45:38Z</time></trkpt><trkpt lat="45.58540669618668" lon="10.427963570647409"><ele>341.2857142857143</ele><time>2026-04-29T13:45:42Z</time></trkpt><trkpt lat="45.585434092912344" lon="10.427851258080107"><ele>340.57142857142856</ele><time>2026-04-29T13:45:46Z</time></trkpt><trkpt lat="45.58543139443176" lon="10.427752655666168"><ele>339.8571428571429</ele><time>2026-04-29T13:45:49Z</time></trkpt><trkpt lat="45.58542879069029" lon="10.427653597689131"><ele>339.1428571428571</ele><time>2026-04-29T13:45:52Z</time></trkpt><trkpt lat="45.58542191200788" lon="10.427562662753616"><ele>338.42857142857144</ele><time>2026-04-29T13:45:55Z</time></trkpt><trkpt lat="45.58540779517785" lon="10.427453135834165"><ele>337.7142857142857</ele><time>2026-04-29T13:45:59Z</time></trkpt><trkpt lat="45.58539738957421" lon="10.4273472999745"><ele>337.0</ele><time>2026-04-29T13:46:03Z</time></trkpt><trkpt lat="45.58539312865794" lon="10.4272453148436"><ele>338.42857142857144</ele><time>2026-04-29T13:46:07Z</time></trkpt><trkpt lat="45.585395029858894" lon="10.427140266520299"><ele>339.8571428571429</ele><time>2026-04-29T13:46:11Z</time></trkpt><trkpt lat="45.58538779309122" lon="10.427040615030405"><ele>341.28571428571433</ele><time>2026-04-29T13:46:15Z</time></trkpt><trkpt lat="45.585357621276486" lon="10.42695374279061"><ele>342.7142857142857</ele><time>2026-04-29T13:46:19Z</time></trkpt><trkpt lat="45.585329805337686" lon="10.426864572105934"><ele>344.1428571428571</ele><time>2026-04-29T13:46:23Z</time></trkpt><trkpt lat="45.58525584909974" lon="10.426835520905122"><ele>345.5714285714286</ele><time>2026-04-29T13:46:27Z</time></trkpt><trkpt lat="45.58519522679717" lon="10.426898061227497"><ele>347.0</ele><time>2026-04-29T13:46:31Z</time></trkpt><trkpt lat="45.585127821350746" lon="10.426896784493389"><ele>349.2857142857143</ele><time>2026-04-29T13:46:35Z</time></trkpt><trkpt lat="45.585058450114644" lon="10.426931040591608"><ele>351.57142857142856</ele><time>2026-04-29T13:46:38.999Z</time></trkpt><trkpt lat="45.58499215785574" lon="10.426902918278598"><ele>353.85714285714283</ele><time>2026-04-29T13:46:42.999Z</time></trkpt><trkpt lat="45.5849280665" lon="10.426865410586911"><ele>356.1428571428571</ele><time>2026-04-29T13:46:46.999Z</time></trkpt><trkpt lat="45.584857485092876" lon="10.426811079506589"><ele>358.42857142857144</ele><time>2026-04-29T13:46:50.999Z</time></trkpt><trkpt lat="45.584804231608146" lon="10.426727542666335"><ele>360.71428571428567</ele><time>2026-04-29T13:46:54.999Z</time></trkpt><trkpt lat="45.58475069392138" lon="10.426657580625076"><ele>363.0</ele><time>2026-04-29T13:46:58.999Z</time></trkpt><trkpt lat="45.58469138030452" lon="10.42661386584855"><ele>362.99999999999994</ele><time>2026-04-29T13:47:02.999Z</time></trkpt><trkpt lat="45.584623167679965" lon="10.426564038274993"><ele>363.0</ele><time>2026-04-29T13:47:07.999Z</time></trkpt><trkpt lat="45.5845621676139" lon="10.426498954680236"><ele>363.0</ele><time>2026-04-29T13:47:12.999Z</time></trkpt><trkpt lat="45.584499012801864" lon="10.426438679075561"><ele>363.0</ele><time>2026-04-29T13:47:16.999Z</time></trkpt><trkpt lat="45.58444650819275" lon="10.426388552774094"><ele>363.0</ele><time>2026-04-29T13:47:20.999Z</time></trkpt><trkpt lat="45.584386484121595" lon="10.4263224208053"><ele>362.99999999999994</ele><time>2026-04-29T13:47:25.999Z</time></trkpt><trkpt lat="45.58433487372812" lon="10.426259144062838"><ele>363.0</ele><time>2026-04-29T13:47:30Z</time></trkpt><trkpt lat="45.584285434303645" lon="10.426195637880229"><ele>366.1428571428571</ele><time>2026-04-29T13:47:34Z</time></trkpt><trkpt lat="45.5842297584989" lon="10.426144007110086"><ele>369.2857142857143</ele><time>2026-04-29T13:47:38Z</time></trkpt><trkpt lat="45.58417305543388" lon="10.426092366301592"><ele>372.42857142857144</ele><time>2026-04-29T13:47:42Z</time></trkpt><trkpt lat="45.58410624758654" lon="10.426037027301536"><ele>375.57142857142856</ele><time>2026-04-29T13:47:47Z</time></trkpt><trkpt lat="45.58405894723536" lon="10.425951200268193"><ele>378.7142857142857</ele><time>2026-04-29T13:47:52Z</time></trkpt><trkpt lat="45.58400786648729" lon="10.425882720128111"><ele>381.85714285714283</ele><time>2026-04-29T13:47:56Z</time></trkpt><trkpt lat="45.58395209004654" lon="10.425805389067278"><ele>385.0</ele><time>2026-04-29T13:48:01Z</time></trkpt><trkpt lat="45.58390864313557" lon="10.425720161063328"><ele>385.00000000000006</ele><time>2026-04-29T13:48:05Z</time></trkpt><trkpt lat="45.583854161579985" lon="10.425647124998447"><ele>385.0</ele><time>2026-04-29T13:48:09Z</time></trkpt><trkpt lat="45.583795183520294" lon="10.425572484204674"><ele>385.0</ele><time>2026-04-29T13:48:14Z</time></trkpt><trkpt lat="45.58375582808782" lon="10.425476494378525"><ele>385.0</ele><time>2026-04-29T13:48:19Z</time></trkpt><trkpt lat="45.58370724361659" lon="10.425408417320527"><ele>385.00000000000006</ele><time>2026-04-29T13:48:23Z</time></trkpt><trkpt lat="45.5836498175714" lon="10.42533830978809"><ele>385.0</ele><time>2026-04-29T13:48:28Z</time></trkpt><trkpt lat="45.58359320401255" lon="10.425262262733547"><ele>386.85714285714283</ele><time>2026-04-29T13:48:33Z</time></trkpt><trkpt lat="45.58355284774652" lon="10.42516657351658"><ele>388.7142857142857</ele><time>2026-04-29T13:48:37Z</time></trkpt><trkpt lat="45.583499073372" lon="10.42508946732854"><ele>390.57142857142856</ele><time>2026-04-29T13:48:40.999Z</time></trkpt><trkpt lat="45.58344865183946" lon="10.425010838402555"><ele>392.42857142857144</ele><time>2026-04-29T13:48:44.999Z</time></trkpt><trkpt lat="45.58339299821921" lon="10.424942601757417"><ele>394.2857142857143</ele><time>2026-04-29T13:48:48.999Z</time></trkpt><trkpt lat="45.58333579116385" lon="10.424870298469623"><ele>396.1428571428571</ele><time>2026-04-29T13:48:52.999Z</time></trkpt><trkpt lat="45.5832947471185" lon="10.424791247075532"><ele>398.0</ele><time>2026-04-29T13:48:56.999Z</time></trkpt><trkpt lat="45.58325547142219" lon="10.424719373421782"><ele>400.85714285714283</ele><time>2026-04-29T13:48:59.999Z</time></trkpt><trkpt lat="45.583200637043184" lon="10.424641696894264"><ele>403.7142857142857</ele><time>2026-04-29T13:49:03.999Z</time></trkpt><trkpt lat="45.58315611045445" lon="10.424572124850462"><ele>406.57142857142856</ele><time>2026-04-29T13:49:07.999Z</time></trkpt><trkpt lat="45.583104784758945" lon="10.424491853869336"><ele>409.42857142857144</ele><time>2026-04-29T13:49:12.999Z</time></trkpt><trkpt lat="45.58304014987212" lon="10.42443255436773"><ele>412.2857142857143</ele><time>2026-04-29T13:49:17.999Z</time></trkpt><trkpt lat="45.5829913020969" lon="10.424362790659893"><ele>415.1428571428571</ele><time>2026-04-29T13:49:21.999Z</time></trkpt><trkpt lat="45.58295216411734" lon="10.424275269773691"><ele>418.0</ele><time>2026-04-29T13:49:25.999Z</time></trkpt><trkpt lat="45.582915881271546" lon="10.424190092140162"><ele>418.0</ele><time>2026-04-29T13:49:29.999Z</time></trkpt><trkpt lat="45.58286352936465" lon="10.424118078821532"><ele>418.0</ele><time>2026-04-29T13:49:34Z</time></trkpt><trkpt lat="45.58280200135264" lon="10.424054443492409"><ele>418.0</ele><time>2026-04-29T13:49:39Z</time></trkpt><trkpt lat="45.58275673496677" lon="10.423980637240355"><ele>418.0</ele><time>2026-04-29T13:49:43Z</time></trkpt><trkpt lat="45.58271787508283" lon="10.423908935229036"><ele>418.0</ele><time>2026-04-29T13:49:47Z</time></trkpt><trkpt lat="45.58265481057871" lon="10.42384585909321"><ele>418.0</ele><time>2026-04-29T13:49:52Z</time></trkpt><trkpt lat="45.582620866559374" lon="10.423763963051776"><ele>418.0</ele><time>2026-04-29T13:49:57Z</time></trkpt><trkpt lat="45.5825529766889" lon="10.423744203693563"><ele>419.42857142857144</ele><time>2026-04-29T13:50:02Z</time></trkpt><trkpt lat="45.58251801443161" lon="10.423664961497238"><ele>420.85714285714283</ele><time>2026-04-29T13:50:07Z</time></trkpt><trkpt lat="45.5824702105348" lon="10.423605346403571"><ele>422.28571428571433</ele><time>2026-04-29T13:50:12Z</time></trkpt><trkpt lat="45.58240421962357" lon="10.423563432243906"><ele>423.7142857142857</ele><time>2026-04-29T13:50:18Z</time></trkpt><trkpt lat="45.58234745009349" lon="10.423494747696905"><ele>425.14285714285717</ele><time>2026-04-29T13:50:22Z</time></trkpt><trkpt lat="45.58228844052111" lon="10.423437455375199"><ele>426.5714285714286</ele><time>2026-04-29T13:50:28Z</time></trkpt><trkpt lat="45.582254684203114" lon="10.42334568901964"><ele>428.0</ele><time>2026-04-29T13:50:34Z</time></trkpt><trkpt lat="45.58220696180968" lon="10.423285747550327"><ele>427.99999999999994</ele><time>2026-04-29T13:50:40.999Z</time></trkpt><trkpt lat="45.582265813844835" lon="10.423337234223501"><ele>428.0</ele><time>2026-04-29T13:50:50.999Z</time></trkpt><trkpt lat="45.582290116919765" lon="10.423437915003456"><ele>428.0</ele><time>2026-04-29T13:50:54.999Z</time></trkpt><trkpt lat="45.582364234875165" lon="10.423495175322559"><ele>428.0</ele><time>2026-04-29T13:50:57.999Z</time></trkpt><trkpt lat="45.58241918821605" lon="10.423546714354359"><ele>427.99999999999994</ele><time>2026-04-29T13:50:59.999Z</time></trkpt><trkpt lat="45.58249940158671" lon="10.423631264626955"><ele>428.0</ele><time>2026-04-29T13:51:02.999Z</time></trkpt><trkpt lat="45.58256545154882" lon="10.423699961396599"><ele>428.0</ele><time>2026-04-29T13:51:04.999Z</time></trkpt><trkpt lat="45.582623112888875" lon="10.423791757972248"><ele>427.99999999999994</ele><time>2026-04-29T13:51:06.999Z</time></trkpt><trkpt lat="45.58269560066517" lon="10.423872306459291"><ele>427.99999999999994</ele><time>2026-04-29T13:51:08.999Z</time></trkpt><trkpt lat="45.58276256009961" lon="10.423975044528065"><ele>428.0</ele><time>2026-04-29T13:51:10.999Z</time></trkpt><trkpt lat="45.582832844987486" lon="10.424086124740207"><ele>428.0</ele><time>2026-04-29T13:51:12.999Z</time></trkpt><trkpt lat="45.58290947372102" lon="10.424209648328235"><ele>426.3333333333333</ele><time>2026-04-29T13:51:14.999Z</time></trkpt><trkpt lat="45.582995759688664" lon="10.424337894283703"><ele>424.66666666666663</ele><time>2026-04-29T13:51:16.999Z</time></trkpt><trkpt lat="45.58304451222096" lon="10.424412035068771"><ele>423.0</ele><time>2026-04-29T13:51:17.999Z</time></trkpt><trkpt lat="45.58309516662921" lon="10.424485881975029"><ele>421.33333333333337</ele><time>2026-04-29T13:51:18.999Z</time></trkpt><trkpt lat="45.58313938634378" lon="10.424557698392345"><ele>419.6666666666667</ele><time>2026-04-29T13:51:19.999Z</time></trkpt><trkpt lat="45.58318627461864" lon="10.424626611290948"><ele>418.0</ele><time>2026-04-29T13:51:20.999Z</time></trkpt><trkpt lat="45.58323529931973" lon="10.424702405061629"><ele>414.6666666666667</ele><time>2026-04-29T13:51:21.999Z</time></trkpt><trkpt lat="45.58329197719763" lon="10.424781474835028"><ele>411.33333333333337</ele><time>2026-04-29T13:51:22.999Z</time></trkpt><trkpt lat="45.583346954783735" lon="10.42486451095078"><ele>408.0</ele><time>2026-04-29T13:51:23.999Z</time></trkpt><trkpt lat="45.58340150751266" lon="10.42494675416276"><ele>404.66666666666663</ele><time>2026-04-29T13:51:24.999Z</time></trkpt><trkpt lat="45.58345845476687" lon="10.425033442223295"><ele>401.3333333333333</ele><time>2026-04-29T13:51:25.999Z</time></trkpt><trkpt lat="45.58351132480519" lon="10.425119157203325"><ele>398.0</ele><time>2026-04-29T13:51:26.999Z</time></trkpt><trkpt lat="45.58356342457703" lon="10.425203393865809"><ele>397.99999999999994</ele><time>2026-04-29T13:51:27.999Z</time></trkpt><trkpt lat="45.5836207257696" lon="10.425280900117073"><ele>398.0</ele><time>2026-04-29T13:51:28.999Z</time></trkpt><trkpt lat="45.58367403368446" lon="10.425361163680478"><ele>398.0</ele><time>2026-04-29T13:51:29.999Z</time></trkpt><trkpt lat="45.58372746859846" lon="10.4254433575873"><ele>398.0</ele><time>2026-04-29T13:51:30.999Z</time></trkpt><trkpt lat="45.58378640333163" lon="10.425539399370868"><ele>397.99999999999994</ele><time>2026-04-29T13:51:31.999Z</time></trkpt><trkpt lat="45.583835934893024" lon="10.425603069393244"><ele>398.0</ele><time>2026-04-29T13:51:32.999Z</time></trkpt><trkpt lat="45.58388542585261" lon="10.425690982597695"><ele>395.8333333333333</ele><time>2026-04-29T13:51:33.999Z</time></trkpt><trkpt lat="45.58393308012577" lon="10.425775790888848"><ele>393.66666666666663</ele><time>2026-04-29T13:51:34.999Z</time></trkpt><trkpt lat="45.583984402287165" lon="10.425858510682952"><ele>391.5</ele><time>2026-04-29T13:51:35.999Z</time></trkpt><trkpt lat="45.58403695051151" lon="10.425932598100893"><ele>389.33333333333337</ele><time>2026-04-29T13:51:36.999Z</time></trkpt><trkpt lat="45.584091343447724" lon="10.42600617505368"><ele>387.1666666666667</ele><time>2026-04-29T13:51:37.999Z</time></trkpt><trkpt lat="45.58414668857286" lon="10.42607996045835"><ele>385.0</ele><time>2026-04-29T13:51:39Z</time></trkpt><trkpt lat="45.58420299712123" lon="10.426146687031666"><ele>385.0</ele><time>2026-04-29T13:51:40Z</time></trkpt><trkpt lat="45.584258809814195" lon="10.426205588295238"><ele>385.0</ele><time>2026-04-29T13:51:41Z</time></trkpt><trkpt lat="45.58431637299678" lon="10.426264008312947"><ele>385.0</ele><time>2026-04-29T13:51:42Z</time></trkpt><trkpt lat="45.58437237931331" lon="10.426320690386506"><ele>385.0</ele><time>2026-04-29T13:51:43Z</time></trkpt><trkpt lat="45.584429794933804" lon="10.42638680649351"><ele>385.0</ele><time>2026-04-29T13:51:44Z</time></trkpt><trkpt lat="45.58448673135019" lon="10.426453685493883"><ele>385.0</ele><time>2026-04-29T13:51:45Z</time></trkpt><trkpt lat="45.584545061373916" lon="10.426515722948603"><ele>385.0</ele><time>2026-04-29T13:51:46Z</time></trkpt><trkpt lat="45.58461430828193" lon="10.426575108673388"><ele>381.33333333333337</ele><time>2026-04-29T13:51:47Z</time></trkpt><trkpt lat="45.5846903194738" lon="10.426640465656778"><ele>377.6666666666667</ele><time>2026-04-29T13:51:48Z</time></trkpt><trkpt lat="45.58476224249042" lon="10.42670963880083"><ele>374.0</ele><time>2026-04-29T13:51:49Z</time></trkpt><trkpt lat="45.5848310952531" lon="10.426782899885172"><ele>370.33333333333337</ele><time>2026-04-29T13:51:50Z</time></trkpt><trkpt lat="45.5848992695102" lon="10.426841135775895"><ele>366.6666666666667</ele><time>2026-04-29T13:51:51Z</time></trkpt><trkpt lat="45.58496707929586" lon="10.426893293463705"><ele>363.0</ele><time>2026-04-29T13:51:52Z</time></trkpt><trkpt lat="45.58503760541024" lon="10.426927097150328"><ele>363.0</ele><time>2026-04-29T13:51:53Z</time></trkpt><trkpt lat="45.585108595979776" lon="10.426927649958769"><ele>363.0</ele><time>2026-04-29T13:51:54Z</time></trkpt><trkpt lat="45.585177707907874" lon="10.42689659569836"><ele>363.0</ele><time>2026-04-29T13:51:55Z</time></trkpt><trkpt lat="45.585236858173644" lon="10.426864505452555"><ele>363.0</ele><time>2026-04-29T13:51:56Z</time></trkpt><trkpt lat="45.58533255672839" lon="10.42687215148834"><ele>363.0</ele><time>2026-04-29T13:51:58Z</time></trkpt><trkpt lat="45.5853736132987" lon="10.426943226019532"><ele>363.0</ele><time>2026-04-29T13:51:59Z</time></trkpt><trkpt lat="45.58539414399517" lon="10.427068549060941"><ele>357.79999999999995</ele><time>2026-04-29T13:52:00Z</time></trkpt><trkpt lat="45.58539448870911" lon="10.427201341376483"><ele>352.6</ele><time>2026-04-29T13:52:01Z</time></trkpt><trkpt lat="45.58539450445057" lon="10.427346742137102"><ele>347.4</ele><time>2026-04-29T13:52:02Z</time></trkpt><trkpt lat="45.58540682094328" lon="10.427487356434568"><ele>342.20000000000005</ele><time>2026-04-29T13:52:03Z</time></trkpt><trkpt lat="45.585418177943716" lon="10.427610840618463"><ele>337.0</ele><time>2026-04-29T13:52:04Z</time></trkpt><trkpt lat="45.585428195748946" lon="10.427731043750743"><ele>337.0</ele><time>2026-04-29T13:52:05Z</time></trkpt><trkpt lat="45.58542746861314" lon="10.427850029471394"><ele>337.0</ele><time>2026-04-29T13:52:06Z</time></trkpt><trkpt lat="45.5854069259746" lon="10.427973073317386"><ele>337.0</ele><time>2026-04-29T13:52:07Z</time></trkpt><trkpt lat="45.585336988266725" lon="10.428067658149967"><ele>337.0</ele><time>2026-04-29T13:52:08Z</time></trkpt><trkpt lat="45.5852607910932" lon="10.428159890105954"><ele>337.0</ele><time>2026-04-29T13:52:09Z</time></trkpt><trkpt lat="45.5851858692966" lon="10.428269470562373"><ele>338.0</ele><time>2026-04-29T13:52:10Z</time></trkpt><trkpt lat="45.58510131067484" lon="10.428371131468761"><ele>339.0</ele><time>2026-04-29T13:52:11Z</time></trkpt><trkpt lat="45.5850149684406" lon="10.42847854022342"><ele>340.0</ele><time>2026-04-29T13:52:12Z</time></trkpt><trkpt lat="45.584928208845625" lon="10.42857719823151"><ele>341.0</ele><time>2026-04-29T13:52:13Z</time></trkpt><trkpt lat="45.584843453369984" lon="10.42863905858591"><ele>342.0</ele><time>2026-04-29T13:52:14Z</time></trkpt><trkpt lat="45.58475762837008" lon="10.428654379685948"><ele>342.0</ele><time>2026-04-29T13:52:15Z</time></trkpt><trkpt lat="45.584682835386104" lon="10.42864772603938"><ele>342.0</ele><time>2026-04-29T13:52:16Z</time></trkpt><trkpt lat="45.584604684265116" lon="10.428595498610864"><ele>342.0</ele><time>2026-04-29T13:52:17Z</time></trkpt><trkpt lat="45.5845159431014" lon="10.428557241678801"><ele>342.0</ele><time>2026-04-29T13:52:18Z</time></trkpt><trkpt lat="45.584423493469174" lon="10.428520655024371"><ele>342.0</ele><time>2026-04-29T13:52:19Z</time></trkpt><trkpt lat="45.584332875210315" lon="10.428487636167956"><ele>342.0</ele><time>2026-04-29T13:52:20Z</time></trkpt><trkpt lat="45.584245485460556" lon="10.4284649766371"><ele>340.6666666666667</ele><time>2026-04-29T13:52:21Z</time></trkpt><trkpt lat="45.584171240376854" lon="10.428458173167886"><ele>339.3333333333333</ele><time>2026-04-29T13:52:22Z</time></trkpt><trkpt lat="45.58411766866592" lon="10.428528904488173"><ele>338.0</ele><time>2026-04-29T13:52:23Z</time></trkpt><trkpt lat="45.584090194973854" lon="10.428617133024673"><ele>336.66666666666663</ele><time>2026-04-29T13:52:24Z</time></trkpt><trkpt lat="45.58410384127445" lon="10.428732956532185"><ele>335.3333333333333</ele><time>2026-04-29T13:52:25Z</time></trkpt><trkpt lat="45.58415145495483" lon="10.428842113889552"><ele>334.0</ele><time>2026-04-29T13:52:26Z</time></trkpt><trkpt lat="45.58419528494593" lon="10.428951064628489"><ele>331.2</ele><time>2026-04-29T13:52:27Z</time></trkpt><trkpt lat="45.58421986481588" lon="10.429078713564548"><ele>328.4</ele><time>2026-04-29T13:52:28Z</time></trkpt><trkpt lat="45.58424633867288" lon="10.429221600526374"><ele>325.6</ele><time>2026-04-29T13:52:29Z</time></trkpt><trkpt lat="45.5842629404117" lon="10.4293764016239"><ele>322.8</ele><time>2026-04-29T13:52:30Z</time></trkpt><trkpt lat="45.58426555132169" lon="10.42954763564443"><ele>320.0</ele><time>2026-04-29T13:52:31Z</time></trkpt><trkpt lat="45.58426513717798" lon="10.429729956720402"><ele>316.75</ele><time>2026-04-29T13:52:32Z</time></trkpt><trkpt lat="45.58426527959124" lon="10.429917899068844"><ele>313.5</ele><time>2026-04-29T13:52:33Z</time></trkpt><trkpt lat="45.58426761063225" lon="10.430098684938672"><ele>310.25</ele><time>2026-04-29T13:52:34Z</time></trkpt><trkpt lat="45.58426405415101" lon="10.430268236564357"><ele>307.0</ele><time>2026-04-29T13:52:35Z</time></trkpt><trkpt lat="45.58426643961566" lon="10.43042980021128"><ele>304.8</ele><time>2026-04-29T13:52:36Z</time></trkpt><trkpt lat="45.58427127696369" lon="10.430599856731272"><ele>302.6</ele><time>2026-04-29T13:52:37Z</time></trkpt><trkpt lat="45.584280320869084" lon="10.430750347815248"><ele>300.40000000000003</ele><time>2026-04-29T13:52:38Z</time></trkpt><trkpt lat="45.584296641604325" lon="10.430875647776281"><ele>298.2</ele><time>2026-04-29T13:52:39Z</time></trkpt><trkpt lat="45.58432309714236" lon="10.430977719185062"><ele>296.0</ele><time>2026-04-29T13:52:40Z</time></trkpt><trkpt lat="45.58435527849659" lon="10.431063727751255"><ele>296.0</ele><time>2026-04-29T13:52:41Z</time></trkpt><trkpt lat="45.58437509093445" lon="10.43122511905384"><ele>296.0</ele><time>2026-04-29T13:52:42.999Z</time></trkpt><trkpt lat="45.584339434557634" lon="10.43132190822448"><ele>296.0</ele><time>2026-04-29T13:52:43.999Z</time></trkpt><trkpt lat="45.58425231699772" lon="10.431375889812461"><ele>296.0</ele><time>2026-04-29T13:52:44.999Z</time></trkpt><trkpt lat="45.58417703018332" lon="10.431459426440114"><ele>296.0</ele><time>2026-04-29T13:52:45.999Z</time></trkpt><trkpt lat="45.584116486982616" lon="10.431536112046937"><ele>294.5</ele><time>2026-04-29T13:52:46.999Z</time></trkpt><trkpt lat="45.584042933710265" lon="10.431574741803312"><ele>293.0</ele><time>2026-04-29T13:52:47.999Z</time></trkpt><trkpt lat="45.58395598491898" lon="10.431566490144098"><ele>291.5</ele><time>2026-04-29T13:52:48.999Z</time></trkpt><trkpt lat="45.583871972292805" lon="10.431488159484141"><ele>290.0</ele><time>2026-04-29T13:52:49.999Z</time></trkpt><trkpt lat="45.5837828473719" lon="10.43146397928331"><ele>288.5</ele><time>2026-04-29T13:52:50.999Z</time></trkpt><trkpt lat="45.58370522646214" lon="10.43149905319578"><ele>287.0</ele><time>2026-04-29T13:52:51.999Z</time></trkpt><trkpt lat="45.58362941910018" lon="10.43157128738133"><ele>284.8</ele><time>2026-04-29T13:52:52.999Z</time></trkpt><trkpt lat="45.58356726368738" lon="10.431695589343624"><ele>282.6</ele><time>2026-04-29T13:52:53.999Z</time></trkpt><trkpt lat="45.58353358669254" lon="10.431852647993122"><ele>280.40000000000003</ele><time>2026-04-29T13:52:54.999Z</time></trkpt><trkpt lat="45.58350433434089" lon="10.431987456689376"><ele>278.2</ele><time>2026-04-29T13:52:55.999Z</time></trkpt><trkpt lat="45.583468586850636" lon="10.432092174411167"><ele>276.0</ele><time>2026-04-29T13:52:56.999Z</time></trkpt><trkpt lat="45.583416444904486" lon="10.432175347949553"><ele>275.40000000000003</ele><time>2026-04-29T13:52:57.999Z</time></trkpt><trkpt lat="45.58334461473356" lon="10.432234207818258"><ele>274.8</ele><time>2026-04-29T13:52:58.999Z</time></trkpt><trkpt lat="45.58323166063651" lon="10.432222320649105"><ele>274.20000000000005</ele><time>2026-04-29T13:52:59.999Z</time></trkpt><trkpt lat="45.583120012631596" lon="10.43224571119871"><ele>273.6</ele><time>2026-04-29T13:53:00.999Z</time></trkpt><trkpt lat="45.58300514198562" lon="10.432269776878877"><ele>273.0</ele><time>2026-04-29T13:53:01.999Z</time></trkpt><trkpt lat="45.58288715551306" lon="10.432293911107685"><ele>270.8</ele><time>2026-04-29T13:53:02.999Z</time></trkpt><trkpt lat="45.58276996180698" lon="10.432337640349537"><ele>268.6</ele><time>2026-04-29T13:53:03.999Z</time></trkpt><trkpt lat="45.5826677383978" lon="10.432361838701048"><ele>266.4</ele><time>2026-04-29T13:53:04.999Z</time></trkpt><trkpt lat="45.58258404191778" lon="10.432378320571198"><ele>264.2</ele><time>2026-04-29T13:53:05.999Z</time></trkpt><trkpt lat="45.582506002410476" lon="10.432378955489124"><ele>262.0</ele><time>2026-04-29T13:53:06.999Z</time></trkpt><trkpt lat="45.58240600036321" lon="10.43238371784085"><ele>262.0</ele><time>2026-04-29T13:53:08.999Z</time></trkpt><trkpt lat="45.58238406123742" lon="10.432232178715283"><ele>262.0</ele><time>2026-04-29T13:53:10.999Z</time></trkpt><trkpt lat="45.5824404403496" lon="10.432130322845023"><ele>262.0</ele><time>2026-04-29T13:53:11.999Z</time></trkpt><trkpt lat="45.58246118643347" lon="10.432007432517828"><ele>262.0</ele><time>2026-04-29T13:53:12.999Z</time></trkpt><trkpt lat="45.58251311342637" lon="10.431915002149225"><ele>262.0</ele><time>2026-04-29T13:53:13.999Z</time></trkpt><trkpt lat="45.58254483438513" lon="10.431802882380168"><ele>260.2</ele><time>2026-04-29T13:53:14.999Z</time></trkpt><trkpt lat="45.582586670461126" lon="10.431702957483486"><ele>258.4</ele><time>2026-04-29T13:53:15.999Z</time></trkpt><trkpt lat="45.58256795686635" lon="10.431529670929523"><ele>256.6</ele><time>2026-04-29T13:53:17.999Z</time></trkpt><trkpt lat="45.58246267323865" lon="10.431489923565788"><ele>254.8</ele><time>2026-04-29T13:53:18.999Z</time></trkpt><trkpt lat="45.58235883236211" lon="10.43158520137184"><ele>253.0</ele><time>2026-04-29T13:53:19.999Z</time></trkpt><trkpt lat="45.58226784499249" lon="10.43162805171229"><ele>253.0</ele><time>2026-04-29T13:53:20.999Z</time></trkpt><trkpt lat="45.58216944046817" lon="10.431665393243765"><ele>253.0</ele><time>2026-04-29T13:53:21.999Z</time></trkpt><trkpt lat="45.582060231012626" lon="10.431696297996595"><ele>253.0</ele><time>2026-04-29T13:53:22.999Z</time></trkpt><trkpt lat="45.5819429935182" lon="10.431728056542413"><ele>253.0</ele><time>2026-04-29T13:53:23.999Z</time></trkpt><trkpt lat="45.581826993108876" lon="10.431759688924169"><ele>248.25</ele><time>2026-04-29T13:53:24.999Z</time></trkpt><trkpt lat="45.58171840915068" lon="10.431822803350721"><ele>243.5</ele><time>2026-04-29T13:53:25.999Z</time></trkpt><trkpt lat="45.58160591055775" lon="10.431873082112517"><ele>238.75</ele><time>2026-04-29T13:53:26.999Z</time></trkpt><trkpt lat="45.58149694348864" lon="10.431960564205406"><ele>234.0</ele><time>2026-04-29T13:53:27.999Z</time></trkpt><trkpt lat="45.58138794530089" lon="10.432060447355665"><ele>236.0</ele><time>2026-04-29T13:53:28.999Z</time></trkpt><trkpt lat="45.58127595160918" lon="10.432172527830964"><ele>238.0</ele><time>2026-04-29T13:53:29.999Z</time></trkpt><trkpt lat="45.58116741509241" lon="10.43229122641767"><ele>240.0</ele><time>2026-04-29T13:53:30.999Z</time></trkpt><trkpt lat="45.58106220214883" lon="10.432420139066929"><ele>242.0</ele><time>2026-04-29T13:53:31.999Z</time></trkpt><trkpt lat="45.58096759108457" lon="10.432536483492123"><ele>237.8</ele><time>2026-04-29T13:53:32.999Z</time></trkpt><trkpt lat="45.58089126364697" lon="10.432639320988901"><ele>233.6</ele><time>2026-04-29T13:53:33.999Z</time></trkpt><trkpt lat="45.58082847789606" lon="10.432729545320623"><ele>229.40000000000003</ele><time>2026-04-29T13:53:34.999Z</time></trkpt><trkpt lat="45.58076443171167" lon="10.432812970463146"><ele>225.20000000000002</ele><time>2026-04-29T13:53:35.999Z</time></trkpt><trkpt lat="45.580688986057154" lon="10.432894892332776"><ele>221.0</ele><time>2026-04-29T13:53:36.999Z</time></trkpt><trkpt lat="45.58059039137457" lon="10.432907027183935"><ele>221.0</ele><time>2026-04-29T13:53:37.999Z</time></trkpt><trkpt lat="45.58047327551956" lon="10.432934933374911"><ele>221.0</ele><time>2026-04-29T13:53:38.999Z</time></trkpt><trkpt lat="45.5803685831204" lon="10.433012424342971"><ele>221.0</ele><time>2026-04-29T13:53:39.999Z</time></trkpt><trkpt lat="45.58026576965676" lon="10.433073383580686"><ele>221.0</ele><time>2026-04-29T13:53:40.999Z</time></trkpt><trkpt lat="45.580163788900045" lon="10.433144123039437"><ele>218.75</ele><time>2026-04-29T13:53:41.999Z</time></trkpt><trkpt lat="45.580067447661854" lon="10.433225163099902"><ele>216.5</ele><time>2026-04-29T13:53:42.999Z</time></trkpt><trkpt lat="45.57997022172229" lon="10.43330840583598"><ele>214.25</ele><time>2026-04-29T13:53:44Z</time></trkpt><trkpt lat="45.57987278549735" lon="10.433396314468549"><ele>212.0</ele><time>2026-04-29T13:53:45Z</time></trkpt><trkpt lat="45.5797739050087" lon="10.433502000522894"><ele>212.0</ele><time>2026-04-29T13:53:46Z</time></trkpt><trkpt lat="45.57969193501056" lon="10.433619518011135"><ele>212.0</ele><time>2026-04-29T13:53:47Z</time></trkpt><trkpt lat="45.57963083952563" lon="10.433705071275991"><ele>212.0</ele><time>2026-04-29T13:53:48Z</time></trkpt><trkpt lat="45.57958344162984" lon="10.433767478474378"><ele>212.0</ele><time>2026-04-29T13:53:49Z</time></trkpt><trkpt lat="45.579515306506984" lon="10.433852350024083"><ele>212.0</ele><time>2026-04-29T13:53:51Z</time></trkpt><trkpt lat="45.57950126484912" lon="10.433991477811077"><ele>211.66666666666669</ele><time>2026-04-29T13:53:54Z</time></trkpt><trkpt lat="45.57954917519476" lon="10.434075601885539"><ele>211.33333333333334</ele><time>2026-04-29T13:53:57Z</time></trkpt><trkpt lat="45.57957703064979" lon="10.434164408696738"><ele>211.0</ele><time>2026-04-29T13:53:59Z</time></trkpt><trkpt lat="45.579612643867925" lon="10.434264643542946"><ele>210.66666666666669</ele><time>2026-04-29T13:54:01Z</time></trkpt><trkpt lat="45.579657649178905" lon="10.434367386193191"><ele>210.33333333333334</ele><time>2026-04-29T13:54:03Z</time></trkpt><trkpt lat="45.57970400893847" lon="10.434472435811974"><ele>210.0</ele><time>2026-04-29T13:54:05Z</time></trkpt><trkpt lat="45.579755142985874" lon="10.434581450228553"><ele>209.2</ele><time>2026-04-29T13:54:07Z</time></trkpt><trkpt lat="45.57980821788966" lon="10.434691894054886"><ele>208.4</ele><time>2026-04-29T13:54:09Z</time></trkpt><trkpt lat="45.5798601894907" lon="10.434803947239404"><ele>207.60000000000002</ele><time>2026-04-29T13:54:11Z</time></trkpt><trkpt lat="45.57991426663446" lon="10.434916035532734"><ele>206.8</ele><time>2026-04-29T13:54:13Z</time></trkpt><trkpt lat="45.57996978399504" lon="10.435027397285188"><ele>206.0</ele><time>2026-04-29T13:54:15Z</time></trkpt><trkpt lat="45.58003351745067" lon="10.435134167639948"><ele>206.0</ele><time>2026-04-29T13:54:17Z</time></trkpt><trkpt lat="45.580098444718786" lon="10.435241493348482"><ele>206.0</ele><time>2026-04-29T13:54:19Z</time></trkpt><trkpt lat="45.580166541502265" lon="10.43535756187559"><ele>206.0</ele><time>2026-04-29T13:54:21Z</time></trkpt><trkpt lat="45.58023375931593" lon="10.435460363038617"><ele>206.0</ele><time>2026-04-29T13:54:23Z</time></trkpt><trkpt lat="45.58029655255589" lon="10.43555971361983"><ele>206.0</ele><time>2026-04-29T13:54:25Z</time></trkpt><trkpt lat="45.58036306723125" lon="10.435671291926468"><ele>205.20000000000002</ele><time>2026-04-29T13:54:27Z</time></trkpt><trkpt lat="45.58041524433944" lon="10.43579639901025"><ele>204.4</ele><time>2026-04-29T13:54:29Z</time></trkpt><trkpt lat="45.580470620792084" lon="10.435922073525221"><ele>203.6</ele><time>2026-04-29T13:54:31Z</time></trkpt><trkpt lat="45.580503272781435" lon="10.436059071895974"><ele>202.8</ele><time>2026-04-29T13:54:33Z</time></trkpt><trkpt lat="45.58052886681769" lon="10.436212727154503"><ele>202.0</ele><time>2026-04-29T13:54:35Z</time></trkpt><trkpt lat="45.58055775118413" lon="10.436366258690898"><ele>202.0</ele><time>2026-04-29T13:54:37Z</time></trkpt><trkpt lat="45.58058242305671" lon="10.43652305280823"><ele>202.0</ele><time>2026-04-29T13:54:39Z</time></trkpt><trkpt lat="45.58060796223147" lon="10.436682252121035"><ele>202.0</ele><time>2026-04-29T13:54:41Z</time></trkpt><trkpt lat="45.58063030028782" lon="10.436840078929338"><ele>202.0</ele><time>2026-04-29T13:54:43Z</time></trkpt><trkpt lat="45.58065545633021" lon="10.436995430605647"><ele>201.99999999999997</ele><time>2026-04-29T13:54:45Z</time></trkpt><trkpt lat="45.58068175255267" lon="10.437127754999663"><ele>202.0</ele><time>2026-04-29T13:54:46.999Z</time></trkpt><trkpt lat="45.58067619940124" lon="10.437230325020364"><ele>202.0</ele><time>2026-04-29T13:54:48.999Z</time></trkpt><trkpt lat="45.58063210250841" lon="10.437304633702528"><ele>202.0</ele><time>2026-04-29T13:54:52.999Z</time></trkpt><trkpt lat="45.580542868212966" lon="10.437289844199515"><ele>201.99999999999997</ele><time>2026-04-29T13:54:55.999Z</time></trkpt><trkpt lat="45.58047238891116" lon="10.437284495157803"><ele>202.0</ele><time>2026-04-29T13:54:57.999Z</time></trkpt><trkpt lat="45.58039566198443" lon="10.437285837909439"><ele>201.49999999999997</ele><time>2026-04-29T13:54:59.999Z</time></trkpt><trkpt lat="45.580319708607995" lon="10.437277015149858"><ele>201.0</ele><time>2026-04-29T13:55:01.999Z</time></trkpt><trkpt lat="45.58024333108631" lon="10.437265816281869"><ele>200.5</ele><time>2026-04-29T13:55:03.999Z</time></trkpt><trkpt lat="45.580163564929045" lon="10.437261453339136"><ele>200.0</ele><time>2026-04-29T13:55:05.999Z</time></trkpt><trkpt lat="45.5800762115268" lon="10.437257962813451"><ele>199.49999999999997</ele><time>2026-04-29T13:55:07.999Z</time></trkpt><trkpt lat="45.579989401478386" lon="10.43725490291649"><ele>199.0</ele><time>2026-04-29T13:55:09.999Z</time></trkpt><trkpt lat="45.579905420105646" lon="10.437245884883975"><ele>198.99999999999997</ele><time>2026-04-29T13:55:11.999Z</time></trkpt><trkpt lat="45.57981953653343" lon="10.437228401174048"><ele>199.0</ele><time>2026-04-29T13:55:13.999Z</time></trkpt><trkpt lat="45.57973250698978" lon="10.437219772660342"><ele>199.0</ele><time>2026-04-29T13:55:15.999Z</time></trkpt><trkpt lat="45.57964173731064" lon="10.437218153075884"><ele>199.0</ele><time>2026-04-29T13:55:17.999Z</time></trkpt><trkpt lat="45.579550402500004" lon="10.43720571104945"><ele>198.99999999999997</ele><time>2026-04-29T13:55:19.999Z</time></trkpt><trkpt lat="45.57945997225298" lon="10.43720040690099"><ele>199.0</ele><time>2026-04-29T13:55:21.999Z</time></trkpt><trkpt lat="45.579366341006654" lon="10.43719499965293"><ele>198.6</ele><time>2026-04-29T13:55:23.999Z</time></trkpt><trkpt lat="45.5792710031" lon="10.437186022689856"><ele>198.2</ele><time>2026-04-29T13:55:25.999Z</time></trkpt><trkpt lat="45.57917754882661" lon="10.43717766948242"><ele>197.79999999999998</ele><time>2026-04-29T13:55:27.999Z</time></trkpt><trkpt lat="45.57908474719452" lon="10.437166675554968"><ele>197.39999999999998</ele><time>2026-04-29T13:55:29.999Z</time></trkpt><trkpt lat="45.578987496420865" lon="10.437159550499489"><ele>197.0</ele><time>2026-04-29T13:55:31.999Z</time></trkpt><trkpt lat="45.57888907503231" lon="10.437147567206026"><ele>197.0</ele><time>2026-04-29T13:55:33.999Z</time></trkpt><trkpt lat="45.57880375679503" lon="10.437142687016078"><ele>197.0</ele><time>2026-04-29T13:55:35.999Z</time></trkpt><trkpt lat="45.578717540925865" lon="10.437130703350023"><ele>197.0</ele><time>2026-04-29T13:55:37.999Z</time></trkpt><trkpt lat="45.578627124580365" lon="10.43712025279601"><ele>197.0</ele><time>2026-04-29T13:55:39.999Z</time></trkpt><trkpt lat="45.578537566692546" lon="10.437139234003197"><ele>197.0</ele><time>2026-04-29T13:55:41.999Z</time></trkpt><trkpt lat="45.578438349319455" lon="10.43712340105158"><ele>197.6</ele><time>2026-04-29T13:55:43.999Z</time></trkpt><trkpt lat="45.57834413942987" lon="10.437119634139622"><ele>198.2</ele><time>2026-04-29T13:55:45.999Z</time></trkpt><trkpt lat="45.57825227379503" lon="10.437106522213872"><ele>198.8</ele><time>2026-04-29T13:55:47.999Z</time></trkpt><trkpt lat="45.5781564621125" lon="10.437104226475293"><ele>199.4</ele><time>2026-04-29T13:55:50Z</time></trkpt><trkpt lat="45.57806101556844" lon="10.43709869557693"><ele>200.0</ele><time>2026-04-29T13:55:52Z</time></trkpt><trkpt lat="45.57796607438083" lon="10.437080048895949"><ele>200.0</ele><time>2026-04-29T13:55:54Z</time></trkpt><trkpt lat="45.5778663379572" lon="10.43706918005651"><ele>200.0</ele><time>2026-04-29T13:55:56Z</time></trkpt><trkpt lat="45.57776862463145" lon="10.437057762256858"><ele>200.0</ele><time>2026-04-29T13:55:58Z</time></trkpt><trkpt lat="45.57767072094634" lon="10.437050100569017"><ele>200.0</ele><time>2026-04-29T13:56:00Z</time></trkpt><trkpt lat="45.57756988235701" lon="10.43704009695789"><ele>200.0</ele><time>2026-04-29T13:56:02Z</time></trkpt><trkpt lat="45.577470001519764" lon="10.437034051126439"><ele>200.2</ele><time>2026-04-29T13:56:04Z</time></trkpt><trkpt lat="45.57736689092346" lon="10.43702297739205"><ele>200.4</ele><time>2026-04-29T13:56:06Z</time></trkpt><trkpt lat="45.57726923790918" lon="10.437012773971745"><ele>200.60000000000002</ele><time>2026-04-29T13:56:08Z</time></trkpt><trkpt lat="45.57716980830819" lon="10.437004205859473"><ele>200.8</ele><time>2026-04-29T13:56:10Z</time></trkpt><trkpt lat="45.577069629749985" lon="10.437005697744551"><ele>201.0</ele><time>2026-04-29T13:56:12Z</time></trkpt><trkpt lat="45.576971030930125" lon="10.43699442356796"><ele>200.60000000000002</ele><time>2026-04-29T13:56:14Z</time></trkpt><trkpt lat="45.57687057783328" lon="10.436982194023237"><ele>200.2</ele><time>2026-04-29T13:56:16Z</time></trkpt><trkpt lat="45.57677180360641" lon="10.436971038373962"><ele>199.8</ele><time>2026-04-29T13:56:18Z</time></trkpt><trkpt lat="45.5766759164398" lon="10.43696500603211"><ele>199.39999999999998</ele><time>2026-04-29T13:56:20Z</time></trkpt><trkpt lat="45.57658333662129" lon="10.43695736340557"><ele>199.0</ele><time>2026-04-29T13:56:22Z</time></trkpt><trkpt lat="45.576492721927934" lon="10.436943483240173"><ele>199.0</ele><time>2026-04-29T13:56:24Z</time></trkpt><trkpt lat="45.57639638661442" lon="10.436935246472018"><ele>199.0</ele><time>2026-04-29T13:56:26Z</time></trkpt><trkpt lat="45.5763014460799" lon="10.436927239220468"><ele>199.0</ele><time>2026-04-29T13:56:27.999Z</time></trkpt><trkpt lat="45.57620395355502" lon="10.436911863203422"><ele>199.0</ele><time>2026-04-29T13:56:29.999Z</time></trkpt><trkpt lat="45.576105057443186" lon="10.436923474642745"><ele>199.0</ele><time>2026-04-29T13:56:31.999Z</time></trkpt><trkpt lat="45.57600268158623" lon="10.43691706092706"><ele>198.83333333333331</ele><time>2026-04-29T13:56:33.999Z</time></trkpt><trkpt lat="45.5759038201294" lon="10.436936583747029"><ele>198.66666666666666</ele><time>2026-04-29T13:56:35.999Z</time></trkpt><trkpt lat="45.57582557743526" lon="10.43692322339445"><ele>198.5</ele><time>2026-04-29T13:56:37.999Z</time></trkpt><trkpt lat="45.575744341392365" lon="10.436891951880387"><ele>198.33333333333331</ele><time>2026-04-29T13:56:40.999Z</time></trkpt><trkpt lat="45.575663230068464" lon="10.436927093471395"><ele>198.16666666666666</ele><time>2026-04-29T13:56:42.999Z</time></trkpt><trkpt lat="45.5756112947505" lon="10.43703993870363"><ele>198.0</ele><time>2026-04-29T13:56:44.999Z</time></trkpt><trkpt lat="45.57562609061694" lon="10.437174548505617"><ele>197.8</ele><time>2026-04-29T13:56:46.999Z</time></trkpt><trkpt lat="45.57566918952608" lon="10.43730579731779"><ele>197.60000000000002</ele><time>2026-04-29T13:56:48.999Z</time></trkpt><trkpt lat="45.575696970914464" lon="10.437428442076227"><ele>197.39999999999998</ele><time>2026-04-29T13:56:50.999Z</time></trkpt><trkpt lat="45.57570938199842" lon="10.437564644482872"><ele>197.2</ele><time>2026-04-29T13:56:52.999Z</time></trkpt><trkpt lat="45.57572062803144" lon="10.437690850573489"><ele>197.0</ele><time>2026-04-29T13:56:54.999Z</time></trkpt><trkpt lat="45.575744814518735" lon="10.437790357663172"><ele>197.0</ele><time>2026-04-29T13:56:56.999Z</time></trkpt><trkpt lat="45.575765148139226" lon="10.437899902875548"><ele>197.0</ele><time>2026-04-29T13:57:00.999Z</time></trkpt><trkpt lat="45.575785956928435" lon="10.437985433008281"><ele>197.0</ele><time>2026-04-29T13:57:02.999Z</time></trkpt><trkpt lat="45.57580889576697" lon="10.438080538449675"><ele>197.0</ele><time>2026-04-29T13:57:04.999Z</time></trkpt><trkpt lat="45.57583085742272" lon="10.438187446259157"><ele>197.0</ele><time>2026-04-29T13:57:06.999Z</time></trkpt><trkpt lat="45.575854213551565" lon="10.438292242113718"><ele>197.0</ele><time>2026-04-29T13:57:08.999Z</time></trkpt><trkpt lat="45.575868671179514" lon="10.438398172456154"><ele>197.0</ele><time>2026-04-29T13:57:10.999Z</time></trkpt><trkpt lat="45.57589468495372" lon="10.438505059323461"><ele>196.83333333333334</ele><time>2026-04-29T13:57:12.999Z</time></trkpt><trkpt lat="45.57591806858039" lon="10.43860762965278"><ele>196.66666666666669</ele><time>2026-04-29T13:57:14.999Z</time></trkpt><trkpt lat="45.57594707605654" lon="10.438711770686806"><ele>196.5</ele><time>2026-04-29T13:57:16.999Z</time></trkpt><trkpt lat="45.575975914785054" lon="10.438815194233682"><ele>196.33333333333331</ele><time>2026-04-29T13:57:18.999Z</time></trkpt><trkpt lat="45.57600269653654" lon="10.438924949080441"><ele>196.16666666666666</ele><time>2026-04-29T13:57:20.999Z</time></trkpt><trkpt lat="45.576036520795" lon="10.43904192085643"><ele>196.0</ele><time>2026-04-29T13:57:22.999Z</time></trkpt><trkpt lat="45.57606804561773" lon="10.439159008443214"><ele>195.99999999999997</ele><time>2026-04-29T13:57:24.999Z</time></trkpt><trkpt lat="45.5761015528317" lon="10.439282286913015"><ele>196.0</ele><time>2026-04-29T13:57:26.999Z</time></trkpt><trkpt lat="45.576132367214385" lon="10.439403126978318"><ele>196.0</ele><time>2026-04-29T13:57:28.999Z</time></trkpt><trkpt lat="45.57617234738974" lon="10.439513817488375"><ele>196.0</ele><time>2026-04-29T13:57:30.999Z</time></trkpt><trkpt lat="45.57621867801213" lon="10.439616212461626"><ele>195.99999999999997</ele><time>2026-04-29T13:57:32.999Z</time></trkpt><trkpt lat="45.576239708202635" lon="10.43974103591107"><ele>196.0</ele><time>2026-04-29T13:57:34.999Z</time></trkpt><trkpt lat="45.5762767468236" lon="10.439856588373782"><ele>195.4</ele><time>2026-04-29T13:57:36.999Z</time></trkpt><trkpt lat="45.57631331799796" lon="10.43998631842439"><ele>194.8</ele><time>2026-04-29T13:57:38.999Z</time></trkpt><trkpt lat="45.57634995318132" lon="10.440110713039854"><ele>194.20000000000002</ele><time>2026-04-29T13:57:40.999Z</time></trkpt><trkpt lat="45.57638919058472" lon="10.440239353914217"><ele>193.60000000000002</ele><time>2026-04-29T13:57:42.999Z</time></trkpt><trkpt lat="45.57642833952334" lon="10.440365109244697"><ele>193.0</ele><time>2026-04-29T13:57:44.999Z</time></trkpt><trkpt lat="45.576467844878124" lon="10.440489518802282"><ele>193.0</ele><time>2026-04-29T13:57:46.999Z</time></trkpt><trkpt lat="45.576506010965446" lon="10.440610040972931"><ele>193.0</ele><time>2026-04-29T13:57:48.999Z</time></trkpt><trkpt lat="45.576546000817444" lon="10.440738368191338"><ele>193.0</ele><time>2026-04-29T13:57:50.999Z</time></trkpt><trkpt lat="45.57658319745053" lon="10.44087271373637"><ele>193.0</ele><time>2026-04-29T13:57:52.999Z</time></trkpt><trkpt lat="45.576618246798496" lon="10.441008963273786"><ele>193.0</ele><time>2026-04-29T13:57:54.999Z</time></trkpt><trkpt lat="45.576649398649096" lon="10.441153785503376"><ele>193.60000000000002</ele><time>2026-04-29T13:57:56.999Z</time></trkpt><trkpt lat="45.5767081553967" lon="10.441371968678402"><ele>194.20000000000002</ele><time>2026-04-29T13:57:59.999Z</time></trkpt><trkpt lat="45.57674655682253" lon="10.44150157304391"><ele>194.8</ele><time>2026-04-29T13:58:01.999Z</time></trkpt><trkpt lat="45.576784658191094" lon="10.441625648013522"><ele>195.4</ele><time>2026-04-29T13:58:03.999Z</time></trkpt><trkpt lat="45.57681628416864" lon="10.441734426236591"><ele>196.0</ele><time>2026-04-29T13:58:05.999Z</time></trkpt><trkpt lat="45.57686437993756" lon="10.441848447987505"><ele>196.0</ele><time>2026-04-29T13:58:08.999Z</time></trkpt><trkpt lat="45.57691027364948" lon="10.44192768304053"><ele>196.0</ele><time>2026-04-29T13:58:10.999Z</time></trkpt><trkpt lat="45.576926098542444" lon="10.442034623346101"><ele>196.0</ele><time>2026-04-29T13:58:12.999Z</time></trkpt><trkpt lat="45.576912152604386" lon="10.442129202136012"><ele>196.0</ele><time>2026-04-29T13:58:14.999Z</time></trkpt><trkpt lat="45.576909062598574" lon="10.442233291739726"><ele>196.0</ele><time>2026-04-29T13:58:16.999Z</time></trkpt><trkpt lat="45.5768835912168" lon="10.442330286915238"><ele>196.0</ele><time>2026-04-29T13:58:18.999Z</time></trkpt><trkpt lat="45.57685370295251" lon="10.442415819597457"><ele>196.0</ele><time>2026-04-29T13:58:20.999Z</time></trkpt><trkpt lat="45.57678262769762" lon="10.442436872942395"><ele>196.60000000000002</ele><time>2026-04-29T13:58:21.999Z</time></trkpt><trkpt lat="45.5767063189973" lon="10.442510743026862"><ele>197.2</ele><time>2026-04-29T13:58:23.999Z</time></trkpt><trkpt lat="45.576625292919736" lon="10.442582422801847"><ele>197.8</ele><time>2026-04-29T13:58:25.999Z</time></trkpt><trkpt lat="45.57653636408249" lon="10.44265792846922"><ele>198.39999999999998</ele><time>2026-04-29T13:58:27.999Z</time></trkpt><trkpt lat="45.57646539275809" lon="10.442746807900864"><ele>199.0</ele><time>2026-04-29T13:58:29.999Z</time></trkpt><trkpt lat="45.57638818667318" lon="10.442828096381609"><ele>199.0</ele><time>2026-04-29T13:58:31.999Z</time></trkpt><trkpt lat="45.57630568218188" lon="10.442890945597485"><ele>199.0</ele><time>2026-04-29T13:58:33.999Z</time></trkpt><trkpt lat="45.57621526337858" lon="10.44294240523652"><ele>199.0</ele><time>2026-04-29T13:58:35.999Z</time></trkpt><trkpt lat="45.57612310254461" lon="10.443004647480393"><ele>199.0</ele><time>2026-04-29T13:58:37.999Z</time></trkpt><trkpt lat="45.57605787100146" lon="10.443131979061922"><ele>199.0</ele><time>2026-04-29T13:58:39.999Z</time></trkpt><trkpt lat="45.57605757711228" lon="10.443299105782922"><ele>199.6</ele><time>2026-04-29T13:58:41.999Z</time></trkpt><trkpt lat="45.57612464087717" lon="10.44341358828588"><ele>200.2</ele><time>2026-04-29T13:58:43.999Z</time></trkpt><trkpt lat="45.576066645506366" lon="10.443516178382474"><ele>200.79999999999998</ele><time>2026-04-29T13:58:44.999Z</time></trkpt><trkpt lat="45.57603721288771" lon="10.443655379590307"><ele>201.39999999999998</ele><time>2026-04-29T13:58:46.999Z</time></trkpt><trkpt lat="45.575984333737274" lon="10.44377064807825"><ele>202.0</ele><time>2026-04-29T13:58:48.999Z</time></trkpt><trkpt lat="45.575931661234684" lon="10.443892034691778"><ele>202.0</ele><time>2026-04-29T13:58:50.999Z</time></trkpt><trkpt lat="45.57588067896654" lon="10.444010918918707"><ele>202.0</ele><time>2026-04-29T13:58:52.999Z</time></trkpt><trkpt lat="45.575831816411316" lon="10.444132901647725"><ele>202.0</ele><time>2026-04-29T13:58:54.999Z</time></trkpt><trkpt lat="45.57577891455087" lon="10.444264928130613"><ele>202.0</ele><time>2026-04-29T13:58:56.999Z</time></trkpt><trkpt lat="45.57572788068379" lon="10.444391215444968"><ele>202.0</ele><time>2026-04-29T13:58:58.999Z</time></trkpt><trkpt lat="45.57568852853326" lon="10.444524888230402"><ele>202.0</ele><time>2026-04-29T13:59:00.999Z</time></trkpt><trkpt lat="45.57566742226467" lon="10.444667946438855"><ele>202.0</ele><time>2026-04-29T13:59:02.999Z</time></trkpt><trkpt lat="45.57563441347423" lon="10.444807533453075"><ele>202.0</ele><time>2026-04-29T13:59:04.999Z</time></trkpt><trkpt lat="45.57555702253173" lon="10.444923911327122"><ele>202.0</ele><time>2026-04-29T13:59:06.999Z</time></trkpt><trkpt lat="45.575509695466415" lon="10.44506845337973"><ele>202.0</ele><time>2026-04-29T13:59:08.999Z</time></trkpt><trkpt lat="45.57543479606484" lon="10.445186484237837"><ele>202.0</ele><time>2026-04-29T13:59:10.999Z</time></trkpt><trkpt lat="45.575361722870795" lon="10.445314859410487"><ele>202.0</ele><time>2026-04-29T13:59:12.999Z</time></trkpt><trkpt lat="45.57529870619895" lon="10.445452271873512"><ele>202.0</ele><time>2026-04-29T13:59:14.999Z</time></trkpt><trkpt lat="45.57523090129912" lon="10.445575003415449"><ele>202.0</ele><time>2026-04-29T13:59:16.999Z</time></trkpt><trkpt lat="45.575177033767304" lon="10.445719913621637"><ele>202.8</ele><time>2026-04-29T13:59:18.999Z</time></trkpt><trkpt lat="45.575109231044934" lon="10.445856885830544"><ele>203.6</ele><time>2026-04-29T13:59:20.999Z</time></trkpt><trkpt lat="45.57503320388026" lon="10.445978621979272"><ele>204.4</ele><time>2026-04-29T13:59:22.999Z</time></trkpt><trkpt lat="45.57495831750663" lon="10.44612505354131"><ele>205.20000000000002</ele><time>2026-04-29T13:59:24.999Z</time></trkpt><trkpt lat="45.574899937423076" lon="10.446214478510168"><ele>206.0</ele><time>2026-04-29T13:59:26.999Z</time></trkpt><trkpt lat="45.574821113284905" lon="10.446324837547351"><ele>206.60000000000002</ele><time>2026-04-29T13:59:28.999Z</time></trkpt><trkpt lat="45.57474550097974" lon="10.446423030172559"><ele>207.2</ele><time>2026-04-29T13:59:30.999Z</time></trkpt><trkpt lat="45.57467908918247" lon="10.44651790263734"><ele>207.8</ele><time>2026-04-29T13:59:32.999Z</time></trkpt><trkpt lat="45.57461052332077" lon="10.446610751033797"><ele>208.39999999999998</ele><time>2026-04-29T13:59:34.999Z</time></trkpt><trkpt lat="45.57453219978666" lon="10.446711490873247"><ele>209.0</ele><time>2026-04-29T13:59:36.999Z</time></trkpt><trkpt lat="45.57445749031201" lon="10.446820099031818"><ele>209.0</ele><time>2026-04-29T13:59:38.999Z</time></trkpt><trkpt lat="45.574385302866645" lon="10.44691741179716"><ele>209.0</ele><time>2026-04-29T13:59:40.999Z</time></trkpt><trkpt lat="45.574315766198005" lon="10.447015256030829"><ele>209.0</ele><time>2026-04-29T13:59:42.999Z</time></trkpt><trkpt lat="45.574243700107544" lon="10.44711610696235"><ele>209.0</ele><time>2026-04-29T13:59:44.999Z</time></trkpt><trkpt lat="45.574172757996664" lon="10.447216591878446"><ele>209.0</ele><time>2026-04-29T13:59:46.999Z</time></trkpt><trkpt lat="45.57410178766995" lon="10.447317580369843"><ele>209.79999999999998</ele><time>2026-04-29T13:59:48.999Z</time></trkpt><trkpt lat="45.57402589558674" lon="10.447416859455418"><ele>210.6</ele><time>2026-04-29T13:59:50.999Z</time></trkpt><trkpt lat="45.57395574283656" lon="10.447519018939694"><ele>211.4</ele><time>2026-04-29T13:59:52.999Z</time></trkpt><trkpt lat="45.573886771537374" lon="10.447622233492654"><ele>212.2</ele><time>2026-04-29T13:59:54.999Z</time></trkpt><trkpt lat="45.573817219958606" lon="10.44772615409772"><ele>213.0</ele><time>2026-04-29T13:59:56.999Z</time></trkpt><trkpt lat="45.57374890352694" lon="10.447820948627239"><ele>213.0</ele><time>2026-04-29T13:59:58.999Z</time></trkpt><trkpt lat="45.573695948991094" lon="10.447919859603001"><ele>213.0</ele><time>2026-04-29T14:00:01Z</time></trkpt><trkpt lat="45.573625635669416" lon="10.448030566884286"><ele>213.0</ele><time>2026-04-29T14:00:03Z</time></trkpt><trkpt lat="45.57356846095363" lon="10.448147027054782"><ele>213.0</ele><time>2026-04-29T14:00:05Z</time></trkpt><trkpt lat="45.57352028782078" lon="10.448266142934909"><ele>213.0</ele><time>2026-04-29T14:00:07Z</time></trkpt><trkpt lat="45.573480194381645" lon="10.448395399906488"><ele>214.4</ele><time>2026-04-29T14:00:09Z</time></trkpt><trkpt lat="45.57344089596523" lon="10.448528125594668"><ele>215.8</ele><time>2026-04-29T14:00:11Z</time></trkpt><trkpt lat="45.5734043969308" lon="10.44865730100992"><ele>217.2</ele><time>2026-04-29T14:00:13Z</time></trkpt><trkpt lat="45.57337055759494" lon="10.448782040763005"><ele>218.6</ele><time>2026-04-29T14:00:15Z</time></trkpt><trkpt lat="45.57334330572119" lon="10.448909256920842"><ele>220.0</ele><time>2026-04-29T14:00:17Z</time></trkpt><trkpt lat="45.57330913001085" lon="10.449036099216626"><ele>220.4</ele><time>2026-04-29T14:00:19Z</time></trkpt><trkpt lat="45.57327753949587" lon="10.449168154886477"><ele>220.8</ele><time>2026-04-29T14:00:21Z</time></trkpt><trkpt lat="45.57324409721283" lon="10.449294313120562"><ele>221.2</ele><time>2026-04-29T14:00:23Z</time></trkpt><trkpt lat="45.57320686257866" lon="10.449416824118"><ele>221.6</ele><time>2026-04-29T14:00:25Z</time></trkpt><trkpt lat="45.57317354113854" lon="10.449561660715487"><ele>222.0</ele><time>2026-04-29T14:00:28Z</time></trkpt><trkpt lat="45.57315105864346" lon="10.449653886171166"><ele>222.0</ele><time>2026-04-29T14:00:29Z</time></trkpt><trkpt lat="45.573113145100834" lon="10.449732278929563"><ele>222.0</ele><time>2026-04-29T14:00:31Z</time></trkpt><trkpt lat="45.573063432128876" lon="10.449831988667846"><ele>222.0</ele><time>2026-04-29T14:00:33.999Z</time></trkpt><trkpt lat="45.57302717096963" lon="10.44990858325419"><ele>222.0</ele><time>2026-04-29T14:00:35.999Z</time></trkpt><trkpt lat="45.57298654741559" lon="10.44998093568086"><ele>222.0</ele><time>2026-04-29T14:00:37.999Z</time></trkpt><trkpt lat="45.572940159737676" lon="10.45005247232206"><ele>222.0</ele><time>2026-04-29T14:00:39.999Z</time></trkpt><trkpt lat="45.572889056681525" lon="10.450128203726493"><ele>222.0</ele><time>2026-04-29T14:00:41.999Z</time></trkpt><trkpt lat="45.57283348592744" lon="10.450204423829554"><ele>222.0</ele><time>2026-04-29T14:00:43.999Z</time></trkpt><trkpt lat="45.572775303374385" lon="10.450278267416834"><ele>222.0</ele><time>2026-04-29T14:00:45.999Z</time></trkpt><trkpt lat="45.57271489402487" lon="10.450350552333507"><ele>222.0</ele><time>2026-04-29T14:00:47.999Z</time></trkpt><trkpt lat="45.57265693734784" lon="10.450425911902073"><ele>222.0</ele><time>2026-04-29T14:00:49.999Z</time></trkpt><trkpt lat="45.57259795905618" lon="10.45050171532033"><ele>222.0</ele><time>2026-04-29T14:00:51.999Z</time></trkpt><trkpt lat="45.572538994560254" lon="10.450574013564975"><ele>222.0</ele><time>2026-04-29T14:00:53.999Z</time></trkpt><trkpt lat="45.57247737443468" lon="10.45065456150861"><ele>222.39999999999998</ele><time>2026-04-29T14:00:55.999Z</time></trkpt><trkpt lat="45.57241637635506" lon="10.450730954606005"><ele>222.79999999999998</ele><time>2026-04-29T14:00:57.999Z</time></trkpt><trkpt lat="45.57232426612411" lon="10.450858031921923"><ele>223.2</ele><time>2026-04-29T14:00:59.999Z</time></trkpt><trkpt lat="45.57225938192144" lon="10.450942604380542"><ele>223.6</ele><time>2026-04-29T14:01:01.999Z</time></trkpt><trkpt lat="45.57218901915329" lon="10.451029441530057"><ele>224.0</ele><time>2026-04-29T14:01:03.999Z</time></trkpt><trkpt lat="45.57211943793549" lon="10.451120196383776"><ele>224.0</ele><time>2026-04-29T14:01:05.999Z</time></trkpt><trkpt lat="45.57205182063984" lon="10.45120996685422"><ele>223.99999999999997</ele><time>2026-04-29T14:01:07.999Z</time></trkpt><trkpt lat="45.571981922639054" lon="10.451297008449052"><ele>223.99999999999997</ele><time>2026-04-29T14:01:09.999Z</time></trkpt><trkpt lat="45.571913257731026" lon="10.451383894955942"><ele>224.0</ele><time>2026-04-29T14:01:11.999Z</time></trkpt><trkpt lat="45.57184802750048" lon="10.451475946850245"><ele>224.0</ele><time>2026-04-29T14:01:13.999Z</time></trkpt><trkpt lat="45.5717882775208" lon="10.451573763039377"><ele>224.2</ele><time>2026-04-29T14:01:15.999Z</time></trkpt><trkpt lat="45.57172661513618" lon="10.451674485193875"><ele>224.39999999999998</ele><time>2026-04-29T14:01:17.999Z</time></trkpt><trkpt lat="45.571660685987425" lon="10.451784344437778"><ele>224.6</ele><time>2026-04-29T14:01:19.999Z</time></trkpt><trkpt lat="45.571600789729345" lon="10.451882093588553"><ele>224.8</ele><time>2026-04-29T14:01:21.999Z</time></trkpt><trkpt lat="45.57153569957203" lon="10.451992757566238"><ele>225.0</ele><time>2026-04-29T14:01:23.999Z</time></trkpt><trkpt lat="45.571471848546445" lon="10.452101728641578"><ele>225.0</ele><time>2026-04-29T14:01:25.999Z</time></trkpt><trkpt lat="45.571401282609926" lon="10.452219567968353"><ele>225.0</ele><time>2026-04-29T14:01:27.999Z</time></trkpt><trkpt lat="45.57133160704951" lon="10.452336934932555"><ele>225.0</ele><time>2026-04-29T14:01:29.999Z</time></trkpt><trkpt lat="45.57125947875671" lon="10.452454038951323"><ele>225.0</ele><time>2026-04-29T14:01:31.999Z</time></trkpt><trkpt lat="45.57118134696273" lon="10.452573117699922"><ele>225.0</ele><time>2026-04-29T14:01:33.999Z</time></trkpt><trkpt lat="45.57110909615444" lon="10.452692216496885"><ele>225.0</ele><time>2026-04-29T14:01:35.999Z</time></trkpt><trkpt lat="45.571037778130865" lon="10.452820480745475"><ele>225.0</ele><time>2026-04-29T14:01:37.999Z</time></trkpt><trkpt lat="45.570959723629876" lon="10.45294244987633"><ele>225.0</ele><time>2026-04-29T14:01:39.999Z</time></trkpt><trkpt lat="45.5708706496143" lon="10.453060524608643"><ele>225.0</ele><time>2026-04-29T14:01:41.999Z</time></trkpt><trkpt lat="45.57078051521963" lon="10.453170926792998"><ele>225.25</ele><time>2026-04-29T14:01:43.999Z</time></trkpt><trkpt lat="45.57068689082544" lon="10.453279256869388"><ele>225.5</ele><time>2026-04-29T14:01:45.999Z</time></trkpt><trkpt lat="45.57058926337541" lon="10.453380714445899"><ele>225.75</ele><time>2026-04-29T14:01:47.999Z</time></trkpt><trkpt lat="45.57049357581831" lon="10.453472319439259"><ele>226.0</ele><time>2026-04-29T14:01:49.999Z</time></trkpt><trkpt lat="45.57041140594347" lon="10.453568485151195"><ele>226.0</ele><time>2026-04-29T14:01:51.999Z</time></trkpt><trkpt lat="45.57032136546445" lon="10.45365261571666"><ele>226.00000000000003</ele><time>2026-04-29T14:01:53.999Z</time></trkpt><trkpt lat="45.57023038823106" lon="10.453752680228986"><ele>226.00000000000003</ele><time>2026-04-29T14:01:55.999Z</time></trkpt><trkpt lat="45.57014278371546" lon="10.453844921619435"><ele>226.0</ele><time>2026-04-29T14:01:57.999Z</time></trkpt><trkpt lat="45.57005748753092" lon="10.45393549702519"><ele>226.0</ele><time>2026-04-29T14:01:59.999Z</time></trkpt><trkpt lat="45.5699732866902" lon="10.454030002339476"><ele>226.8</ele><time>2026-04-29T14:02:01.999Z</time></trkpt><trkpt lat="45.56988384119036" lon="10.454126257150367"><ele>227.60000000000002</ele><time>2026-04-29T14:02:03.999Z</time></trkpt><trkpt lat="45.56979493497161" lon="10.454225062706064"><ele>228.4</ele><time>2026-04-29T14:02:06Z</time></trkpt><trkpt lat="45.56970713533383" lon="10.454311610632478"><ele>229.2</ele><time>2026-04-29T14:02:08Z</time></trkpt><trkpt lat="45.569618730333445" lon="10.45440234630061"><ele>230.0</ele><time>2026-04-29T14:02:10Z</time></trkpt><trkpt lat="45.56953468577231" lon="10.454489467828413"><ele>230.2</ele><time>2026-04-29T14:02:12Z</time></trkpt><trkpt lat="45.569449318184475" lon="10.454584759446362"><ele>230.4</ele><time>2026-04-29T14:02:14Z</time></trkpt><trkpt lat="45.56936042415656" lon="10.454673644444274"><ele>230.60000000000002</ele><time>2026-04-29T14:02:16Z</time></trkpt><trkpt lat="45.569275811399244" lon="10.454759116942018"><ele>230.8</ele><time>2026-04-29T14:02:18Z</time></trkpt><trkpt lat="45.569185702386086" lon="10.45484417236282"><ele>231.0</ele><time>2026-04-29T14:02:20Z</time></trkpt><trkpt lat="45.569095843464446" lon="10.45492643030851"><ele>231.60000000000002</ele><time>2026-04-29T14:02:22Z</time></trkpt><trkpt lat="45.569004075149714" lon="10.455010859000307"><ele>232.20000000000002</ele><time>2026-04-29T14:02:24Z</time></trkpt><trkpt lat="45.56891552197302" lon="10.455087499964286"><ele>232.79999999999998</ele><time>2026-04-29T14:02:26Z</time></trkpt><trkpt lat="45.568831188995034" lon="10.455162427514407"><ele>233.39999999999998</ele><time>2026-04-29T14:02:28Z</time></trkpt><trkpt lat="45.568743608375065" lon="10.45523904022821"><ele>234.0</ele><time>2026-04-29T14:02:30Z</time></trkpt><trkpt lat="45.56865855617004" lon="10.455319849860437"><ele>234.0</ele><time>2026-04-29T14:02:32Z</time></trkpt><trkpt lat="45.568574791651805" lon="10.455391280064495"><ele>233.99999999999997</ele><time>2026-04-29T14:02:34Z</time></trkpt><trkpt lat="45.568482515568775" lon="10.455462513632764"><ele>233.99999999999997</ele><time>2026-04-29T14:02:36Z</time></trkpt><trkpt lat="45.568394144207645" lon="10.455542170008822"><ele>234.0</ele><time>2026-04-29T14:02:38Z</time></trkpt><trkpt lat="45.56829863048566" lon="10.455629218506603"><ele>234.0</ele><time>2026-04-29T14:02:40Z</time></trkpt><trkpt lat="45.56820521330459" lon="10.455709325297509"><ele>234.2</ele><time>2026-04-29T14:02:42Z</time></trkpt><trkpt lat="45.56811647804786" lon="10.455803939555969"><ele>234.39999999999998</ele><time>2026-04-29T14:02:44Z</time></trkpt><trkpt lat="45.568034407711245" lon="10.45589924529956"><ele>234.6</ele><time>2026-04-29T14:02:46Z</time></trkpt><trkpt lat="45.56795637500758" lon="10.456002211231086"><ele>234.8</ele><time>2026-04-29T14:02:47.999Z</time></trkpt><trkpt lat="45.5678793416176" lon="10.45611262555761"><ele>235.0</ele><time>2026-04-29T14:02:49.999Z</time></trkpt><trkpt lat="45.567804311943455" lon="10.456224949923008"><ele>235.6</ele><time>2026-04-29T14:02:51.999Z</time></trkpt><trkpt lat="45.567733549909754" lon="10.45634094308006"><ele>236.2</ele><time>2026-04-29T14:02:53.999Z</time></trkpt><trkpt lat="45.567661419507345" lon="10.456463534625382"><ele>236.8</ele><time>2026-04-29T14:02:55.999Z</time></trkpt><trkpt lat="45.567582935491686" lon="10.456578246157454"><ele>237.4</ele><time>2026-04-29T14:02:57.999Z</time></trkpt><trkpt lat="45.567508613768574" lon="10.456704008212405"><ele>238.0</ele><time>2026-04-29T14:02:59.999Z</time></trkpt><trkpt lat="45.56743516006239" lon="10.456824327290969"><ele>238.0</ele><time>2026-04-29T14:03:01.999Z</time></trkpt><trkpt lat="45.567358046697244" lon="10.45694156692974"><ele>238.0</ele><time>2026-04-29T14:03:03.999Z</time></trkpt><trkpt lat="45.56727980745074" lon="10.457066225685955"><ele>238.0</ele><time>2026-04-29T14:03:05.999Z</time></trkpt><trkpt lat="45.567199236556355" lon="10.45719099583958"><ele>238.0</ele><time>2026-04-29T14:03:07.999Z</time></trkpt><trkpt lat="45.56715575046138" lon="10.457256078922414"><ele>238.0</ele><time>2026-04-29T14:03:08.999Z</time></trkpt><trkpt lat="45.56707094996121" lon="10.457383165477172"><ele>237.4</ele><time>2026-04-29T14:03:10.999Z</time></trkpt><trkpt lat="45.566978594079174" lon="10.457496337027761"><ele>236.8</ele><time>2026-04-29T14:03:12.999Z</time></trkpt><trkpt lat="45.56689370248568" lon="10.457617758227288"><ele>236.2</ele><time>2026-04-29T14:03:14.999Z</time></trkpt><trkpt lat="45.56685032958031" lon="10.457684290282826"><ele>235.6</ele><time>2026-04-29T14:03:15.999Z</time></trkpt><trkpt lat="45.56676309505419" lon="10.457808432197464"><ele>235.0</ele><time>2026-04-29T14:03:17.999Z</time></trkpt><trkpt lat="45.5666761405432" lon="10.457930026188007"><ele>235.25</ele><time>2026-04-29T14:03:19.999Z</time></trkpt><trkpt lat="45.56659380578377" lon="10.458052038175135"><ele>235.5</ele><time>2026-04-29T14:03:21.999Z</time></trkpt><trkpt lat="45.566519827434654" lon="10.4581735154846"><ele>235.75</ele><time>2026-04-29T14:03:23.999Z</time></trkpt><trkpt lat="45.56644023924453" lon="10.458293320885897"><ele>236.0</ele><time>2026-04-29T14:03:25.999Z</time></trkpt><trkpt lat="45.566359024246054" lon="10.458410359783624"><ele>236.0</ele><time>2026-04-29T14:03:27.999Z</time></trkpt><trkpt lat="45.56627991249749" lon="10.458519442517222"><ele>236.00000000000003</ele><time>2026-04-29T14:03:29.999Z</time></trkpt><trkpt lat="45.56619146696457" lon="10.458607122430996"><ele>236.00000000000003</ele><time>2026-04-29T14:03:31.999Z</time></trkpt><trkpt lat="45.56609391365467" lon="10.458652139423728"><ele>236.0</ele><time>2026-04-29T14:03:33.999Z</time></trkpt><trkpt lat="45.5660166141878" lon="10.458704303412441"><ele>236.0</ele><time>2026-04-29T14:03:35.999Z</time></trkpt><trkpt lat="45.56595567531668" lon="10.45879177082895"><ele>236.60000000000002</ele><time>2026-04-29T14:03:37.999Z</time></trkpt><trkpt lat="45.56590510289819" lon="10.458916595095399"><ele>237.20000000000002</ele><time>2026-04-29T14:03:39.999Z</time></trkpt><trkpt lat="45.56592377769711" lon="10.459079821497001"><ele>237.79999999999998</ele><time>2026-04-29T14:03:41.999Z</time></trkpt><trkpt lat="45.565874808115595" lon="10.45915061402851"><ele>238.39999999999998</ele><time>2026-04-29T14:03:42.999Z</time></trkpt><trkpt lat="45.56580423290054" lon="10.459270295665618"><ele>239.0</ele><time>2026-04-29T14:03:44.999Z</time></trkpt><trkpt lat="45.56573782166393" lon="10.459399728864664"><ele>239.0</ele><time>2026-04-29T14:03:46.999Z</time></trkpt><trkpt lat="45.56564746040951" lon="10.459490963760125"><ele>238.99999999999997</ele><time>2026-04-29T14:03:48.999Z</time></trkpt><trkpt lat="45.56557079748053" lon="10.459604101618192"><ele>238.99999999999997</ele><time>2026-04-29T14:03:50.999Z</time></trkpt><trkpt lat="45.56549572541272" lon="10.459721723932134"><ele>239.0</ele><time>2026-04-29T14:03:52.999Z</time></trkpt><trkpt lat="45.56542231688038" lon="10.459846966258949"><ele>239.0</ele><time>2026-04-29T14:03:54.999Z</time></trkpt><trkpt lat="45.56534837356792" lon="10.459969185431111"><ele>240.0</ele><time>2026-04-29T14:03:56.999Z</time></trkpt><trkpt lat="45.565278627926496" lon="10.46009598490386"><ele>241.0</ele><time>2026-04-29T14:03:58.999Z</time></trkpt><trkpt lat="45.565206395334094" lon="10.460218168727708"><ele>242.0</ele><time>2026-04-29T14:04:00.999Z</time></trkpt><trkpt lat="45.56513506102263" lon="10.460344087916639"><ele>243.0</ele><time>2026-04-29T14:04:02.999Z</time></trkpt><trkpt lat="45.56506494120608" lon="10.460470290315989"><ele>243.5</ele><time>2026-04-29T14:04:04.999Z</time></trkpt><trkpt lat="45.56499077488712" lon="10.460599135953117"><ele>244.0</ele><time>2026-04-29T14:04:06.999Z</time></trkpt><trkpt lat="45.56488381921841" lon="10.460666540324944"><ele>244.5</ele><time>2026-04-29T14:04:08.999Z</time></trkpt><trkpt lat="45.56476770139048" lon="10.460686964564799"><ele>245.0</ele><time>2026-04-29T14:04:11Z</time></trkpt><trkpt lat="45.56465382707586" lon="10.460685255138184"><ele>245.0</ele><time>2026-04-29T14:04:13Z</time></trkpt><trkpt lat="45.56453985945179" lon="10.460692694836885"><ele>245.0</ele><time>2026-04-29T14:04:15Z</time></trkpt><trkpt lat="45.56442922181211" lon="10.460679517931641"><ele>245.0</ele><time>2026-04-29T14:04:17Z</time></trkpt><trkpt lat="45.56431936593241" lon="10.460665078704002"><ele>245.0</ele><time>2026-04-29T14:04:19Z</time></trkpt><trkpt lat="45.56420210793149" lon="10.460667200373658"><ele>245.0</ele><time>2026-04-29T14:04:21Z</time></trkpt><trkpt lat="45.56408386360824" lon="10.460673494965377"><ele>245.0</ele><time>2026-04-29T14:04:23Z</time></trkpt><trkpt lat="45.563964883060954" lon="10.460682998469347"><ele>245.0</ele><time>2026-04-29T14:04:25Z</time></trkpt><trkpt lat="45.56384993192431" lon="10.460694792836227"><ele>245.0</ele><time>2026-04-29T14:04:27Z</time></trkpt><trkpt lat="45.563735483630296" lon="10.460698620062784"><ele>245.00000000000003</ele><time>2026-04-29T14:04:29Z</time></trkpt><trkpt lat="45.563673982088766" lon="10.460674519249984"><ele>245.0</ele><time>2026-04-29T14:04:30Z</time></trkpt><trkpt lat="45.5635511657159" lon="10.460696200588558"><ele>245.0</ele><time>2026-04-29T14:04:32Z</time></trkpt><trkpt lat="45.56348961593666" lon="10.460671022065952"><ele>245.0</ele><time>2026-04-29T14:04:33Z</time></trkpt><trkpt lat="45.56342105419719" lon="10.460666482750616"><ele>245.00000000000003</ele><time>2026-04-29T14:04:34Z</time></trkpt><trkpt lat="45.56335432541598" lon="10.460668532442442"><ele>245.0</ele><time>2026-04-29T14:04:35Z</time></trkpt><trkpt lat="45.563283953836155" lon="10.460669404736883"><ele>245.00000000000003</ele><time>2026-04-29T14:04:36Z</time></trkpt><trkpt lat="45.563214712412204" lon="10.460669829834192"><ele>245.0</ele><time>2026-04-29T14:04:37Z</time></trkpt><trkpt lat="45.56314268701091" lon="10.460674987404454"><ele>245.0</ele><time>2026-04-29T14:04:38Z</time></trkpt><trkpt lat="45.563074219874416" lon="10.460688942352284"><ele>245.0</ele><time>2026-04-29T14:04:39Z</time></trkpt><trkpt lat="45.56300158025731" lon="10.460737750753708"><ele>245.00000000000003</ele><time>2026-04-29T14:04:40Z</time></trkpt><trkpt lat="45.56294823285914" lon="10.460814024737848"><ele>245.0</ele><time>2026-04-29T14:04:41Z</time></trkpt><trkpt lat="45.56290580350738" lon="10.460917782763602"><ele>245.00000000000003</ele><time>2026-04-29T14:04:42Z</time></trkpt><trkpt lat="45.5628882195911" lon="10.461035860195313"><ele>245.0</ele><time>2026-04-29T14:04:43Z</time></trkpt><trkpt lat="45.56289564769162" lon="10.461155094221514"><ele>245.0</ele><time>2026-04-29T14:04:44Z</time></trkpt><trkpt lat="45.562919431272114" lon="10.461263881999432"><ele>245.0</ele><time>2026-04-29T14:04:45Z</time></trkpt><trkpt lat="45.56295533206349" lon="10.461355663102399"><ele>245.00000000000003</ele><time>2026-04-29T14:04:46Z</time></trkpt><trkpt lat="45.5629929186562" lon="10.461434760441513"><ele>245.0</ele><time>2026-04-29T14:04:47Z</time></trkpt><trkpt lat="45.5630270651795" lon="10.461512665809684"><ele>245.5</ele><time>2026-04-29T14:04:48Z</time></trkpt><trkpt lat="45.56308243680958" lon="10.461663599493047"><ele>246.0</ele><time>2026-04-29T14:04:50Z</time></trkpt><trkpt lat="45.563144320105216" lon="10.461807934235956"><ele>246.5</ele><time>2026-04-29T14:04:52Z</time></trkpt><trkpt lat="45.56319831436191" lon="10.46195819104927"><ele>247.0</ele><time>2026-04-29T14:04:54Z</time></trkpt><trkpt lat="45.56325043035698" lon="10.462109149097527"><ele>247.6</ele><time>2026-04-29T14:04:56Z</time></trkpt><trkpt lat="45.56327055792133" lon="10.462253929211782"><ele>248.2</ele><time>2026-04-29T14:04:58Z</time></trkpt><trkpt lat="45.5632384896163" lon="10.462396276338206"><ele>248.8</ele><time>2026-04-29T14:04:59.999Z</time></trkpt><trkpt lat="45.56317728343031" lon="10.462525388636946"><ele>249.4</ele><time>2026-04-29T14:05:01.999Z</time></trkpt><trkpt lat="45.56311575196816" lon="10.46265743844166"><ele>250.0</ele><time>2026-04-29T14:05:03.999Z</time></trkpt><trkpt lat="45.56305676602019" lon="10.462792346213062"><ele>250.0</ele><time>2026-04-29T14:05:05.999Z</time></trkpt><trkpt lat="45.562997559906705" lon="10.462926841437472"><ele>250.0</ele><time>2026-04-29T14:05:07.999Z</time></trkpt><trkpt lat="45.56294137433799" lon="10.463058266299939"><ele>250.0</ele><time>2026-04-29T14:05:09.999Z</time></trkpt><trkpt lat="45.56288808916659" lon="10.463174835950726"><ele>250.0</ele><time>2026-04-29T14:05:11.999Z</time></trkpt><trkpt lat="45.56283050123326" lon="10.463280870251545"><ele>250.0</ele><time>2026-04-29T14:05:13.999Z</time></trkpt><trkpt lat="45.56277991071905" lon="10.463389893327424"><ele>250.33333333333331</ele><time>2026-04-29T14:05:15.999Z</time></trkpt><trkpt lat="45.56272796675529" lon="10.463505369470248"><ele>250.66666666666666</ele><time>2026-04-29T14:05:17.999Z</time></trkpt><trkpt lat="45.562685464157866" lon="10.46360499721054"><ele>251.0</ele><time>2026-04-29T14:05:19.999Z</time></trkpt><trkpt lat="45.56263669650641" lon="10.463708766201691"><ele>251.33333333333331</ele><time>2026-04-29T14:05:21.999Z</time></trkpt><trkpt lat="45.56258490011311" lon="10.463814430491198"><ele>251.66666666666666</ele><time>2026-04-29T14:05:24.999Z</time></trkpt><trkpt lat="45.562533479407" lon="10.463912651819731"><ele>252.0</ele><time>2026-04-29T14:05:27.999Z</time></trkpt><trkpt lat="45.562465756632626" lon="10.464024638106025"><ele>252.33333333333334</ele><time>2026-04-29T14:05:28.999Z</time></trkpt><trkpt lat="45.56241179107527" lon="10.464121023857713"><ele>252.66666666666669</ele><time>2026-04-29T14:05:30.999Z</time></trkpt><trkpt lat="45.562361051604476" lon="10.464196209975587"><ele>253.0</ele><time>2026-04-29T14:05:32.999Z</time></trkpt><trkpt lat="45.56230080655422" lon="10.4642580310101"><ele>253.33333333333334</ele><time>2026-04-29T14:05:34.999Z</time></trkpt><trkpt lat="45.562225022994866" lon="10.464329794487888"><ele>253.66666666666669</ele><time>2026-04-29T14:05:37.999Z</time></trkpt><trkpt lat="45.562157799392814" lon="10.464384699578229"><ele>254.0</ele><time>2026-04-29T14:05:40.999Z</time></trkpt><trkpt lat="45.562087644015186" lon="10.464438340621912"><ele>255.00000000000003</ele><time>2026-04-29T14:05:43.999Z</time></trkpt><trkpt lat="45.56201406529315" lon="10.464473937476356"><ele>256.0</ele><time>2026-04-29T14:05:46.999Z</time></trkpt><trkpt lat="45.56195376658255" lon="10.464507369468452"><ele>257.0</ele><time>2026-04-29T14:05:49.999Z</time></trkpt><trkpt lat="45.56187308046269" lon="10.464538679442573"><ele>258.0</ele><time>2026-04-29T14:05:52.999Z</time></trkpt><trkpt lat="45.56180969362282" lon="10.464603699653802"><ele>259.0</ele><time>2026-04-29T14:05:55.999Z</time></trkpt><trkpt lat="45.561754131651085" lon="10.464680857325382"><ele>260.0</ele><time>2026-04-29T14:05:58.999Z</time></trkpt><trkpt lat="45.56170001740271" lon="10.464761451900165"><ele>261.0</ele><time>2026-04-29T14:06:01.999Z</time></trkpt><trkpt lat="45.561648937337544" lon="10.464842293594705"><ele>262.0</ele><time>2026-04-29T14:06:04.999Z</time></trkpt><trkpt lat="45.561602371010004" lon="10.46493494167316"><ele>263.0</ele><time>2026-04-29T14:06:07.999Z</time></trkpt><trkpt lat="45.56155327165143" lon="10.465012905071136"><ele>264.0</ele><time>2026-04-29T14:06:10.999Z</time></trkpt><trkpt lat="45.56151185743766" lon="10.465118370171943"><ele>265.0</ele><time>2026-04-29T14:06:13.999Z</time></trkpt><trkpt lat="45.56146632194629" lon="10.465209512102732"><ele>266.0</ele><time>2026-04-29T14:06:17Z</time></trkpt><trkpt lat="45.56142772949075" lon="10.465286039003454"><ele>266.0</ele><time>2026-04-29T14:06:20Z</time></trkpt><trkpt lat="45.56138634577916" lon="10.465368381317298"><ele>266.0</ele><time>2026-04-29T14:06:24Z</time></trkpt><trkpt lat="45.561337223590755" lon="10.465445371598216"><ele>266.0</ele><time>2026-04-29T14:06:28Z</time></trkpt><trkpt lat="45.561287382415564" lon="10.465523041558813"><ele>266.0</ele><time>2026-04-29T14:06:32Z</time></trkpt><trkpt lat="45.56122618230367" lon="10.465581445721421"><ele>266.0</ele><time>2026-04-29T14:06:36Z</time></trkpt><trkpt lat="45.56115596943683" lon="10.465624156419592"><ele>266.0</ele><time>2026-04-29T14:06:40Z</time></trkpt><trkpt lat="45.56108941647602" lon="10.465681558095685"><ele>266.0</ele><time>2026-04-29T14:06:44Z</time></trkpt><trkpt lat="45.56101455240906" lon="10.465729757357858"><ele>267.42857142857144</ele><time>2026-04-29T14:06:48Z</time></trkpt><trkpt lat="45.560945377568174" lon="10.465772321630183"><ele>268.8571428571429</ele><time>2026-04-29T14:06:52Z</time></trkpt><trkpt lat="45.56087866054282" lon="10.465817942477665"><ele>270.2857142857143</ele><time>2026-04-29T14:06:56Z</time></trkpt><trkpt lat="45.56080420803193" lon="10.465865464251674"><ele>271.7142857142857</ele><time>2026-04-29T14:07:00Z</time></trkpt><trkpt lat="45.560741276622615" lon="10.46589133351323"><ele>273.14285714285717</ele><time>2026-04-29T14:07:03Z</time></trkpt><trkpt lat="45.56067858268222" lon="10.465918241954165"><ele>274.57142857142856</ele><time>2026-04-29T14:07:06Z</time></trkpt><trkpt lat="45.560618569474244" lon="10.465946532479393"><ele>276.0</ele><time>2026-04-29T14:07:09Z</time></trkpt><trkpt lat="45.560544255407486" lon="10.465960737869802"><ele>276.0</ele><time>2026-04-29T14:07:13Z</time></trkpt><trkpt lat="45.560485038973006" lon="10.465915169125289"><ele>276.0</ele><time>2026-04-29T14:07:15.999Z</time></trkpt><trkpt lat="45.560443912703406" lon="10.465839917135467"><ele>276.0</ele><time>2026-04-29T14:07:18.999Z</time></trkpt><trkpt lat="45.560379003695104" lon="10.465772824668484"><ele>276.0</ele><time>2026-04-29T14:07:22.999Z</time></trkpt><trkpt lat="45.56033750001599" lon="10.465701396685041"><ele>276.0</ele><time>2026-04-29T14:07:25.999Z</time></trkpt><trkpt lat="45.560329296863905" lon="10.46558854538461"><ele>276.0</ele><time>2026-04-29T14:07:29.999Z</time></trkpt><trkpt lat="45.56032711708776" lon="10.465485998243336"><ele>276.0</ele><time>2026-04-29T14:07:33.999Z</time></trkpt><trkpt lat="45.560326292053006" lon="10.465370317066107"><ele>276.7142857142857</ele><time>2026-04-29T14:07:37.999Z</time></trkpt><trkpt lat="45.560369942322126" lon="10.465274796577763"><ele>277.42857142857144</ele><time>2026-04-29T14:07:41.999Z</time></trkpt><trkpt lat="45.5604030009253" lon="10.465188843781494"><ele>278.14285714285717</ele><time>2026-04-29T14:07:44.999Z</time></trkpt><trkpt lat="45.560433207147526" lon="10.46510958661963"><ele>278.8571428571429</ele><time>2026-04-29T14:07:47.999Z</time></trkpt><trkpt lat="45.56047549203982" lon="10.465023697337813"><ele>279.57142857142856</ele><time>2026-04-29T14:07:51.999Z</time></trkpt><trkpt lat="45.56051421413922" lon="10.46494676329806"><ele>280.28571428571433</ele><time>2026-04-29T14:07:54.999Z</time></trkpt><trkpt lat="45.56052735031194" lon="10.4648548489181"><ele>281.0</ele><time>2026-04-29T14:07:57.999Z</time></trkpt><trkpt lat="45.56047247296301" lon="10.46479904728855"><ele>281.00000000000006</ele><time>2026-04-29T14:08:00.999Z</time></trkpt><trkpt lat="45.560424352945994" lon="10.464736781970917"><ele>281.0</ele><time>2026-04-29T14:08:02.999Z</time></trkpt><trkpt lat="45.560370246308075" lon="10.464681693287812"><ele>281.0</ele><time>2026-04-29T14:08:04.999Z</time></trkpt><trkpt lat="45.56029580043412" lon="10.464623578141227"><ele>281.0</ele><time>2026-04-29T14:08:06.999Z</time></trkpt><trkpt lat="45.56023305086899" lon="10.464571855524133"><ele>281.0</ele><time>2026-04-29T14:08:07.999Z</time></trkpt><trkpt lat="45.56019852375941" lon="10.464476488327373"><ele>281.00000000000006</ele><time>2026-04-29T14:08:08.999Z</time></trkpt><trkpt lat="45.560153260603236" lon="10.464401019278078"><ele>281.0</ele><time>2026-04-29T14:08:09.999Z</time></trkpt><trkpt lat="45.56014204470623" lon="10.464299081051623"><ele>281.00000000000006</ele><time>2026-04-29T14:08:10.999Z</time></trkpt><trkpt lat="45.56017029497381" lon="10.46421731869161"><ele>281.0</ele><time>2026-04-29T14:08:11.999Z</time></trkpt><trkpt lat="45.56013488847448" lon="10.464304409415526"><ele>281.0</ele><time>2026-04-29T14:09:11Z</time></trkpt><trkpt lat="45.56013364398949" lon="10.464407739804095"><ele>281.0</ele><time>2026-04-29T14:09:13Z</time></trkpt><trkpt lat="45.56016138073222" lon="10.464500174221833"><ele>281.0</ele><time>2026-04-29T14:09:15Z</time></trkpt><trkpt lat="45.56021369752006" lon="10.46455657665033"><ele>281.00000000000006</ele><time>2026-04-29T14:09:17Z</time></trkpt><trkpt lat="45.560270532301054" lon="10.464603950201592"><ele>281.0</ele><time>2026-04-29T14:09:19Z</time></trkpt><trkpt lat="45.56032465382292" lon="10.46465280813541"><ele>281.0</ele><time>2026-04-29T14:09:21Z</time></trkpt><trkpt lat="45.56039973258934" lon="10.464723163834877"><ele>281.0</ele><time>2026-04-29T14:09:23.999Z</time></trkpt><trkpt lat="45.56047840810185" lon="10.464788285016057"><ele>281.0</ele><time>2026-04-29T14:09:26.999Z</time></trkpt><trkpt lat="45.560531508624585" lon="10.464914669510037"><ele>281.0</ele><time>2026-04-29T14:09:29.999Z</time></trkpt><trkpt lat="45.56047054923703" lon="10.465025127760562"><ele>281.0</ele><time>2026-04-29T14:09:32.999Z</time></trkpt><trkpt lat="45.560412529252105" lon="10.465137564311094"><ele>281.0</ele><time>2026-04-29T14:09:34.999Z</time></trkpt><trkpt lat="45.560363584997305" lon="10.465240186366614"><ele>281.0</ele><time>2026-04-29T14:09:36.999Z</time></trkpt><trkpt lat="45.56031306586847" lon="10.46540937681577"><ele>281.0</ele><time>2026-04-29T14:09:38.999Z</time></trkpt><trkpt lat="45.560303783310886" lon="10.465509672566737"><ele>281.0</ele><time>2026-04-29T14:09:39.999Z</time></trkpt><trkpt lat="45.56029768255227" lon="10.465612953647376"><ele>281.0</ele><time>2026-04-29T14:09:40.999Z</time></trkpt><trkpt lat="45.56031096653165" lon="10.465719877395328"><ele>281.0</ele><time>2026-04-29T14:09:41.999Z</time></trkpt><trkpt lat="45.56037521705994" lon="10.465808852895815"><ele>280.83333333333337</ele><time>2026-04-29T14:09:42.999Z</time></trkpt><trkpt lat="45.56043824842825" lon="10.465889674227718"><ele>280.6666666666667</ele><time>2026-04-29T14:09:43.999Z</time></trkpt><trkpt lat="45.560500078006015" lon="10.46594692773536"><ele>280.5</ele><time>2026-04-29T14:09:44.999Z</time></trkpt><trkpt lat="45.56056508829775" lon="10.466010234573554"><ele>280.3333333333333</ele><time>2026-04-29T14:09:45.999Z</time></trkpt><trkpt lat="45.56061367643993" lon="10.466071354229497"><ele>280.16666666666663</ele><time>2026-04-29T14:09:47.999Z</time></trkpt><trkpt lat="45.56058225629776" lon="10.46619127805684"><ele>280.0</ele><time>2026-04-29T14:09:48.999Z</time></trkpt><trkpt lat="45.560568855363016" lon="10.466310389079766"><ele>280.0</ele><time>2026-04-29T14:09:50.999Z</time></trkpt><trkpt lat="45.560578596091176" lon="10.466435633914152"><ele>280.0</ele><time>2026-04-29T14:09:52.999Z</time></trkpt><trkpt lat="45.560587205821044" lon="10.4665643319275"><ele>280.0</ele><time>2026-04-29T14:09:54.999Z</time></trkpt><trkpt lat="45.56060228366423" lon="10.466689477912118"><ele>280.0</ele><time>2026-04-29T14:09:56.999Z</time></trkpt><trkpt lat="45.560609253586534" lon="10.466813518220249"><ele>280.0</ele><time>2026-04-29T14:09:58.999Z</time></trkpt><trkpt lat="45.56061571495058" lon="10.466942177606649"><ele>280.0</ele><time>2026-04-29T14:10:00.999Z</time></trkpt><trkpt lat="45.56061606739887" lon="10.467074890666584"><ele>280.4</ele><time>2026-04-29T14:10:02.999Z</time></trkpt><trkpt lat="45.56061868031582" lon="10.467223213530804"><ele>280.8</ele><time>2026-04-29T14:10:04.999Z</time></trkpt><trkpt lat="45.560628494089606" lon="10.46737228087949"><ele>281.2</ele><time>2026-04-29T14:10:06.999Z</time></trkpt><trkpt lat="45.56064289860168" lon="10.467519110728663"><ele>281.6</ele><time>2026-04-29T14:10:08.999Z</time></trkpt><trkpt lat="45.56066332794515" lon="10.46766936578368"><ele>282.0</ele><time>2026-04-29T14:10:10.999Z</time></trkpt><trkpt lat="45.56067939127845" lon="10.467827976612742"><ele>281.4</ele><time>2026-04-29T14:10:12.999Z</time></trkpt><trkpt lat="45.56068615389965" lon="10.46797599641347"><ele>280.79999999999995</ele><time>2026-04-29T14:10:14.999Z</time></trkpt><trkpt lat="45.560695198532464" lon="10.468123333421298"><ele>280.2</ele><time>2026-04-29T14:10:16.999Z</time></trkpt><trkpt lat="45.560672711047765" lon="10.46828071081575"><ele>279.59999999999997</ele><time>2026-04-29T14:10:18.999Z</time></trkpt><trkpt lat="45.56064004928853" lon="10.468415146439618"><ele>279.0</ele><time>2026-04-29T14:10:20.999Z</time></trkpt><trkpt lat="45.560590510581" lon="10.468539694367635"><ele>279.0</ele><time>2026-04-29T14:10:22.999Z</time></trkpt><trkpt lat="45.5605262779806" lon="10.468651238055457"><ele>279.0</ele><time>2026-04-29T14:10:24.999Z</time></trkpt><trkpt lat="45.560459277165585" lon="10.468757191481394"><ele>279.0</ele><time>2026-04-29T14:10:26.999Z</time></trkpt><trkpt lat="45.56039056379027" lon="10.46886213367192"><ele>279.0</ele><time>2026-04-29T14:10:29Z</time></trkpt><trkpt lat="45.5603173897953" lon="10.468960053065633"><ele>279.0</ele><time>2026-04-29T14:10:31Z</time></trkpt><trkpt lat="45.56024924864915" lon="10.469072301601875"><ele>279.2</ele><time>2026-04-29T14:10:33Z</time></trkpt><trkpt lat="45.560187642084465" lon="10.469173423400465"><ele>279.4</ele><time>2026-04-29T14:10:35Z</time></trkpt><trkpt lat="45.560119962936334" lon="10.469266802227683"><ele>279.6</ele><time>2026-04-29T14:10:37Z</time></trkpt><trkpt lat="45.56005152377693" lon="10.469365434474762"><ele>279.8</ele><time>2026-04-29T14:10:39Z</time></trkpt><trkpt lat="45.55995530572521" lon="10.469524025939903"><ele>280.0</ele><time>2026-04-29T14:10:42Z</time></trkpt><trkpt lat="45.55989445385025" lon="10.469622311823043"><ele>280.0</ele><time>2026-04-29T14:10:44Z</time></trkpt><trkpt lat="45.55982852733009" lon="10.469717432258335"><ele>280.0</ele><time>2026-04-29T14:10:46Z</time></trkpt><trkpt lat="45.55976400610057" lon="10.469807103376278"><ele>280.0</ele><time>2026-04-29T14:10:48Z</time></trkpt><trkpt lat="45.55970516584799" lon="10.46990724504505"><ele>280.0</ele><time>2026-04-29T14:10:50Z</time></trkpt><trkpt lat="45.55963853566818" lon="10.469993630868201"><ele>280.0</ele><time>2026-04-29T14:10:52Z</time></trkpt><trkpt lat="45.559565540509304" lon="10.470072475859213"><ele>280.5</ele><time>2026-04-29T14:10:53.999Z</time></trkpt><trkpt lat="45.55948850040421" lon="10.470140405230245"><ele>281.0</ele><time>2026-04-29T14:10:55.999Z</time></trkpt><trkpt lat="45.55940736941616" lon="10.470186115895746"><ele>281.5</ele><time>2026-04-29T14:10:57.999Z</time></trkpt><trkpt lat="45.55932282828926" lon="10.47023423248659"><ele>282.0</ele><time>2026-04-29T14:10:59.999Z</time></trkpt><trkpt lat="45.55924171862446" lon="10.470248844873916"><ele>282.5</ele><time>2026-04-29T14:11:01.999Z</time></trkpt><trkpt lat="45.559156942138884" lon="10.470271223067833"><ele>283.0</ele><time>2026-04-29T14:11:03.999Z</time></trkpt><trkpt lat="45.559064486494925" lon="10.470306367870235"><ele>283.0</ele><time>2026-04-29T14:11:05.999Z</time></trkpt><trkpt lat="45.55897535439072" lon="10.470323747902235"><ele>283.0</ele><time>2026-04-29T14:11:07.999Z</time></trkpt><trkpt lat="45.55888248630659" lon="10.47034304296599"><ele>283.0</ele><time>2026-04-29T14:11:09.999Z</time></trkpt><trkpt lat="45.55878615459283" lon="10.470345529990103"><ele>283.0</ele><time>2026-04-29T14:11:11.999Z</time></trkpt><trkpt lat="45.558699003475986" lon="10.470377232426237"><ele>283.0</ele><time>2026-04-29T14:11:13.999Z</time></trkpt><trkpt lat="45.55861219687999" lon="10.470422328472857"><ele>283.0</ele><time>2026-04-29T14:11:15.999Z</time></trkpt><trkpt lat="45.55851714623692" lon="10.47045444269024"><ele>283.0</ele><time>2026-04-29T14:11:17.999Z</time></trkpt><trkpt lat="45.558421908369965" lon="10.470442928927563"><ele>283.0</ele><time>2026-04-29T14:11:19.999Z</time></trkpt><trkpt lat="45.558323135871504" lon="10.470406137917678"><ele>283.0</ele><time>2026-04-29T14:11:21.999Z</time></trkpt><trkpt lat="45.558263190696316" lon="10.47030269612914"><ele>283.0</ele><time>2026-04-29T14:11:23.999Z</time></trkpt><trkpt lat="45.55814789029711" lon="10.470293324328859"><ele>282.8</ele><time>2026-04-29T14:11:25.999Z</time></trkpt><trkpt lat="45.558079727437395" lon="10.470282111478861"><ele>282.6</ele><time>2026-04-29T14:11:26.999Z</time></trkpt><trkpt lat="45.557957625503235" lon="10.470251577517903"><ele>282.4</ele><time>2026-04-29T14:11:28.999Z</time></trkpt><trkpt lat="45.55789166858484" lon="10.47023956344038"><ele>282.2</ele><time>2026-04-29T14:11:29.999Z</time></trkpt><trkpt lat="45.55776678864622" lon="10.47020852937993"><ele>282.0</ele><time>2026-04-29T14:11:31.999Z</time></trkpt><trkpt lat="45.557703718776" lon="10.470193682316085"><ele>282.0</ele><time>2026-04-29T14:11:32.999Z</time></trkpt><trkpt lat="45.557578507286216" lon="10.470168241070333"><ele>282.0</ele><time>2026-04-29T14:11:34.999Z</time></trkpt><trkpt lat="45.55751393013359" lon="10.470160447087263"><ele>282.0</ele><time>2026-04-29T14:11:35.999Z</time></trkpt><trkpt lat="45.55739079784167" lon="10.470139384200891"><ele>282.0</ele><time>2026-04-29T14:11:37.999Z</time></trkpt><trkpt lat="45.5572777645874" lon="10.470109656287503"><ele>282.0</ele><time>2026-04-29T14:11:39.999Z</time></trkpt><trkpt lat="45.55717664035717" lon="10.470098207261497"><ele>282.0</ele><time>2026-04-29T14:11:41.999Z</time></trkpt><trkpt lat="45.557106300397926" lon="10.470090869028805"><ele>282.0</ele><time>2026-04-29T14:11:45.999Z</time></trkpt><trkpt lat="45.55705020431976" lon="10.470137894961795"><ele>282.0</ele><time>2026-04-29T14:11:48.999Z</time></trkpt><trkpt lat="45.55698578853835" lon="10.470093997646737"><ele>282.0</ele><time>2026-04-29T14:11:53.999Z</time></trkpt><trkpt lat="45.5569396603741" lon="10.470242224469727"><ele>282.0</ele><time>2026-04-29T14:11:56.999Z</time></trkpt><trkpt lat="45.556880385216466" lon="10.470302716168659"><ele>282.0</ele><time>2026-04-29T14:12:03.999Z</time></trkpt><trkpt lat="45.556828976938746" lon="10.470374363150146"><ele>282.0</ele><time>2026-04-29T14:12:06.999Z</time></trkpt><trkpt lat="45.556759960911414" lon="10.470442748033676"><ele>282.0</ele><time>2026-04-29T14:12:08.999Z</time></trkpt><trkpt lat="45.55667842004511" lon="10.470516125765698"><ele>282.0</ele><time>2026-04-29T14:12:10.999Z</time></trkpt><trkpt lat="45.55657803308898" lon="10.470613863417757"><ele>282.0</ele><time>2026-04-29T14:12:12.999Z</time></trkpt><trkpt lat="45.556521445905695" lon="10.470667577008644"><ele>282.0</ele><time>2026-04-29T14:12:13.999Z</time></trkpt><trkpt lat="45.55645881969617" lon="10.470718786584163"><ele>282.0</ele><time>2026-04-29T14:12:14.999Z</time></trkpt><trkpt lat="45.55640308417297" lon="10.470778875988524"><ele>282.0</ele><time>2026-04-29T14:12:15.999Z</time></trkpt><trkpt lat="45.55634963758536" lon="10.470846034098479"><ele>282.0</ele><time>2026-04-29T14:12:16.999Z</time></trkpt><trkpt lat="45.55629666801398" lon="10.47090586632758"><ele>282.0</ele><time>2026-04-29T14:12:17.999Z</time></trkpt><trkpt lat="45.556242420696435" lon="10.470966218441415"><ele>282.0</ele><time>2026-04-29T14:12:18.999Z</time></trkpt><trkpt lat="45.556193853391584" lon="10.47102950424545"><ele>282.0</ele><time>2026-04-29T14:12:19.999Z</time></trkpt><trkpt lat="45.55610636588694" lon="10.471151458724577"><ele>282.0</ele><time>2026-04-29T14:12:21.999Z</time></trkpt><trkpt lat="45.55601623028861" lon="10.471247244576485"><ele>281.5</ele><time>2026-04-29T14:12:23.999Z</time></trkpt><trkpt lat="45.55594748772837" lon="10.471341928987233"><ele>281.0</ele><time>2026-04-29T14:12:25.999Z</time></trkpt><trkpt lat="45.55587472816607" lon="10.471252428874385"><ele>280.5</ele><time>2026-04-29T14:12:28.999Z</time></trkpt><trkpt lat="45.55581304239083" lon="10.471174410851178"><ele>280.0</ele><time>2026-04-29T14:12:30.999Z</time></trkpt><trkpt lat="45.555774669059716" lon="10.471098573041333"><ele>279.5</ele><time>2026-04-29T14:12:33.999Z</time></trkpt><trkpt lat="45.55573565613648" lon="10.470997893910301"><ele>279.0</ele><time>2026-04-29T14:12:39.999Z</time></trkpt><trkpt lat="45.55565624700694" lon="10.470912147913621"><ele>279.0</ele><time>2026-04-29T14:12:42.999Z</time></trkpt><trkpt lat="45.555612032534796" lon="10.470808339568887"><ele>279.0</ele><time>2026-04-29T14:12:45Z</time></trkpt><trkpt lat="45.55556181296664" lon="10.470701227929922"><ele>279.0</ele><time>2026-04-29T14:12:47Z</time></trkpt><trkpt lat="45.555503507329334" lon="10.470560371524586"><ele>279.0</ele><time>2026-04-29T14:12:48.999Z</time></trkpt><trkpt lat="45.55543801440351" lon="10.470418872998406"><ele>279.0</ele><time>2026-04-29T14:12:50.999Z</time></trkpt><trkpt lat="45.55539658838265" lon="10.470330364022555"><ele>278.3333333333333</ele><time>2026-04-29T14:12:51.999Z</time></trkpt><trkpt lat="45.55534996734171" lon="10.470252288116475"><ele>277.6666666666667</ele><time>2026-04-29T14:12:52.999Z</time></trkpt><trkpt lat="45.555306553183264" lon="10.470168006525181"><ele>277.0</ele><time>2026-04-29T14:12:53.999Z</time></trkpt><trkpt lat="45.55525681609391" lon="10.470077938033002"><ele>276.33333333333337</ele><time>2026-04-29T14:12:54.999Z</time></trkpt><trkpt lat="45.55520124759268" lon="10.46998883877557"><ele>275.6666666666667</ele><time>2026-04-29T14:12:55.999Z</time></trkpt><trkpt lat="45.555144197224976" lon="10.469905642247438"><ele>275.0</ele><time>2026-04-29T14:12:56.999Z</time></trkpt><trkpt lat="45.555086918808286" lon="10.469820895765782"><ele>275.0</ele><time>2026-04-29T14:12:57.999Z</time></trkpt><trkpt lat="45.555030549118015" lon="10.469733155265969"><ele>275.0</ele><time>2026-04-29T14:12:58.999Z</time></trkpt><trkpt lat="45.55498947656003" lon="10.469623861874595"><ele>275.0</ele><time>2026-04-29T14:12:59.999Z</time></trkpt><trkpt lat="45.55493639205127" lon="10.469524259744055"><ele>275.0</ele><time>2026-04-29T14:13:00.999Z</time></trkpt><trkpt lat="45.55488615131618" lon="10.469426296748031"><ele>275.0</ele><time>2026-04-29T14:13:01.999Z</time></trkpt><trkpt lat="45.55483463854963" lon="10.469322766500706"><ele>275.0</ele><time>2026-04-29T14:13:02.999Z</time></trkpt><trkpt lat="45.554787756844185" lon="10.469215265657699"><ele>274.4</ele><time>2026-04-29T14:13:03.999Z</time></trkpt><trkpt lat="45.55473851178012" lon="10.469107915381764"><ele>273.8</ele><time>2026-04-29T14:13:04.999Z</time></trkpt><trkpt lat="45.554720766978804" lon="10.468977786652635"><ele>273.2</ele><time>2026-04-29T14:13:05.999Z</time></trkpt><trkpt lat="45.554726718852294" lon="10.468844946159734"><ele>272.6</ele><time>2026-04-29T14:13:06.999Z</time></trkpt><trkpt lat="45.55470561312738" lon="10.468719232381334"><ele>272.0</ele><time>2026-04-29T14:13:07.999Z</time></trkpt><trkpt lat="45.554672941116905" lon="10.468605174879931"><ele>271.6</ele><time>2026-04-29T14:13:08.999Z</time></trkpt><trkpt lat="45.554655024178686" lon="10.468499818824414"><ele>271.2</ele><time>2026-04-29T14:13:09.999Z</time></trkpt><trkpt lat="45.55464659841253" lon="10.46835472579832"><ele>270.8</ele><time>2026-04-29T14:13:11.999Z</time></trkpt><trkpt lat="45.554653857723906" lon="10.468253251884457"><ele>270.4</ele><time>2026-04-29T14:13:13.999Z</time></trkpt><trkpt lat="45.5545059703499" lon="10.468154469697524"><ele>270.0</ele><time>2026-04-29T14:13:15.999Z</time></trkpt><trkpt lat="45.554429998742805" lon="10.468131282575742"><ele>269.1666666666667</ele><time>2026-04-29T14:13:16.999Z</time></trkpt><trkpt lat="45.554353466314076" lon="10.468095636881413"><ele>268.3333333333333</ele><time>2026-04-29T14:13:17.999Z</time></trkpt><trkpt lat="45.55427857511128" lon="10.468029881242428"><ele>267.5</ele><time>2026-04-29T14:13:18.999Z</time></trkpt><trkpt lat="45.55419838499594" lon="10.467982358972444"><ele>266.66666666666663</ele><time>2026-04-29T14:13:19.999Z</time></trkpt><trkpt lat="45.55411734483701" lon="10.46795258201549"><ele>265.8333333333333</ele><time>2026-04-29T14:13:20.999Z</time></trkpt><trkpt lat="45.55402797174299" lon="10.467928794004974"><ele>265.0</ele><time>2026-04-29T14:13:21.999Z</time></trkpt><trkpt lat="45.55393558635469" lon="10.467900500205394"><ele>265.0</ele><time>2026-04-29T14:13:22.999Z</time></trkpt><trkpt lat="45.55384142900035" lon="10.467871490160329"><ele>265.0</ele><time>2026-04-29T14:13:23.999Z</time></trkpt><trkpt lat="45.55374152086427" lon="10.4678501876481"><ele>265.0</ele><time>2026-04-29T14:13:24.999Z</time></trkpt><trkpt lat="45.55364044686326" lon="10.467835936433854"><ele>265.0</ele><time>2026-04-29T14:13:25.999Z</time></trkpt><trkpt lat="45.55354741482682" lon="10.46783587812159"><ele>265.0</ele><time>2026-04-29T14:13:26.999Z</time></trkpt><trkpt lat="45.553466551450114" lon="10.467835544159334"><ele>263.66666666666663</ele><time>2026-04-29T14:13:27.999Z</time></trkpt><trkpt lat="45.55339244510714" lon="10.467837202708754"><ele>262.3333333333333</ele><time>2026-04-29T14:13:28.999Z</time></trkpt><trkpt lat="45.55331156399327" lon="10.467831354876012"><ele>261.0</ele><time>2026-04-29T14:13:30.999Z</time></trkpt><trkpt lat="45.55324523918371" lon="10.467818931984677"><ele>259.6666666666667</ele><time>2026-04-29T14:13:32.999Z</time></trkpt><trkpt lat="45.55317266588524" lon="10.467840027296997"><ele>258.33333333333337</ele><time>2026-04-29T14:13:34.999Z</time></trkpt><trkpt lat="45.55309669660412" lon="10.467863407179758"><ele>257.0</ele><time>2026-04-29T14:13:36.999Z</time></trkpt><trkpt lat="45.55296892111466" lon="10.467869754483047"><ele>257.0</ele><time>2026-04-29T14:13:38.999Z</time></trkpt><trkpt lat="45.55288999762211" lon="10.467856016235606"><ele>257.0</ele><time>2026-04-29T14:13:39.999Z</time></trkpt><trkpt lat="45.55281691801992" lon="10.467864062874321"><ele>257.0</ele><time>2026-04-29T14:13:40.999Z</time></trkpt><trkpt lat="45.55274361369664" lon="10.467869453797215"><ele>257.0</ele><time>2026-04-29T14:13:41.999Z</time></trkpt><trkpt lat="45.55266824004979" lon="10.467872475732817"><ele>257.0</ele><time>2026-04-29T14:13:42.999Z</time></trkpt><trkpt lat="45.55259397363088" lon="10.467875850476942"><ele>257.0</ele><time>2026-04-29T14:13:43.999Z</time></trkpt><trkpt lat="45.55251925717551" lon="10.467877156484498"><ele>257.0</ele><time>2026-04-29T14:13:44.999Z</time></trkpt><trkpt lat="45.552449485508035" lon="10.467865433712683"><ele>257.0</ele><time>2026-04-29T14:13:45.999Z</time></trkpt><trkpt lat="45.55237713282911" lon="10.46790007835521"><ele>257.0</ele><time>2026-04-29T14:13:46.999Z</time></trkpt><trkpt lat="45.55230637002945" lon="10.467906542072619"><ele>257.0</ele><time>2026-04-29T14:13:47.999Z</time></trkpt><trkpt lat="45.552235266163244" lon="10.467902682657177"><ele>257.0</ele><time>2026-04-29T14:13:48.999Z</time></trkpt><trkpt lat="45.552164223595916" lon="10.467898798687562"><ele>257.0</ele><time>2026-04-29T14:13:49.999Z</time></trkpt><trkpt lat="45.55209324340914" lon="10.467899155667055"><ele>257.0</ele><time>2026-04-29T14:13:50.999Z</time></trkpt><trkpt lat="45.552021618703456" lon="10.467903556963195"><ele>257.0</ele><time>2026-04-29T14:13:51.999Z</time></trkpt><trkpt lat="45.55195152690305" lon="10.467908607983613"><ele>257.0</ele><time>2026-04-29T14:13:52.999Z</time></trkpt><trkpt lat="45.551879608721976" lon="10.467907840234286"><ele>257.0</ele><time>2026-04-29T14:13:53.999Z</time></trkpt><trkpt lat="45.551814045211664" lon="10.46789867728002"><ele>257.0</ele><time>2026-04-29T14:13:54.999Z</time></trkpt><trkpt lat="45.55174138627317" lon="10.467890218288973"><ele>257.0</ele><time>2026-04-29T14:13:55.999Z</time></trkpt><trkpt lat="45.551669519897" lon="10.46787046481838"><ele>257.0</ele><time>2026-04-29T14:13:56.999Z</time></trkpt><trkpt lat="45.55160537213901" lon="10.467846983160015"><ele>257.0</ele><time>2026-04-29T14:13:57.999Z</time></trkpt><trkpt lat="45.5515393981893" lon="10.467829599796163"><ele>257.0</ele><time>2026-04-29T14:13:58.999Z</time></trkpt><trkpt lat="45.551475940199595" lon="10.46780055833549"><ele>257.0</ele><time>2026-04-29T14:13:59.999Z</time></trkpt><trkpt lat="45.5514165223194" lon="10.467765509480262"><ele>257.0</ele><time>2026-04-29T14:14:00.999Z</time></trkpt><trkpt lat="45.551358110583344" lon="10.467728905715129"><ele>257.0</ele><time>2026-04-29T14:14:01.999Z</time></trkpt><trkpt lat="45.55124501485352" lon="10.467653702959812"><ele>257.0</ele><time>2026-04-29T14:14:03.999Z</time></trkpt><trkpt lat="45.551149701854555" lon="10.467552825961985"><ele>257.0</ele><time>2026-04-29T14:14:05.999Z</time></trkpt><trkpt lat="45.551045146327006" lon="10.46747729522642"><ele>257.8</ele><time>2026-04-29T14:14:07.999Z</time></trkpt><trkpt lat="45.5509553574814" lon="10.467390245407165"><ele>258.6</ele><time>2026-04-29T14:14:09.999Z</time></trkpt><trkpt lat="45.550869483731674" lon="10.467285184791617"><ele>259.40000000000003</ele><time>2026-04-29T14:14:11.999Z</time></trkpt><trkpt lat="45.55078125452766" lon="10.467183543964175"><ele>260.2</ele><time>2026-04-29T14:14:13.999Z</time></trkpt><trkpt lat="45.55069011065128" lon="10.467084705597937"><ele>261.0</ele><time>2026-04-29T14:14:15.999Z</time></trkpt><trkpt lat="45.5505992234076" lon="10.46698226127388"><ele>261.0</ele><time>2026-04-29T14:14:17.999Z</time></trkpt><trkpt lat="45.550504892003396" lon="10.466894662779586"><ele>261.0</ele><time>2026-04-29T14:14:19.999Z</time></trkpt><trkpt lat="45.55040276993042" lon="10.466828775445968"><ele>261.0</ele><time>2026-04-29T14:14:21.999Z</time></trkpt><trkpt lat="45.55028661843127" lon="10.466818611507314"><ele>261.0</ele><time>2026-04-29T14:14:23.999Z</time></trkpt><trkpt lat="45.55018933101458" lon="10.46691267133179"><ele>262.0</ele><time>2026-04-29T14:14:25.999Z</time></trkpt><trkpt lat="45.55012605428349" lon="10.467053907101526"><ele>263.0</ele><time>2026-04-29T14:14:27.999Z</time></trkpt><trkpt lat="45.55007299375018" lon="10.467188638857932"><ele>264.0</ele><time>2026-04-29T14:14:29.999Z</time></trkpt><trkpt lat="45.55001370846757" lon="10.467304763656866"><ele>265.0</ele><time>2026-04-29T14:14:31.999Z</time></trkpt><trkpt lat="45.54994595569276" lon="10.46741533558189"><ele>266.0</ele><time>2026-04-29T14:14:33.999Z</time></trkpt><trkpt lat="45.549870580933224" lon="10.467522771554014"><ele>266.2</ele><time>2026-04-29T14:14:35.999Z</time></trkpt><trkpt lat="45.549801517632694" lon="10.467611159102885"><ele>266.40000000000003</ele><time>2026-04-29T14:14:37.999Z</time></trkpt><trkpt lat="45.5497306648815" lon="10.46769362285806"><ele>266.6</ele><time>2026-04-29T14:14:39.999Z</time></trkpt><trkpt lat="45.54966385056466" lon="10.467779409652039"><ele>266.8</ele><time>2026-04-29T14:14:42Z</time></trkpt><trkpt lat="45.549583187235555" lon="10.467850814855876"><ele>267.0</ele><time>2026-04-29T14:14:44Z</time></trkpt><trkpt lat="45.549470360249686" lon="10.467898241668804"><ele>267.25</ele><time>2026-04-29T14:14:46Z</time></trkpt><trkpt lat="45.54939311620788" lon="10.468054026471258"><ele>267.5</ele><time>2026-04-29T14:14:48Z</time></trkpt><trkpt lat="45.549312777187204" lon="10.46816664186341"><ele>267.75</ele><time>2026-04-29T14:14:50Z</time></trkpt><trkpt lat="45.549226170819246" lon="10.468277787582045"><ele>268.0</ele><time>2026-04-29T14:14:52Z</time></trkpt><trkpt lat="45.549119810392696" lon="10.468368060007613"><ele>268.0</ele><time>2026-04-29T14:14:54Z</time></trkpt><trkpt lat="45.54905898281591" lon="10.468409884686276"><ele>268.0</ele><time>2026-04-29T14:14:55Z</time></trkpt><trkpt lat="45.54899639542133" lon="10.468454661711377"><ele>268.0</ele><time>2026-04-29T14:14:56Z</time></trkpt><trkpt lat="45.54893358768132" lon="10.468499055885543"><ele>268.0</ele><time>2026-04-29T14:14:57Z</time></trkpt><trkpt lat="45.548867345463904" lon="10.46854861914559"><ele>268.0</ele><time>2026-04-29T14:14:58Z</time></trkpt><trkpt lat="45.548803627296856" lon="10.46858777650248"><ele>268.0</ele><time>2026-04-29T14:14:59Z</time></trkpt><trkpt lat="45.54874753774884" lon="10.468649109501767"><ele>268.0</ele><time>2026-04-29T14:15:00Z</time></trkpt><trkpt lat="45.54870388485543" lon="10.468730984990454"><ele>267.8571428571429</ele><time>2026-04-29T14:15:01Z</time></trkpt><trkpt lat="45.548690197340235" lon="10.468830273006189"><ele>267.7142857142857</ele><time>2026-04-29T14:15:02Z</time></trkpt><trkpt lat="45.548654151588494" lon="10.468915735054066"><ele>267.57142857142856</ele><time>2026-04-29T14:15:03Z</time></trkpt><trkpt lat="45.54864347463698" lon="10.46900897731734"><ele>267.42857142857144</ele><time>2026-04-29T14:15:04Z</time></trkpt><trkpt lat="45.54862849863107" lon="10.469098941688708"><ele>267.2857142857143</ele><time>2026-04-29T14:15:05Z</time></trkpt><trkpt lat="45.54860851188377" lon="10.46918779298347"><ele>267.14285714285717</ele><time>2026-04-29T14:15:06Z</time></trkpt><trkpt lat="45.548589659973615" lon="10.469278799364707"><ele>267.0</ele><time>2026-04-29T14:15:07Z</time></trkpt><trkpt lat="45.548569263349044" lon="10.46936884917676"><ele>267.0</ele><time>2026-04-29T14:15:08Z</time></trkpt><trkpt lat="45.548547868276174" lon="10.469462154987601"><ele>267.0</ele><time>2026-04-29T14:15:09Z</time></trkpt><trkpt lat="45.54852820422174" lon="10.469559837349479"><ele>267.0</ele><time>2026-04-29T14:15:10Z</time></trkpt><trkpt lat="45.5485084103338" lon="10.469652750065547"><ele>267.0</ele><time>2026-04-29T14:15:11Z</time></trkpt><trkpt lat="45.54845786683032" lon="10.469810813048786"><ele>267.0</ele><time>2026-04-29T14:15:13Z</time></trkpt><trkpt lat="45.5483987516979" lon="10.469938492897214"><ele>267.0</ele><time>2026-04-29T14:15:15Z</time></trkpt><trkpt lat="45.5483426506098" lon="10.470071173002088"><ele>267.5</ele><time>2026-04-29T14:15:17Z</time></trkpt><trkpt lat="45.54827540919191" lon="10.470201771983852"><ele>268.0</ele><time>2026-04-29T14:15:19Z</time></trkpt><trkpt lat="45.54820557426217" lon="10.470347383131632"><ele>268.5</ele><time>2026-04-29T14:15:21Z</time></trkpt><trkpt lat="45.5481449466072" lon="10.47048397192731"><ele>269.0</ele><time>2026-04-29T14:15:22.999Z</time></trkpt><trkpt lat="45.54808751784305" lon="10.470631559254933"><ele>269.25</ele><time>2026-04-29T14:15:24.999Z</time></trkpt><trkpt lat="45.54802255438785" lon="10.470777511079328"><ele>269.5</ele><time>2026-04-29T14:15:26.999Z</time></trkpt><trkpt lat="45.54795706153417" lon="10.470913411694685"><ele>269.75</ele><time>2026-04-29T14:15:28.999Z</time></trkpt><trkpt lat="45.54790151097217" lon="10.47106040093912"><ele>270.0</ele><time>2026-04-29T14:15:30.999Z</time></trkpt><trkpt lat="45.54784648371595" lon="10.471208631623456"><ele>269.8</ele><time>2026-04-29T14:15:32.999Z</time></trkpt><trkpt lat="45.54779736565821" lon="10.471354631955217"><ele>269.6</ele><time>2026-04-29T14:15:34.999Z</time></trkpt><trkpt lat="45.54774258338646" lon="10.47149148870922"><ele>269.4</ele><time>2026-04-29T14:15:36.999Z</time></trkpt><trkpt lat="45.54768214827346" lon="10.471629528561325"><ele>269.2</ele><time>2026-04-29T14:15:38.999Z</time></trkpt><trkpt lat="45.547619961712506" lon="10.471761580444968"><ele>269.0</ele><time>2026-04-29T14:15:40.999Z</time></trkpt><trkpt lat="45.547549246486014" lon="10.471886859278174"><ele>269.0</ele><time>2026-04-29T14:15:42.999Z</time></trkpt><trkpt lat="45.547482346324216" lon="10.472006442925466"><ele>269.0</ele><time>2026-04-29T14:15:44.999Z</time></trkpt><trkpt lat="45.54740395893784" lon="10.472113664236726"><ele>269.0</ele><time>2026-04-29T14:15:46.999Z</time></trkpt><trkpt lat="45.547338909663274" lon="10.472208148205265"><ele>269.0</ele><time>2026-04-29T14:15:48.999Z</time></trkpt><trkpt lat="45.54727524970538" lon="10.472288908539143"><ele>269.0</ele><time>2026-04-29T14:15:50.999Z</time></trkpt><trkpt lat="45.54721431186301" lon="10.472346340518571"><ele>269.33333333333337</ele><time>2026-04-29T14:15:52.999Z</time></trkpt><trkpt lat="45.54714641992798" lon="10.472376544060841"><ele>269.6666666666667</ele><time>2026-04-29T14:15:54.999Z</time></trkpt><trkpt lat="45.547074752837176" lon="10.472367796322708"><ele>270.0</ele><time>2026-04-29T14:15:57.999Z</time></trkpt><trkpt lat="45.54700166619152" lon="10.472346082198863"><ele>270.3333333333333</ele><time>2026-04-29T14:16:00.999Z</time></trkpt><trkpt lat="45.54693557051106" lon="10.472399785650671"><ele>270.66666666666663</ele><time>2026-04-29T14:16:02.999Z</time></trkpt><trkpt lat="45.5468997971382" lon="10.472497313773852"><ele>271.0</ele><time>2026-04-29T14:16:05.999Z</time></trkpt><trkpt lat="45.546872367351476" lon="10.472615413950834"><ele>271.0</ele><time>2026-04-29T14:16:08.999Z</time></trkpt><trkpt lat="45.546837180321376" lon="10.472727720619865"><ele>271.0</ele><time>2026-04-29T14:16:11.999Z</time></trkpt><trkpt lat="45.546796823689625" lon="10.472831564094019"><ele>271.0</ele><time>2026-04-29T14:16:14.999Z</time></trkpt><trkpt lat="45.54674159948112" lon="10.472879148257979"><ele>271.0</ele><time>2026-04-29T14:16:16.999Z</time></trkpt><trkpt lat="45.54665135085983" lon="10.472960133580784"><ele>271.0</ele><time>2026-04-29T14:16:19.999Z</time></trkpt><trkpt lat="45.54659208421216" lon="10.473007965569282"><ele>271.0</ele><time>2026-04-29T14:16:24.999Z</time></trkpt><trkpt lat="45.54654016643596" lon="10.473093524549927"><ele>270.40000000000003</ele><time>2026-04-29T14:16:28.999Z</time></trkpt><trkpt lat="45.54641786739851" lon="10.473227056642855"><ele>269.8</ele><time>2026-04-29T14:16:30.999Z</time></trkpt><trkpt lat="45.54630233744837" lon="10.473305507243426"><ele>269.20000000000005</ele><time>2026-04-29T14:16:32.999Z</time></trkpt><trkpt lat="45.54624853330612" lon="10.473365469879974"><ele>268.6</ele><time>2026-04-29T14:16:33.999Z</time></trkpt><trkpt lat="45.54619182639296" lon="10.47342866756082"><ele>268.0</ele><time>2026-04-29T14:16:34.999Z</time></trkpt><trkpt lat="45.5461349065013" lon="10.473491220706881"><ele>268.0</ele><time>2026-04-29T14:16:35.999Z</time></trkpt><trkpt lat="45.54607831443349" lon="10.4735520367791"><ele>268.0</ele><time>2026-04-29T14:16:36.999Z</time></trkpt><trkpt lat="45.54601711436783" lon="10.473615448130024"><ele>268.0</ele><time>2026-04-29T14:16:37.999Z</time></trkpt><trkpt lat="45.54595469543328" lon="10.473677762363135"><ele>268.0</ele><time>2026-04-29T14:16:38.999Z</time></trkpt><trkpt lat="45.54588307123908" lon="10.473745109338667"><ele>268.0</ele><time>2026-04-29T14:16:39.999Z</time></trkpt><trkpt lat="45.54581123496194" lon="10.473809297466245"><ele>268.0</ele><time>2026-04-29T14:16:40.999Z</time></trkpt><trkpt lat="45.5457415273468" lon="10.473871583595416"><ele>268.2</ele><time>2026-04-29T14:16:41.999Z</time></trkpt><trkpt lat="45.54566933500964" lon="10.473936003309758"><ele>268.4</ele><time>2026-04-29T14:16:42.999Z</time></trkpt><trkpt lat="45.54559710044032" lon="10.47400014730161"><ele>268.59999999999997</ele><time>2026-04-29T14:16:43.999Z</time></trkpt><trkpt lat="45.54551112293408" lon="10.474076909434395"><ele>268.8</ele><time>2026-04-29T14:16:44.999Z</time></trkpt><trkpt lat="45.54543203212212" lon="10.474149841475278"><ele>269.0</ele><time>2026-04-29T14:16:45.999Z</time></trkpt><trkpt lat="45.545359347301805" lon="10.474216866108312"><ele>267.6666666666667</ele><time>2026-04-29T14:16:47Z</time></trkpt><trkpt lat="45.5452861012581" lon="10.474284408528712"><ele>266.33333333333337</ele><time>2026-04-29T14:16:48Z</time></trkpt><trkpt lat="45.545221306424" lon="10.474341778389876"><ele>265.0</ele><time>2026-04-29T14:16:49Z</time></trkpt><trkpt lat="45.545149791818794" lon="10.474401247006336"><ele>263.6666666666667</ele><time>2026-04-29T14:16:50Z</time></trkpt><trkpt lat="45.54507526341195" lon="10.474446765350786"><ele>262.3333333333333</ele><time>2026-04-29T14:16:51Z</time></trkpt><trkpt lat="45.54498843550745" lon="10.474489695997312"><ele>261.0</ele><time>2026-04-29T14:16:52Z</time></trkpt><trkpt lat="45.54491546547164" lon="10.474503884761075"><ele>261.0</ele><time>2026-04-29T14:16:53Z</time></trkpt><trkpt lat="45.54484098509395" lon="10.474494693175108"><ele>261.0</ele><time>2026-04-29T14:16:54Z</time></trkpt><trkpt lat="45.54475372598734" lon="10.474473546285397"><ele>261.0</ele><time>2026-04-29T14:16:55Z</time></trkpt><trkpt lat="45.54465349428185" lon="10.474442266280763"><ele>261.0</ele><time>2026-04-29T14:16:56Z</time></trkpt><trkpt lat="45.54454629301325" lon="10.474412849518648"><ele>261.0</ele><time>2026-04-29T14:16:57Z</time></trkpt><trkpt lat="45.544429143808294" lon="10.474402711312099"><ele>258.75</ele><time>2026-04-29T14:16:58Z</time></trkpt><trkpt lat="45.54431297593558" lon="10.474444190903451"><ele>256.5</ele><time>2026-04-29T14:16:59Z</time></trkpt><trkpt lat="45.54421739499567" lon="10.474525916523014"><ele>254.25</ele><time>2026-04-29T14:17:00Z</time></trkpt><trkpt lat="45.54414399441484" lon="10.474662647859239"><ele>252.0</ele><time>2026-04-29T14:17:01Z</time></trkpt><trkpt lat="45.544063879131016" lon="10.474813858002612"><ele>251.0</ele><time>2026-04-29T14:17:02Z</time></trkpt><trkpt lat="45.544034008759915" lon="10.474958327250242"><ele>250.0</ele><time>2026-04-29T14:17:03Z</time></trkpt><trkpt lat="45.54397724758654" lon="10.475078340265627"><ele>249.0</ele><time>2026-04-29T14:17:04Z</time></trkpt><trkpt lat="45.54393563011466" lon="10.47519992481095"><ele>248.0</ele><time>2026-04-29T14:17:05Z</time></trkpt><trkpt lat="45.54389174476758" lon="10.475322483337239"><ele>247.0</ele><time>2026-04-29T14:17:06Z</time></trkpt><trkpt lat="45.54384658203202" lon="10.475435571303077"><ele>246.83333333333331</ele><time>2026-04-29T14:17:07Z</time></trkpt><trkpt lat="45.54379889181234" lon="10.475545078614827"><ele>246.66666666666666</ele><time>2026-04-29T14:17:08Z</time></trkpt><trkpt lat="45.543749787809" lon="10.475650874831675"><ele>246.5</ele><time>2026-04-29T14:17:09Z</time></trkpt><trkpt lat="45.54370447126722" lon="10.47574283890801"><ele>246.33333333333331</ele><time>2026-04-29T14:17:10Z</time></trkpt><trkpt lat="45.543648499002934" lon="10.475829416680769"><ele>246.16666666666666</ele><time>2026-04-29T14:17:11Z</time></trkpt><trkpt lat="45.543590486385156" lon="10.47591148462788"><ele>246.0</ele><time>2026-04-29T14:17:12Z</time></trkpt><trkpt lat="45.54353406884408" lon="10.475993972091262"><ele>246.0</ele><time>2026-04-29T14:17:13Z</time></trkpt><trkpt lat="45.543478867199035" lon="10.476075679317653"><ele>246.0</ele><time>2026-04-29T14:17:14Z</time></trkpt><trkpt lat="45.54342279543282" lon="10.476157667032403"><ele>246.0</ele><time>2026-04-29T14:17:15Z</time></trkpt><trkpt lat="45.54336949736636" lon="10.476234908422793"><ele>246.0</ele><time>2026-04-29T14:17:16Z</time></trkpt><trkpt lat="45.543313723607696" lon="10.47629955927737"><ele>246.0</ele><time>2026-04-29T14:17:17Z</time></trkpt><trkpt lat="45.543260832630004" lon="10.476378397909981"><ele>246.0</ele><time>2026-04-29T14:17:18Z</time></trkpt><trkpt lat="45.543184693420116" lon="10.476400607944482"><ele>246.0</ele><time>2026-04-29T14:17:19Z</time></trkpt><trkpt lat="45.54311721734654" lon="10.476447379843956"><ele>246.0</ele><time>2026-04-29T14:17:20Z</time></trkpt><trkpt lat="45.54304885299057" lon="10.476491574956444"><ele>246.0</ele><time>2026-04-29T14:17:21Z</time></trkpt><trkpt lat="45.54297928708879" lon="10.476535141937058"><ele>246.0</ele><time>2026-04-29T14:17:22Z</time></trkpt><trkpt lat="45.54291084688681" lon="10.476576439104342"><ele>246.0</ele><time>2026-04-29T14:17:23Z</time></trkpt><trkpt lat="45.54284023635699" lon="10.476619046398195"><ele>246.0</ele><time>2026-04-29T14:17:24Z</time></trkpt><trkpt lat="45.54276890761039" lon="10.476656063298975"><ele>245.83333333333334</ele><time>2026-04-29T14:17:25Z</time></trkpt><trkpt lat="45.542703405158626" lon="10.476685733516526"><ele>245.66666666666669</ele><time>2026-04-29T14:17:26Z</time></trkpt><trkpt lat="45.54263277519411" lon="10.476711136159896"><ele>245.5</ele><time>2026-04-29T14:17:27Z</time></trkpt><trkpt lat="45.54255810872683" lon="10.476738104642813"><ele>245.33333333333334</ele><time>2026-04-29T14:17:28Z</time></trkpt><trkpt lat="45.5424884279402" lon="10.476791711534705"><ele>245.16666666666669</ele><time>2026-04-29T14:17:28.999Z</time></trkpt><trkpt lat="45.5424129891873" lon="10.47682257358371"><ele>245.0</ele><time>2026-04-29T14:17:29.999Z</time></trkpt><trkpt lat="45.542340259097294" lon="10.476859284492994"><ele>245.00000000000003</ele><time>2026-04-29T14:17:30.999Z</time></trkpt><trkpt lat="45.542268639427" lon="10.476897469150966"><ele>245.0</ele><time>2026-04-29T14:17:31.999Z</time></trkpt><trkpt lat="45.54219616245739" lon="10.476937105815095"><ele>245.0</ele><time>2026-04-29T14:17:32.999Z</time></trkpt><trkpt lat="45.542125366594775" lon="10.476978779336212"><ele>245.0</ele><time>2026-04-29T14:17:33.999Z</time></trkpt><trkpt lat="45.542049972419505" lon="10.477014971518967"><ele>245.00000000000003</ele><time>2026-04-29T14:17:34.999Z</time></trkpt><trkpt lat="45.54197699336922" lon="10.47704365648993"><ele>245.0</ele><time>2026-04-29T14:17:35.999Z</time></trkpt><trkpt lat="45.54190198218847" lon="10.477069257384699"><ele>245.0</ele><time>2026-04-29T14:17:36.999Z</time></trkpt><trkpt lat="45.541828489458176" lon="10.477063600250352"><ele>245.0</ele><time>2026-04-29T14:17:37.999Z</time></trkpt><trkpt lat="45.541757836931176" lon="10.477075726027863"><ele>245.0</ele><time>2026-04-29T14:17:38.999Z</time></trkpt><trkpt lat="45.54168828746673" lon="10.477083734511863"><ele>245.0</ele><time>2026-04-29T14:17:39.999Z</time></trkpt><trkpt lat="45.54161770054965" lon="10.47710739850591"><ele>245.0</ele><time>2026-04-29T14:17:40.999Z</time></trkpt><trkpt lat="45.54155071706007" lon="10.477094358256766"><ele>245.0</ele><time>2026-04-29T14:17:41.999Z</time></trkpt><trkpt lat="45.54148076570773" lon="10.47707453437432"><ele>245.0</ele><time>2026-04-29T14:17:42.999Z</time></trkpt><trkpt lat="45.541419756892736" lon="10.477029512106473"><ele>245.00000000000003</ele><time>2026-04-29T14:17:43.999Z</time></trkpt><trkpt lat="45.541354464283074" lon="10.477029968191822"><ele>245.0</ele><time>2026-04-29T14:17:44.999Z</time></trkpt><trkpt lat="45.54129658953544" lon="10.476985542361053"><ele>245.0</ele><time>2026-04-29T14:17:45.999Z</time></trkpt><trkpt lat="45.5411745696744" lon="10.476947596121262"><ele>245.0</ele><time>2026-04-29T14:17:47.999Z</time></trkpt><trkpt lat="45.541109159252024" lon="10.476955244154503"><ele>245.00000000000003</ele><time>2026-04-29T14:17:48.999Z</time></trkpt><trkpt lat="45.541045168378076" lon="10.47694135504363"><ele>245.0</ele><time>2026-04-29T14:17:49.999Z</time></trkpt><trkpt lat="45.540916557263316" lon="10.476927107822712"><ele>245.0</ele><time>2026-04-29T14:17:51.999Z</time></trkpt><trkpt lat="45.540850336229745" lon="10.47692328271598"><ele>245.0</ele><time>2026-04-29T14:17:52.999Z</time></trkpt><trkpt lat="45.540724749781226" lon="10.476908643051114"><ele>245.0</ele><time>2026-04-29T14:17:54.999Z</time></trkpt><trkpt lat="45.54060638954892" lon="10.476900129266882"><ele>245.0</ele><time>2026-04-29T14:17:56.999Z</time></trkpt><trkpt lat="45.54048200196115" lon="10.476895825875909"><ele>245.0</ele><time>2026-04-29T14:17:58.999Z</time></trkpt><trkpt lat="45.54035844930781" lon="10.476895772408229"><ele>245.0</ele><time>2026-04-29T14:18:00.999Z</time></trkpt><trkpt lat="45.54023955767244" lon="10.476894449241312"><ele>245.0</ele><time>2026-04-29T14:18:02.999Z</time></trkpt><trkpt lat="45.540118590857695" lon="10.476890015820805"><ele>245.0</ele><time>2026-04-29T14:18:04.999Z</time></trkpt><trkpt lat="45.53999339580186" lon="10.476883956897584"><ele>245.0</ele><time>2026-04-29T14:18:06.999Z</time></trkpt><trkpt lat="45.539874710083325" lon="10.476849172983924"><ele>245.00000000000003</ele><time>2026-04-29T14:18:08.999Z</time></trkpt><trkpt lat="45.53975211211325" lon="10.476825427336808"><ele>245.0</ele><time>2026-04-29T14:18:10.999Z</time></trkpt><trkpt lat="45.53968861637691" lon="10.476812591488997"><ele>245.0</ele><time>2026-04-29T14:18:11.999Z</time></trkpt><trkpt lat="45.53962236812809" lon="10.476799199193717"><ele>245.0</ele><time>2026-04-29T14:18:12.999Z</time></trkpt><trkpt lat="45.53955585248395" lon="10.476785752831008"><ele>245.00000000000003</ele><time>2026-04-29T14:18:13.999Z</time></trkpt><trkpt lat="45.539488900023336" lon="10.476772218202344"><ele>245.0</ele><time>2026-04-29T14:18:14.999Z</time></trkpt><trkpt lat="45.53942176589226" lon="10.476782437060459"><ele>245.42857142857144</ele><time>2026-04-29T14:18:15.999Z</time></trkpt><trkpt lat="45.539359699723434" lon="10.476746099956234"><ele>245.85714285714286</ele><time>2026-04-29T14:18:16.999Z</time></trkpt><trkpt lat="45.53929194230485" lon="10.476732318877433"><ele>246.28571428571428</ele><time>2026-04-29T14:18:17.999Z</time></trkpt><trkpt lat="45.53922605756804" lon="10.476718918989333"><ele>246.71428571428572</ele><time>2026-04-29T14:18:18.999Z</time></trkpt><trkpt lat="45.539157559260055" lon="10.476704987538566"><ele>247.14285714285717</ele><time>2026-04-29T14:18:19.999Z</time></trkpt><trkpt lat="45.53908694716813" lon="10.476690626181105"><ele>247.57142857142858</ele><time>2026-04-29T14:18:20.999Z</time></trkpt><trkpt lat="45.53901640757599" lon="10.476674201575257"><ele>248.0</ele><time>2026-04-29T14:18:21.999Z</time></trkpt><trkpt lat="45.538942428370156" lon="10.47665659510732"><ele>248.0</ele><time>2026-04-29T14:18:22.999Z</time></trkpt><trkpt lat="45.53887063701038" lon="10.476639509321608"><ele>248.00000000000003</ele><time>2026-04-29T14:18:23.999Z</time></trkpt><trkpt lat="45.53879629553513" lon="10.476624086975592"><ele>248.0</ele><time>2026-04-29T14:18:24.999Z</time></trkpt><trkpt lat="45.53871960944025" lon="10.476609390279773"><ele>248.0</ele><time>2026-04-29T14:18:25.999Z</time></trkpt><trkpt lat="45.53864399475628" lon="10.476596284617184"><ele>248.00000000000003</ele><time>2026-04-29T14:18:26.999Z</time></trkpt><trkpt lat="45.538572944317416" lon="10.476586466234512"><ele>248.0</ele><time>2026-04-29T14:18:27.999Z</time></trkpt><trkpt lat="45.53849769090915" lon="10.476578349413916"><ele>248.0</ele><time>2026-04-29T14:18:28.999Z</time></trkpt><trkpt lat="45.53842259254796" lon="10.476570624357185"><ele>247.71428571428572</ele><time>2026-04-29T14:18:29.999Z</time></trkpt><trkpt lat="45.538348560294274" lon="10.476562796336149"><ele>247.42857142857144</ele><time>2026-04-29T14:18:30.999Z</time></trkpt><trkpt lat="45.5382777240938" lon="10.47655468249205"><ele>247.14285714285717</ele><time>2026-04-29T14:18:31.999Z</time></trkpt><trkpt lat="45.538200913511815" lon="10.476545884308923"><ele>246.8571428571429</ele><time>2026-04-29T14:18:32.999Z</time></trkpt><trkpt lat="45.5381276982542" lon="10.476536948103936"><ele>246.57142857142858</ele><time>2026-04-29T14:18:33.999Z</time></trkpt><trkpt lat="45.538052846228965" lon="10.47652694749382"><ele>246.28571428571433</ele><time>2026-04-29T14:18:34.999Z</time></trkpt><trkpt lat="45.53798149237172" lon="10.476517414258222"><ele>246.00000000000003</ele><time>2026-04-29T14:18:35.999Z</time></trkpt><trkpt lat="45.53791373175233" lon="10.476508360865388"><ele>245.71428571428575</ele><time>2026-04-29T14:18:36.999Z</time></trkpt><trkpt lat="45.53783948000424" lon="10.476499348865326"><ele>245.42857142857144</ele><time>2026-04-29T14:18:37.999Z</time></trkpt><trkpt lat="45.537769111427075" lon="10.476492649049247"><ele>245.14285714285714</ele><time>2026-04-29T14:18:38.999Z</time></trkpt><trkpt lat="45.537694465817616" lon="10.476489896198524"><ele>244.85714285714286</ele><time>2026-04-29T14:18:39.999Z</time></trkpt><trkpt lat="45.537621087195504" lon="10.476493852706954"><ele>244.57142857142856</ele><time>2026-04-29T14:18:40.999Z</time></trkpt><trkpt lat="45.53754487130736" lon="10.476499765959625"><ele>244.28571428571425</ele><time>2026-04-29T14:18:41.999Z</time></trkpt><trkpt lat="45.53747125088129" lon="10.476505941963936"><ele>243.99999999999997</ele><time>2026-04-29T14:18:42.999Z</time></trkpt><trkpt lat="45.53739339459014" lon="10.476512473311832"><ele>243.99999999999997</ele><time>2026-04-29T14:18:43.999Z</time></trkpt><trkpt lat="45.53731761574912" lon="10.476517279241332"><ele>244.0</ele><time>2026-04-29T14:18:44.999Z</time></trkpt><trkpt lat="45.537241882004125" lon="10.476520888822886"><ele>244.0</ele><time>2026-04-29T14:18:45.999Z</time></trkpt><trkpt lat="45.53716409308241" lon="10.476524596358104"><ele>244.0</ele><time>2026-04-29T14:18:46.999Z</time></trkpt><trkpt lat="45.537086223092466" lon="10.476527469007996"><ele>243.99999999999997</ele><time>2026-04-29T14:18:47.999Z</time></trkpt><trkpt lat="45.537012528989656" lon="10.476529745600864"><ele>244.0</ele><time>2026-04-29T14:18:48.999Z</time></trkpt><trkpt lat="45.536936118147686" lon="10.476531900615006"><ele>244.1428571428571</ele><time>2026-04-29T14:18:49.999Z</time></trkpt><trkpt lat="45.53686226229867" lon="10.476533586252295"><ele>244.28571428571428</ele><time>2026-04-29T14:18:50.999Z</time></trkpt><trkpt lat="45.536786559305824" lon="10.47653255559405"><ele>244.42857142857142</ele><time>2026-04-29T14:18:51.999Z</time></trkpt><trkpt lat="45.53670411524176" lon="10.476550174734458"><ele>244.57142857142856</ele><time>2026-04-29T14:18:53Z</time></trkpt><trkpt lat="45.53662719875149" lon="10.476543450172297"><ele>244.71428571428572</ele><time>2026-04-29T14:18:54Z</time></trkpt><trkpt lat="45.53656014815384" lon="10.476526776977268"><ele>244.85714285714286</ele><time>2026-04-29T14:18:55Z</time></trkpt><trkpt lat="45.53649054491864" lon="10.476525000518308"><ele>245.0</ele><time>2026-04-29T14:18:56Z</time></trkpt><trkpt lat="45.536420849280226" lon="10.476523221727106"><ele>245.00000000000003</ele><time>2026-04-29T14:18:57Z</time></trkpt><trkpt lat="45.536346644764095" lon="10.476512580880545"><ele>245.0</ele><time>2026-04-29T14:18:58Z</time></trkpt><trkpt lat="45.53627693918526" lon="10.476523005785292"><ele>245.0</ele><time>2026-04-29T14:18:59Z</time></trkpt><trkpt lat="45.53619974941898" lon="10.476502048928282"><ele>245.0</ele><time>2026-04-29T14:19:00Z</time></trkpt><trkpt lat="45.5361197119225" lon="10.476493584982848"><ele>245.00000000000003</ele><time>2026-04-29T14:19:01Z</time></trkpt><trkpt lat="45.53603623192298" lon="10.476485710729728"><ele>245.0</ele><time>2026-04-29T14:19:02Z</time></trkpt><trkpt lat="45.53595366510215" lon="10.476476493942268"><ele>244.66666666666669</ele><time>2026-04-29T14:19:03Z</time></trkpt><trkpt lat="45.53587277657946" lon="10.476450609972188"><ele>244.33333333333334</ele><time>2026-04-29T14:19:04Z</time></trkpt><trkpt lat="45.53578176993503" lon="10.476465188897995"><ele>244.0</ele><time>2026-04-29T14:19:05Z</time></trkpt><trkpt lat="45.5356893581318" lon="10.476459090986115"><ele>243.66666666666669</ele><time>2026-04-29T14:19:06Z</time></trkpt><trkpt lat="45.535604074523135" lon="10.476460040893627"><ele>243.33333333333334</ele><time>2026-04-29T14:19:07Z</time></trkpt><trkpt lat="45.535517589566815" lon="10.476435446077955"><ele>243.0</ele><time>2026-04-29T14:19:08Z</time></trkpt><trkpt lat="45.53542657627615" lon="10.476435392870933"><ele>242.5</ele><time>2026-04-29T14:19:09Z</time></trkpt><trkpt lat="45.5353384804534" lon="10.476436839277742"><ele>242.0</ele><time>2026-04-29T14:19:10Z</time></trkpt><trkpt lat="45.53524808138305" lon="10.476441021918856"><ele>241.5</ele><time>2026-04-29T14:19:11Z</time></trkpt><trkpt lat="45.53516151954727" lon="10.47644502701882"><ele>241.0</ele><time>2026-04-29T14:19:12Z</time></trkpt><trkpt lat="45.53507711319125" lon="10.476473719024646"><ele>240.5</ele><time>2026-04-29T14:19:13Z</time></trkpt><trkpt lat="45.534990571733026" lon="10.476458183784144"><ele>240.0</ele><time>2026-04-29T14:19:14Z</time></trkpt><trkpt lat="45.53490559311748" lon="10.47646486644699"><ele>240.0</ele><time>2026-04-29T14:19:15Z</time></trkpt><trkpt lat="45.534821397035486" lon="10.476471487500865"><ele>240.0</ele><time>2026-04-29T14:19:16Z</time></trkpt><trkpt lat="45.53473470543382" lon="10.476475629827608"><ele>240.0</ele><time>2026-04-29T14:19:17Z</time></trkpt><trkpt lat="45.53465198466241" lon="10.476502988340211"><ele>240.0</ele><time>2026-04-29T14:19:18Z</time></trkpt><trkpt lat="45.53457021790054" lon="10.47650612978976"><ele>240.0</ele><time>2026-04-29T14:19:19Z</time></trkpt><trkpt lat="45.53448257334932" lon="10.476508988869"><ele>240.0</ele><time>2026-04-29T14:19:20Z</time></trkpt><trkpt lat="45.53439944735453" lon="10.476514608302894"><ele>239.66666666666666</ele><time>2026-04-29T14:19:21Z</time></trkpt><trkpt lat="45.534314318284174" lon="10.476519013030659"><ele>239.33333333333331</ele><time>2026-04-29T14:19:22Z</time></trkpt><trkpt lat="45.5342297999194" lon="10.476524019164684"><ele>239.0</ele><time>2026-04-29T14:19:23Z</time></trkpt><trkpt lat="45.53414726356518" lon="10.476525722568214"><ele>238.66666666666666</ele><time>2026-04-29T14:19:24Z</time></trkpt><trkpt lat="45.5340639563439" lon="10.476526370350316"><ele>238.33333333333331</ele><time>2026-04-29T14:19:25Z</time></trkpt><trkpt lat="45.53398103821762" lon="10.476528199789266"><ele>238.0</ele><time>2026-04-29T14:19:26Z</time></trkpt><trkpt lat="45.53389761617417" lon="10.476527958948415"><ele>237.99999999999997</ele><time>2026-04-29T14:19:27Z</time></trkpt><trkpt lat="45.53381595495156" lon="10.476520388923515"><ele>238.0</ele><time>2026-04-29T14:19:28Z</time></trkpt><trkpt lat="45.53373308986438" lon="10.476495030908808"><ele>238.0</ele><time>2026-04-29T14:19:28.999Z</time></trkpt><trkpt lat="45.53365144930429" lon="10.476461910461252"><ele>238.0</ele><time>2026-04-29T14:19:29.999Z</time></trkpt><trkpt lat="45.533568779038156" lon="10.476429252449297"><ele>237.99999999999997</ele><time>2026-04-29T14:19:30.999Z</time></trkpt><trkpt lat="45.53348185342857" lon="10.476402407672108"><ele>238.0</ele><time>2026-04-29T14:19:31.999Z</time></trkpt><trkpt lat="45.53339988251045" lon="10.476372343315473"><ele>238.16666666666666</ele><time>2026-04-29T14:19:32.999Z</time></trkpt><trkpt lat="45.533313660630036" lon="10.47634676546207"><ele>238.33333333333331</ele><time>2026-04-29T14:19:33.999Z</time></trkpt><trkpt lat="45.53322911920261" lon="10.476317886048642"><ele>238.5</ele><time>2026-04-29T14:19:34.999Z</time></trkpt><trkpt lat="45.53314384327397" lon="10.476288977915605"><ele>238.66666666666669</ele><time>2026-04-29T14:19:35.999Z</time></trkpt><trkpt lat="45.53306439165972" lon="10.476237632317961"><ele>238.83333333333334</ele><time>2026-04-29T14:19:36.999Z</time></trkpt><trkpt lat="45.53298002414762" lon="10.476209452985099"><ele>239.0</ele><time>2026-04-29T14:19:37.999Z</time></trkpt><trkpt lat="45.53289468481851" lon="10.476203637113455"><ele>238.2</ele><time>2026-04-29T14:19:38.999Z</time></trkpt><trkpt lat="45.53281627547492" lon="10.476175328821338"><ele>237.39999999999998</ele><time>2026-04-29T14:19:39.999Z</time></trkpt><trkpt lat="45.53274196079105" lon="10.476078968381197"><ele>236.6</ele><time>2026-04-29T14:19:40.999Z</time></trkpt><trkpt lat="45.53268352983192" lon="10.475992899892255"><ele>235.8</ele><time>2026-04-29T14:19:41.999Z</time></trkpt><trkpt lat="45.532632623744234" lon="10.47587622449137"><ele>235.0</ele><time>2026-04-29T14:19:42.999Z</time></trkpt><trkpt lat="45.53259965057893" lon="10.47574454313194"><ele>235.0</ele><time>2026-04-29T14:19:43.999Z</time></trkpt><trkpt lat="45.532573017537906" lon="10.475609659966313"><ele>235.0</ele><time>2026-04-29T14:19:44.999Z</time></trkpt><trkpt lat="45.53253541717515" lon="10.475477528564582"><ele>235.0</ele><time>2026-04-29T14:19:45.999Z</time></trkpt><trkpt lat="45.53244755280392" lon="10.47539273296362"><ele>235.0</ele><time>2026-04-29T14:19:46.999Z</time></trkpt><trkpt lat="45.53232386995331" lon="10.47541525252378"><ele>235.0</ele><time>2026-04-29T14:19:47.999Z</time></trkpt><trkpt lat="45.532223775218974" lon="10.475457435247856"><ele>235.0</ele><time>2026-04-29T14:19:48.999Z</time></trkpt><trkpt lat="45.53212919097981" lon="10.475469871252583"><ele>235.0</ele><time>2026-04-29T14:19:49.999Z</time></trkpt><trkpt lat="45.532035397104856" lon="10.475451194549835"><ele>235.0</ele><time>2026-04-29T14:19:50.999Z</time></trkpt><trkpt lat="45.53193802939452" lon="10.475410181693158"><ele>235.0</ele><time>2026-04-29T14:19:51.999Z</time></trkpt><trkpt lat="45.53183703735977" lon="10.475375743929394"><ele>235.0</ele><time>2026-04-29T14:19:52.999Z</time></trkpt><trkpt lat="45.53174016456757" lon="10.475334428460934"><ele>234.0</ele><time>2026-04-29T14:19:53.999Z</time></trkpt><trkpt lat="45.531648092499545" lon="10.475280863601997"><ele>233.0</ele><time>2026-04-29T14:19:54.999Z</time></trkpt><trkpt lat="45.53155489982725" lon="10.475223877359598"><ele>232.0</ele><time>2026-04-29T14:19:55.999Z</time></trkpt><trkpt lat="45.53146131906616" lon="10.475170004982743"><ele>231.0</ele><time>2026-04-29T14:19:56.999Z</time></trkpt><trkpt lat="45.531371145078246" lon="10.475119770713597"><ele>230.0</ele><time>2026-04-29T14:19:57.999Z</time></trkpt><trkpt lat="45.531283849310555" lon="10.475069410655513"><ele>229.8</ele><time>2026-04-29T14:19:58.999Z</time></trkpt><trkpt lat="45.53119401311783" lon="10.475013922083054"><ele>229.6</ele><time>2026-04-29T14:19:59.999Z</time></trkpt><trkpt lat="45.531112920736" lon="10.474955007111449"><ele>229.39999999999998</ele><time>2026-04-29T14:20:00.999Z</time></trkpt><trkpt lat="45.531035551625926" lon="10.474893049306313"><ele>229.2</ele><time>2026-04-29T14:20:01.999Z</time></trkpt><trkpt lat="45.53095445347918" lon="10.474826727401851"><ele>229.0</ele><time>2026-04-29T14:20:02.999Z</time></trkpt><trkpt lat="45.53087132104723" lon="10.474760693070035"><ele>229.0</ele><time>2026-04-29T14:20:03.999Z</time></trkpt><trkpt lat="45.53077783628358" lon="10.474691133917828"><ele>228.99999999999997</ele><time>2026-04-29T14:20:04.999Z</time></trkpt><trkpt lat="45.53068730657931" lon="10.474599603672836"><ele>228.99999999999997</ele><time>2026-04-29T14:20:05.999Z</time></trkpt><trkpt lat="45.530591068491574" lon="10.474519956526208"><ele>229.0</ele><time>2026-04-29T14:20:06.999Z</time></trkpt><trkpt lat="45.53049291469633" lon="10.47443872392169"><ele>229.0</ele><time>2026-04-29T14:20:07.999Z</time></trkpt><trkpt lat="45.53038248654591" lon="10.474371289539318"><ele>227.25</ele><time>2026-04-29T14:20:08.999Z</time></trkpt><trkpt lat="45.530283461817774" lon="10.474277583932057"><ele>225.5</ele><time>2026-04-29T14:20:09.999Z</time></trkpt><trkpt lat="45.530178577348074" lon="10.474189509472202"><ele>223.75</ele><time>2026-04-29T14:20:10.999Z</time></trkpt><trkpt lat="45.53007335840785" lon="10.474098298747311"><ele>222.0</ele><time>2026-04-29T14:20:11.999Z</time></trkpt><trkpt lat="45.52996923554398" lon="10.474009130447966"><ele>222.0</ele><time>2026-04-29T14:20:12.999Z</time></trkpt><trkpt lat="45.52986480947702" lon="10.473916294919402"><ele>222.0</ele><time>2026-04-29T14:20:13.999Z</time></trkpt><trkpt lat="45.52975995924956" lon="10.473827062575339"><ele>222.0</ele><time>2026-04-29T14:20:14.999Z</time></trkpt><trkpt lat="45.529661448267994" lon="10.473739789918403"><ele>222.0</ele><time>2026-04-29T14:20:15.999Z</time></trkpt><trkpt lat="45.52956227709256" lon="10.473651709250413"><ele>221.25</ele><time>2026-04-29T14:20:16.999Z</time></trkpt><trkpt lat="45.529459437877655" lon="10.473566926799043"><ele>220.5</ele><time>2026-04-29T14:20:17.999Z</time></trkpt><trkpt lat="45.529358892371135" lon="10.47348409748298"><ele>219.75</ele><time>2026-04-29T14:20:18.999Z</time></trkpt><trkpt lat="45.52925505939906" lon="10.473398547732643"><ele>219.0</ele><time>2026-04-29T14:20:19.999Z</time></trkpt><trkpt lat="45.529153126032995" lon="10.473313595786985"><ele>219.0</ele><time>2026-04-29T14:20:20.999Z</time></trkpt><trkpt lat="45.52905219608563" lon="10.47322887756276"><ele>219.0</ele><time>2026-04-29T14:20:21.999Z</time></trkpt><trkpt lat="45.5289558837645" lon="10.47314407860449"><ele>219.0</ele><time>2026-04-29T14:20:22.999Z</time></trkpt><trkpt lat="45.528859970149774" lon="10.473061481791861"><ele>219.0</ele><time>2026-04-29T14:20:23.999Z</time></trkpt><trkpt lat="45.52876764154415" lon="10.472982733197135"><ele>219.0</ele><time>2026-04-29T14:20:24.999Z</time></trkpt><trkpt lat="45.528673728163845" lon="10.472904496750907"><ele>218.99999999999997</ele><time>2026-04-29T14:20:25.999Z</time></trkpt><trkpt lat="45.52858274404168" lon="10.472830893256912"><ele>218.99999999999997</ele><time>2026-04-29T14:20:26.999Z</time></trkpt><trkpt lat="45.52849497866647" lon="10.472753981932023"><ele>219.0</ele><time>2026-04-29T14:20:27.999Z</time></trkpt><trkpt lat="45.52841062839815" lon="10.472677727947309"><ele>219.0</ele><time>2026-04-29T14:20:28.999Z</time></trkpt><trkpt lat="45.528327236706986" lon="10.47260331358737"><ele>219.0</ele><time>2026-04-29T14:20:29.999Z</time></trkpt><trkpt lat="45.528245695509455" lon="10.472527551998226"><ele>218.99999999999997</ele><time>2026-04-29T14:20:30.999Z</time></trkpt><trkpt lat="45.528163850055684" lon="10.47245237347668"><ele>218.99999999999997</ele><time>2026-04-29T14:20:31.999Z</time></trkpt><trkpt lat="45.52808333617844" lon="10.472374857702249"><ele>219.0</ele><time>2026-04-29T14:20:32.999Z</time></trkpt><trkpt lat="45.52800484036413" lon="10.472295197114073"><ele>219.0</ele><time>2026-04-29T14:20:33.999Z</time></trkpt><trkpt lat="45.5279291599711" lon="10.472214436526215"><ele>219.0</ele><time>2026-04-29T14:20:34.999Z</time></trkpt><trkpt lat="45.52785562587646" lon="10.472132580495789"><ele>218.99999999999997</ele><time>2026-04-29T14:20:35.999Z</time></trkpt><trkpt lat="45.52778282272707" lon="10.472050771109897"><ele>218.99999999999997</ele><time>2026-04-29T14:20:36.999Z</time></trkpt><trkpt lat="45.52771071584654" lon="10.47197165740431"><ele>219.0</ele><time>2026-04-29T14:20:37.999Z</time></trkpt><trkpt lat="45.52763704985315" lon="10.471891070132914"><ele>219.0</ele><time>2026-04-29T14:20:38.999Z</time></trkpt><trkpt lat="45.52756395808616" lon="10.471807123205199"><ele>219.0</ele><time>2026-04-29T14:20:39.999Z</time></trkpt><trkpt lat="45.527492771880304" lon="10.471720540451637"><ele>218.99999999999997</ele><time>2026-04-29T14:20:40.999Z</time></trkpt><trkpt lat="45.52741740522519" lon="10.4716316484673"><ele>218.99999999999997</ele><time>2026-04-29T14:20:41.999Z</time></trkpt><trkpt lat="45.52734391817505" lon="10.471542251859997"><ele>219.0</ele><time>2026-04-29T14:20:42.999Z</time></trkpt><trkpt lat="45.52726651383656" lon="10.471448462967718"><ele>219.0</ele><time>2026-04-29T14:20:43.999Z</time></trkpt><trkpt lat="45.52719272765594" lon="10.471358489111378"><ele>218.79999999999998</ele><time>2026-04-29T14:20:44.999Z</time></trkpt><trkpt lat="45.527113177715854" lon="10.471269655669937"><ele>218.59999999999997</ele><time>2026-04-29T14:20:45.999Z</time></trkpt><trkpt lat="45.527033436289" lon="10.471180853124388"><ele>218.4</ele><time>2026-04-29T14:20:46.999Z</time></trkpt><trkpt lat="45.52695471142934" lon="10.47108605404061"><ele>218.2</ele><time>2026-04-29T14:20:47.999Z</time></trkpt><trkpt lat="45.52687669266391" lon="10.470992904449918"><ele>218.0</ele><time>2026-04-29T14:20:48.999Z</time></trkpt><trkpt lat="45.52679488244924" lon="10.470906637805765"><ele>217.60000000000002</ele><time>2026-04-29T14:20:49.999Z</time></trkpt><trkpt lat="45.52671611145123" lon="10.470824487860844"><ele>217.20000000000002</ele><time>2026-04-29T14:20:50.999Z</time></trkpt><trkpt lat="45.52663511320735" lon="10.470749673880455"><ele>216.8</ele><time>2026-04-29T14:20:51.999Z</time></trkpt><trkpt lat="45.526549265802494" lon="10.47067179111684"><ele>216.4</ele><time>2026-04-29T14:20:52.999Z</time></trkpt><trkpt lat="45.52646116368899" lon="10.470608601767436"><ele>216.0</ele><time>2026-04-29T14:20:53.999Z</time></trkpt><trkpt lat="45.52637550078989" lon="10.470529396914305"><ele>216.0</ele><time>2026-04-29T14:20:54.999Z</time></trkpt><trkpt lat="45.52628746257342" lon="10.470458185908237"><ele>216.00000000000003</ele><time>2026-04-29T14:20:55.999Z</time></trkpt><trkpt lat="45.526201375161826" lon="10.470389158814722"><ele>216.00000000000003</ele><time>2026-04-29T14:20:56.999Z</time></trkpt><trkpt lat="45.52611528210136" lon="10.470315355958052"><ele>216.0</ele><time>2026-04-29T14:20:58Z</time></trkpt><trkpt lat="45.52602675151135" lon="10.470245107010692"><ele>216.0</ele><time>2026-04-29T14:20:59Z</time></trkpt><trkpt lat="45.525940296155" lon="10.470176678534461"><ele>216.20000000000002</ele><time>2026-04-29T14:21:00Z</time></trkpt><trkpt lat="45.52585387894011" lon="10.470110032793302"><ele>216.40000000000003</ele><time>2026-04-29T14:21:01Z</time></trkpt><trkpt lat="45.52576796376253" lon="10.470036871859124"><ele>216.6</ele><time>2026-04-29T14:21:02Z</time></trkpt><trkpt lat="45.52568151242471" lon="10.469962973095813"><ele>216.8</ele><time>2026-04-29T14:21:03Z</time></trkpt><trkpt lat="45.5255952617578" lon="10.469889838537732"><ele>217.0</ele><time>2026-04-29T14:21:04Z</time></trkpt><trkpt lat="45.52550548191141" lon="10.469826087502241"><ele>217.0</ele><time>2026-04-29T14:21:05Z</time></trkpt><trkpt lat="45.52542600474356" lon="10.469739256067154"><ele>217.0</ele><time>2026-04-29T14:21:06Z</time></trkpt><trkpt lat="45.525346370996246" lon="10.469668176061429"><ele>217.0</ele><time>2026-04-29T14:21:07Z</time></trkpt><trkpt lat="45.525265463018485" lon="10.469595958691515"><ele>217.0</ele><time>2026-04-29T14:21:08Z</time></trkpt><trkpt lat="45.52518549465749" lon="10.469524580014305"><ele>217.0</ele><time>2026-04-29T14:21:09Z</time></trkpt><trkpt lat="45.525105313824625" lon="10.469451788494839"><ele>216.2</ele><time>2026-04-29T14:21:10Z</time></trkpt><trkpt lat="45.52502310580872" lon="10.469376891710562"><ele>215.39999999999998</ele><time>2026-04-29T14:21:11Z</time></trkpt><trkpt lat="45.524943874424835" lon="10.46930226264875"><ele>214.60000000000002</ele><time>2026-04-29T14:21:12Z</time></trkpt><trkpt lat="45.524866598579464" lon="10.469226858715214"><ele>213.8</ele><time>2026-04-29T14:21:13Z</time></trkpt><trkpt lat="45.52478967120504" lon="10.4691487306512"><ele>213.0</ele><time>2026-04-29T14:21:14Z</time></trkpt><trkpt lat="45.52461828525954" lon="10.469282277829818"><ele>213.0</ele><time>2026-04-29T14:21:15Z</time></trkpt><trkpt lat="45.52451936608048" lon="10.469341024261043"><ele>213.0</ele><time>2026-04-29T14:21:16Z</time></trkpt><trkpt lat="45.52445513053981" lon="10.469449836049169"><ele>213.0</ele><time>2026-04-29T14:21:17Z</time></trkpt><trkpt lat="45.52443637002179" lon="10.469596993714298"><ele>213.0</ele><time>2026-04-29T14:21:18Z</time></trkpt><trkpt lat="45.52429957498026" lon="10.46966828342309"><ele>214.5</ele><time>2026-04-29T14:21:19Z</time></trkpt><trkpt lat="45.524603011066475" lon="10.46993250789916"><ele>216.0</ele><time>2026-04-29T14:21:21Z</time></trkpt><trkpt lat="45.52467990555679" lon="10.470024546113068"><ele>216.0</ele><time>2026-04-29T14:21:22Z</time></trkpt><trkpt lat="45.524708501873945" lon="10.470148666807015"><ele>216.0</ele><time>2026-04-29T14:21:23Z</time></trkpt><trkpt lat="45.524707001336836" lon="10.47027361167764"><ele>216.0</ele><time>2026-04-29T14:21:24Z</time></trkpt><trkpt lat="45.52470269279714" lon="10.470392851324993"><ele>216.0</ele><time>2026-04-29T14:21:25Z</time></trkpt><trkpt lat="45.524708830518634" lon="10.47049435759319"><ele>216.0</ele><time>2026-04-29T14:21:26Z</time></trkpt><trkpt lat="45.52470307403714" lon="10.470596403523537"><ele>216.0</ele><time>2026-04-29T14:21:27Z</time></trkpt><trkpt lat="45.524674651546896" lon="10.470693497819587"><ele>216.4</ele><time>2026-04-29T14:21:28Z</time></trkpt><trkpt lat="45.52461632231311" lon="10.47077480109397"><ele>216.8</ele><time>2026-04-29T14:21:29Z</time></trkpt><trkpt lat="45.52452576539074" lon="10.470806217327741"><ele>217.20000000000002</ele><time>2026-04-29T14:21:30Z</time></trkpt><trkpt lat="45.5244331342964" lon="10.470776327248796"><ele>217.60000000000002</ele><time>2026-04-29T14:21:31Z</time></trkpt><trkpt lat="45.524354443190596" lon="10.470693869915594"><ele>218.0</ele><time>2026-04-29T14:21:32Z</time></trkpt><trkpt lat="45.524287880922586" lon="10.470624465147152"><ele>218.00000000000003</ele><time>2026-04-29T14:21:33Z</time></trkpt><trkpt lat="45.524218085150174" lon="10.470591204986272"><ele>218.0</ele><time>2026-04-29T14:21:33.999Z</time></trkpt><trkpt lat="45.5241410105491" lon="10.470627905318421"><ele>218.0</ele><time>2026-04-29T14:21:34.999Z</time></trkpt><trkpt lat="45.5240853083256" lon="10.470717989060502"><ele>218.0</ele><time>2026-04-29T14:21:35.999Z</time></trkpt><trkpt lat="45.52406846949236" lon="10.470828023207607"><ele>218.00000000000003</ele><time>2026-04-29T14:21:36.999Z</time></trkpt><trkpt lat="45.52406550762006" lon="10.470992727973574"><ele>218.0</ele><time>2026-04-29T14:21:38.999Z</time></trkpt><trkpt lat="45.524053908016214" lon="10.471114643859869"><ele>218.00000000000003</ele><time>2026-04-29T14:21:40.999Z</time></trkpt><trkpt lat="45.524040174239644" lon="10.471224994200345"><ele>218.0</ele><time>2026-04-29T14:21:42.999Z</time></trkpt><trkpt lat="45.524032407858286" lon="10.471324613317153"><ele>218.0</ele><time>2026-04-29T14:21:44.999Z</time></trkpt><trkpt lat="45.524023759848184" lon="10.471443483264538"><ele>218.0</ele><time>2026-04-29T14:21:48.999Z</time></trkpt><trkpt lat="45.52401996319921" lon="10.471549247724962"><ele>218.00000000000003</ele><time>2026-04-29T14:21:51.999Z</time></trkpt><trkpt lat="45.524022859685374" lon="10.471651203593941"><ele>218.0</ele><time>2026-04-29T14:21:54.999Z</time></trkpt><trkpt lat="45.52402519954714" lon="10.471756472576887"><ele>218.50000000000003</ele><time>2026-04-29T14:21:57.999Z</time></trkpt><trkpt lat="45.524032894482296" lon="10.47186705965407"><ele>219.0</ele><time>2026-04-29T14:22:00.999Z</time></trkpt><trkpt lat="45.52402979856965" lon="10.471976867361214"><ele>219.5</ele><time>2026-04-29T14:22:03.999Z</time></trkpt><trkpt lat="45.5240315085706" lon="10.472088150116436"><ele>220.0</ele><time>2026-04-29T14:22:06.999Z</time></trkpt><trkpt lat="45.52403472171138" lon="10.472193423374478"><ele>220.50000000000003</ele><time>2026-04-29T14:22:08.999Z</time></trkpt><trkpt lat="45.52403407942682" lon="10.47231680073966"><ele>221.0</ele><time>2026-04-29T14:22:11.999Z</time></trkpt><trkpt lat="45.524035777263556" lon="10.472433777740862"><ele>221.33333333333334</ele><time>2026-04-29T14:22:14.999Z</time></trkpt><trkpt lat="45.524044711261055" lon="10.472549654536145"><ele>221.66666666666669</ele><time>2026-04-29T14:22:17.999Z</time></trkpt><trkpt lat="45.52405441370228" lon="10.472662396173556"><ele>222.0</ele><time>2026-04-29T14:22:20.999Z</time></trkpt><trkpt lat="45.524055615710665" lon="10.47278095805672"><ele>222.33333333333331</ele><time>2026-04-29T14:22:23.999Z</time></trkpt><trkpt lat="45.52405960156359" lon="10.472895147498837"><ele>222.66666666666666</ele><time>2026-04-29T14:22:26.999Z</time></trkpt><trkpt lat="45.524063669522896" lon="10.473002011381828"><ele>223.0</ele><time>2026-04-29T14:22:29.999Z</time></trkpt><trkpt lat="45.524068983590425" lon="10.473102596775808"><ele>223.57142857142856</ele><time>2026-04-29T14:22:32.999Z</time></trkpt><trkpt lat="45.52407657516668" lon="10.473201644560993"><ele>224.14285714285714</ele><time>2026-04-29T14:22:35.999Z</time></trkpt><trkpt lat="45.52408364412928" lon="10.473303074049102"><ele>224.71428571428572</ele><time>2026-04-29T14:22:38.999Z</time></trkpt><trkpt lat="45.524085876515" lon="10.473409361607274"><ele>225.28571428571428</ele><time>2026-04-29T14:22:41.999Z</time></trkpt><trkpt lat="45.52408714204348" lon="10.473521801551142"><ele>225.8571428571429</ele><time>2026-04-29T14:22:44.999Z</time></trkpt><trkpt lat="45.524094404374665" lon="10.473626301086037"><ele>226.42857142857144</ele><time>2026-04-29T14:22:48Z</time></trkpt><trkpt lat="45.52409627439144" lon="10.473728571653762"><ele>227.0</ele><time>2026-04-29T14:22:51Z</time></trkpt><trkpt lat="45.52410912253067" lon="10.47382973048737"><ele>227.2857142857143</ele><time>2026-04-29T14:22:54Z</time></trkpt><trkpt lat="45.524109811812274" lon="10.473941309108556"><ele>227.5714285714286</ele><time>2026-04-29T14:22:58Z</time></trkpt><trkpt lat="45.524116504102714" lon="10.47403255107454"><ele>227.85714285714286</ele><time>2026-04-29T14:23:01Z</time></trkpt><trkpt lat="45.5241053410778" lon="10.474123132169337"><ele>228.14285714285717</ele><time>2026-04-29T14:23:04.001Z</time></trkpt><trkpt lat="45.52409485159519" lon="10.474222309802341"><ele>228.42857142857144</ele><time>2026-04-29T14:23:07.001Z</time></trkpt><trkpt lat="45.52407445975588" lon="10.474321693616224"><ele>228.71428571428572</ele><time>2026-04-29T14:23:09.001Z</time></trkpt><trkpt lat="45.52403643935676" lon="10.474397383857568"><ele>229.0</ele><time>2026-04-29T14:23:12.001Z</time></trkpt><trkpt lat="45.5239729100613" lon="10.474455062044933"><ele>228.99999999999997</ele><time>2026-04-29T14:23:15.001Z</time></trkpt><trkpt lat="45.52391229634321" lon="10.47448677123137"><ele>229.0</ele><time>2026-04-29T14:23:17.001Z</time></trkpt><trkpt lat="45.52383777430138" lon="10.474526904493253"><ele>229.0</ele><time>2026-04-29T14:23:19.001Z</time></trkpt><trkpt lat="45.523757287020246" lon="10.474565325748044"><ele>229.0</ele><time>2026-04-29T14:23:21.001Z</time></trkpt><trkpt lat="45.5236732851017" lon="10.474590947457514"><ele>228.99999999999997</ele><time>2026-04-29T14:23:23.001Z</time></trkpt><trkpt lat="45.52358955174817" lon="10.474632610523143"><ele>229.0</ele><time>2026-04-29T14:23:25.001Z</time></trkpt><trkpt lat="45.52350334845915" lon="10.474662536320013"><ele>228.99999999999997</ele><time>2026-04-29T14:23:27.001Z</time></trkpt><trkpt lat="45.523414867173585" lon="10.47470085344318"><ele>229.0</ele><time>2026-04-29T14:23:29Z</time></trkpt><trkpt lat="45.523334235055664" lon="10.474729958694983"><ele>229.0</ele><time>2026-04-29T14:23:31Z</time></trkpt><trkpt lat="45.52324837204347" lon="10.474755616380154"><ele>229.0</ele><time>2026-04-29T14:23:33Z</time></trkpt><trkpt lat="45.52316450508782" lon="10.474782632908996"><ele>228.99999999999997</ele><time>2026-04-29T14:23:35Z</time></trkpt><trkpt lat="45.52308361092264" lon="10.474818979008933"><ele>229.0</ele><time>2026-04-29T14:23:37Z</time></trkpt><trkpt lat="45.523010228883855" lon="10.47483173578032"><ele>228.99999999999997</ele><time>2026-04-29T14:23:39Z</time></trkpt><trkpt lat="45.52293150806421" lon="10.47484509236644"><ele>229.0</ele><time>2026-04-29T14:23:41Z</time></trkpt><trkpt lat="45.52286476075199" lon="10.474857037432555"><ele>229.0</ele><time>2026-04-29T14:23:43Z</time></trkpt><trkpt lat="45.522784122920115" lon="10.474857924121926"><ele>229.0</ele><time>2026-04-29T14:23:46Z</time></trkpt><trkpt lat="45.52269860373122" lon="10.474856544671905"><ele>228.99999999999997</ele><time>2026-04-29T14:23:50Z</time></trkpt><trkpt lat="45.52263137488435" lon="10.474839452221351"><ele>229.0</ele><time>2026-04-29T14:23:53Z</time></trkpt><trkpt lat="45.522556830298704" lon="10.474811468869142"><ele>229.33333333333331</ele><time>2026-04-29T14:23:56Z</time></trkpt><trkpt lat="45.52248724817571" lon="10.47476791129934"><ele>229.66666666666666</ele><time>2026-04-29T14:24:00Z</time></trkpt><trkpt lat="45.52240314137203" lon="10.47471240354137"><ele>230.0</ele><time>2026-04-29T14:24:04Z</time></trkpt><trkpt lat="45.52233899205018" lon="10.47468173006349"><ele>230.33333333333331</ele><time>2026-04-29T14:24:08Z</time></trkpt><trkpt lat="45.522265645951265" lon="10.474615572745533"><ele>230.66666666666666</ele><time>2026-04-29T14:24:12Z</time></trkpt><trkpt lat="45.52219995283605" lon="10.47457816616522"><ele>231.0</ele><time>2026-04-29T14:24:16Z</time></trkpt><trkpt lat="45.52212586396789" lon="10.474558882704471"><ele>232.16666666666666</ele><time>2026-04-29T14:24:19Z</time></trkpt><trkpt lat="45.52204017880246" lon="10.474566904465599"><ele>233.33333333333331</ele><time>2026-04-29T14:24:22Z</time></trkpt><trkpt lat="45.521978048285966" lon="10.474615182728574"><ele>234.5</ele><time>2026-04-29T14:24:25Z</time></trkpt><trkpt lat="45.52190994349895" lon="10.474687512365914"><ele>235.66666666666666</ele><time>2026-04-29T14:24:27Z</time></trkpt><trkpt lat="45.52185178043279" lon="10.474749625070439"><ele>236.83333333333331</ele><time>2026-04-29T14:24:29Z</time></trkpt><trkpt lat="45.52180384736501" lon="10.474816997603382"><ele>238.0</ele><time>2026-04-29T14:24:31Z</time></trkpt><trkpt lat="45.52175042591921" lon="10.474884027597351"><ele>238.49999999999997</ele><time>2026-04-29T14:24:34Z</time></trkpt><trkpt lat="45.521707570157744" lon="10.47497447433304"><ele>239.0</ele><time>2026-04-29T14:24:37Z</time></trkpt><trkpt lat="45.52166550699379" lon="10.475068982354886"><ele>239.5</ele><time>2026-04-29T14:24:40Z</time></trkpt><trkpt lat="45.52160893728312" lon="10.47516323779823"><ele>240.0</ele><time>2026-04-29T14:24:43Z</time></trkpt><trkpt lat="45.52155199761286" lon="10.475242540020764"><ele>240.49999999999997</ele><time>2026-04-29T14:24:46Z</time></trkpt><trkpt lat="45.521486390599534" lon="10.475332118756189"><ele>241.0</ele><time>2026-04-29T14:24:48Z</time></trkpt><trkpt lat="45.521428291060985" lon="10.47540378523481"><ele>241.16666666666666</ele><time>2026-04-29T14:24:50Z</time></trkpt><trkpt lat="45.52136374234932" lon="10.475458966879309"><ele>241.33333333333331</ele><time>2026-04-29T14:24:52Z</time></trkpt><trkpt lat="45.5213020146822" lon="10.475516758309453"><ele>241.5</ele><time>2026-04-29T14:24:54Z</time></trkpt><trkpt lat="45.5212537649311" lon="10.47557922760199"><ele>241.66666666666669</ele><time>2026-04-29T14:24:56Z</time></trkpt><trkpt lat="45.521187059565634" lon="10.475656423945706"><ele>241.83333333333334</ele><time>2026-04-29T14:24:59Z</time></trkpt><trkpt lat="45.521109746731696" lon="10.475727662098686"><ele>242.0</ele><time>2026-04-29T14:25:02Z</time></trkpt><trkpt lat="45.52103642435154" lon="10.4758042622536"><ele>242.00000000000003</ele><time>2026-04-29T14:25:04.999Z</time></trkpt><trkpt lat="45.520986012093616" lon="10.475883189987753"><ele>242.0</ele><time>2026-04-29T14:25:07.999Z</time></trkpt><trkpt lat="45.52093899976344" lon="10.475995791489332"><ele>242.0</ele><time>2026-04-29T14:25:11.001Z</time></trkpt><trkpt lat="45.52088171159638" lon="10.476064883822824"><ele>242.0</ele><time>2026-04-29T14:25:14.001Z</time></trkpt><trkpt lat="45.52082010591475" lon="10.476117913995369"><ele>242.00000000000003</ele><time>2026-04-29T14:25:17.001Z</time></trkpt><trkpt lat="45.52074612914179" lon="10.476169622934393"><ele>242.0</ele><time>2026-04-29T14:25:21.001Z</time></trkpt><trkpt lat="45.52069272115086" lon="10.47624379114487"><ele>242.75</ele><time>2026-04-29T14:25:24.001Z</time></trkpt><trkpt lat="45.52065517346654" lon="10.476359892052491"><ele>243.5</ele><time>2026-04-29T14:25:27.001Z</time></trkpt><trkpt lat="45.52058487965519" lon="10.476548180815499"><ele>244.25</ele><time>2026-04-29T14:25:29.001Z</time></trkpt><trkpt lat="45.52052563631686" lon="10.476665456672777"><ele>245.0</ele><time>2026-04-29T14:25:31Z</time></trkpt><trkpt lat="45.52044810556008" lon="10.47678458203528"><ele>245.00000000000003</ele><time>2026-04-29T14:25:33Z</time></trkpt><trkpt lat="45.52039657439978" lon="10.47689525282236"><ele>245.0</ele><time>2026-04-29T14:25:35Z</time></trkpt><trkpt lat="45.52033897950233" lon="10.476991968253659"><ele>245.0</ele><time>2026-04-29T14:25:37Z</time></trkpt><trkpt lat="45.52030121531537" lon="10.477100871339061"><ele>245.0</ele><time>2026-04-29T14:25:39Z</time></trkpt><trkpt lat="45.52026682633161" lon="10.477207330350003"><ele>245.00000000000003</ele><time>2026-04-29T14:25:41Z</time></trkpt><trkpt lat="45.52022953363205" lon="10.477292450494518"><ele>245.0</ele><time>2026-04-29T14:25:43Z</time></trkpt><trkpt lat="45.52020538087556" lon="10.477383933572298"><ele>245.00000000000003</ele><time>2026-04-29T14:25:45Z</time></trkpt><trkpt lat="45.52017226922575" lon="10.477473277102742"><ele>245.0</ele><time>2026-04-29T14:25:48Z</time></trkpt><trkpt lat="45.52013719204649" lon="10.477557813750261"><ele>245.0</ele><time>2026-04-29T14:25:50Z</time></trkpt><trkpt lat="45.52010443594952" lon="10.477644802165266"><ele>245.0</ele><time>2026-04-29T14:25:52Z</time></trkpt><trkpt lat="45.520072271782745" lon="10.477744673359481"><ele>245.00000000000003</ele><time>2026-04-29T14:25:54Z</time></trkpt><trkpt lat="45.52003568727397" lon="10.477847775882989"><ele>245.0</ele><time>2026-04-29T14:25:56Z</time></trkpt><trkpt lat="45.51999458365225" lon="10.477961107046031"><ele>246.0</ele><time>2026-04-29T14:25:58Z</time></trkpt><trkpt lat="45.51996791489045" lon="10.47809412408554"><ele>247.0</ele><time>2026-04-29T14:26:00Z</time></trkpt><trkpt lat="45.519937120676616" lon="10.47823571356"><ele>248.0</ele><time>2026-04-29T14:26:02Z</time></trkpt><trkpt lat="45.51991643211601" lon="10.478323514919822"><ele>249.0</ele><time>2026-04-29T14:26:03Z</time></trkpt><trkpt lat="45.51990242145566" lon="10.478462960328738"><ele>250.0</ele><time>2026-04-29T14:26:05Z</time></trkpt><trkpt lat="45.5198894546841" lon="10.478591583745164"><ele>249.99999999999997</ele><time>2026-04-29T14:26:07Z</time></trkpt><trkpt lat="45.51988018121872" lon="10.478711350129853"><ele>250.0</ele><time>2026-04-29T14:26:09Z</time></trkpt><trkpt lat="45.51977983680746" lon="10.478786786608943"><ele>250.0</ele><time>2026-04-29T14:26:10Z</time></trkpt><trkpt lat="45.519791198141895" lon="10.478883407836701"><ele>250.0</ele><time>2026-04-29T14:26:13Z</time></trkpt><trkpt lat="45.51977991282439" lon="10.479006897282193"><ele>249.99999999999997</ele><time>2026-04-29T14:26:15Z</time></trkpt><trkpt lat="45.51975414608458" lon="10.479131806004558"><ele>250.0</ele><time>2026-04-29T14:26:17Z</time></trkpt><trkpt lat="45.51970268137151" lon="10.479248279022299"><ele>250.2</ele><time>2026-04-29T14:26:19Z</time></trkpt><trkpt lat="45.519639709764604" lon="10.479364377786009"><ele>250.4</ele><time>2026-04-29T14:26:21Z</time></trkpt><trkpt lat="45.51957593957081" lon="10.479477367298065"><ele>250.60000000000002</ele><time>2026-04-29T14:26:23Z</time></trkpt><trkpt lat="45.519514028199495" lon="10.479587265189549"><ele>250.8</ele><time>2026-04-29T14:26:25Z</time></trkpt><trkpt lat="45.519450321772226" lon="10.479700349673244"><ele>251.0</ele><time>2026-04-29T14:26:27Z</time></trkpt><trkpt lat="45.51938767412334" lon="10.479812003862586"><ele>251.0</ele><time>2026-04-29T14:26:29Z</time></trkpt><trkpt lat="45.519321952258096" lon="10.479931686940983"><ele>251.0</ele><time>2026-04-29T14:26:31Z</time></trkpt><trkpt lat="45.519255540142396" lon="10.480064175329497"><ele>251.0</ele><time>2026-04-29T14:26:33Z</time></trkpt><trkpt lat="45.519214378840886" lon="10.480227238479207"><ele>251.0</ele><time>2026-04-29T14:26:35Z</time></trkpt><trkpt lat="45.51916344873408" lon="10.480397647320816"><ele>250.57142857142856</ele><time>2026-04-29T14:26:37Z</time></trkpt><trkpt lat="45.51915159269815" lon="10.480491370971734"><ele>250.14285714285714</ele><time>2026-04-29T14:26:38Z</time></trkpt><trkpt lat="45.5191406951713" lon="10.480588705000146"><ele>249.71428571428572</ele><time>2026-04-29T14:26:39Z</time></trkpt><trkpt lat="45.51913070159022" lon="10.480689715197622"><ele>249.28571428571428</ele><time>2026-04-29T14:26:40Z</time></trkpt><trkpt lat="45.519120994076175" lon="10.48079524008754"><ele>248.8571428571429</ele><time>2026-04-29T14:26:41Z</time></trkpt><trkpt lat="45.51911121090607" lon="10.480901587262416"><ele>248.42857142857144</ele><time>2026-04-29T14:26:42Z</time></trkpt><trkpt lat="45.51910034649298" lon="10.481015284444643"><ele>248.0</ele><time>2026-04-29T14:26:43Z</time></trkpt><trkpt lat="45.51908911726741" lon="10.481132617961416"><ele>248.00000000000003</ele><time>2026-04-29T14:26:44Z</time></trkpt><trkpt lat="45.51909869921406" lon="10.48125346199407"><ele>248.0</ele><time>2026-04-29T14:26:45Z</time></trkpt><trkpt lat="45.51909643295437" lon="10.481373284789775"><ele>248.0</ele><time>2026-04-29T14:26:46Z</time></trkpt><trkpt lat="45.5191114445087" lon="10.48148887893515"><ele>248.0</ele><time>2026-04-29T14:26:47Z</time></trkpt><trkpt lat="45.51914152333214" lon="10.4815998018186"><ele>248.00000000000003</ele><time>2026-04-29T14:26:48Z</time></trkpt><trkpt lat="45.51918111466021" lon="10.481702657577076"><ele>248.0</ele><time>2026-04-29T14:26:49Z</time></trkpt><trkpt lat="45.51922920945755" lon="10.48179889841184"><ele>246.83333333333334</ele><time>2026-04-29T14:26:50Z</time></trkpt><trkpt lat="45.519277211352744" lon="10.481892287691123"><ele>245.66666666666669</ele><time>2026-04-29T14:26:51Z</time></trkpt><trkpt lat="45.51932204340884" lon="10.481985684412425"><ele>244.5</ele><time>2026-04-29T14:26:52Z</time></trkpt><trkpt lat="45.51936422360757" lon="10.482081748420043"><ele>243.33333333333331</ele><time>2026-04-29T14:26:53Z</time></trkpt><trkpt lat="45.51940652943352" lon="10.482170111527115"><ele>242.16666666666666</ele><time>2026-04-29T14:26:54Z</time></trkpt><trkpt lat="45.51945301427156" lon="10.482256781147838"><ele>241.0</ele><time>2026-04-29T14:26:55Z</time></trkpt><trkpt lat="45.51949562623653" lon="10.48234484929878"><ele>240.85714285714286</ele><time>2026-04-29T14:26:56Z</time></trkpt><trkpt lat="45.51954118612326" lon="10.482430220143433"><ele>240.71428571428572</ele><time>2026-04-29T14:26:57Z</time></trkpt><trkpt lat="45.51958233110043" lon="10.48251481955092"><ele>240.57142857142858</ele><time>2026-04-29T14:26:58Z</time></trkpt><trkpt lat="45.519621947596505" lon="10.482598730249098"><ele>240.42857142857144</ele><time>2026-04-29T14:26:59Z</time></trkpt><trkpt lat="45.519662978001286" lon="10.48267525008707"><ele>240.28571428571428</ele><time>2026-04-29T14:27:00Z</time></trkpt><trkpt lat="45.51969972487744" lon="10.48274937048883"><ele>240.14285714285717</ele><time>2026-04-29T14:27:01Z</time></trkpt><trkpt lat="45.51973499704875" lon="10.482824318843"><ele>240.0</ele><time>2026-04-29T14:27:02Z</time></trkpt><trkpt lat="45.51977180753836" lon="10.482899349527761"><ele>240.0</ele><time>2026-04-29T14:27:03Z</time></trkpt><trkpt lat="45.51981137822949" lon="10.48296963357302"><ele>240.0</ele><time>2026-04-29T14:27:04Z</time></trkpt><trkpt lat="45.51985024080943" lon="10.483048927154435"><ele>240.0</ele><time>2026-04-29T14:27:05Z</time></trkpt><trkpt lat="45.51988748293268" lon="10.483126816998038"><ele>240.0</ele><time>2026-04-29T14:27:06Z</time></trkpt><trkpt lat="45.51992536827242" lon="10.48320171454204"><ele>240.0</ele><time>2026-04-29T14:27:06.999Z</time></trkpt><trkpt lat="45.51996456157487" lon="10.483277181877217"><ele>240.0</ele><time>2026-04-29T14:27:07.999Z</time></trkpt><trkpt lat="45.52001158376453" lon="10.483351380151527"><ele>240.0</ele><time>2026-04-29T14:27:08.999Z</time></trkpt><trkpt lat="45.520055390278" lon="10.48342164502921"><ele>240.0</ele><time>2026-04-29T14:27:09.999Z</time></trkpt><trkpt lat="45.520103007713416" lon="10.483496612994173"><ele>240.0</ele><time>2026-04-29T14:27:10.999Z</time></trkpt><trkpt lat="45.52015659497763" lon="10.483565501345058"><ele>240.0</ele><time>2026-04-29T14:27:11.999Z</time></trkpt><trkpt lat="45.52021224512063" lon="10.483632615117582"><ele>240.0</ele><time>2026-04-29T14:27:12.999Z</time></trkpt><trkpt lat="45.52026321497112" lon="10.483702990959735"><ele>240.0</ele><time>2026-04-29T14:27:13.999Z</time></trkpt><trkpt lat="45.52031674700689" lon="10.48377354920624"><ele>240.0</ele><time>2026-04-29T14:27:14.999Z</time></trkpt><trkpt lat="45.52037122360631" lon="10.483844289253286"><ele>240.0</ele><time>2026-04-29T14:27:16.001Z</time></trkpt><trkpt lat="45.5204253579256" lon="10.483909380482624"><ele>240.28571428571428</ele><time>2026-04-29T14:27:17.001Z</time></trkpt><trkpt lat="45.52047916888571" lon="10.483976675463252"><ele>240.57142857142856</ele><time>2026-04-29T14:27:18.001Z</time></trkpt><trkpt lat="45.52053238179376" lon="10.484041489873935"><ele>240.85714285714283</ele><time>2026-04-29T14:27:19.001Z</time></trkpt><trkpt lat="45.52058661764797" lon="10.484108205856877"><ele>241.14285714285714</ele><time>2026-04-29T14:27:20.001Z</time></trkpt><trkpt lat="45.52064272390006" lon="10.484176477669834"><ele>241.4285714285714</ele><time>2026-04-29T14:27:21.001Z</time></trkpt><trkpt lat="45.52069726587347" lon="10.484246199718896"><ele>241.7142857142857</ele><time>2026-04-29T14:27:22.001Z</time></trkpt><trkpt lat="45.5207498486392" lon="10.484319232101043"><ele>242.0</ele><time>2026-04-29T14:27:23.001Z</time></trkpt><trkpt lat="45.52081208962131" lon="10.48439034917823"><ele>242.00000000000003</ele><time>2026-04-29T14:27:24.001Z</time></trkpt><trkpt lat="45.520872111024104" lon="10.48446475037558"><ele>242.0</ele><time>2026-04-29T14:27:25.001Z</time></trkpt><trkpt lat="45.52093175529851" lon="10.484543084180082"><ele>242.0</ele><time>2026-04-29T14:27:26.001Z</time></trkpt><trkpt lat="45.52099371752344" lon="10.484619104412218"><ele>242.0</ele><time>2026-04-29T14:27:27.001Z</time></trkpt><trkpt lat="45.521054919497374" lon="10.48469551032955"><ele>242.00000000000003</ele><time>2026-04-29T14:27:28.001Z</time></trkpt><trkpt lat="45.521117466478856" lon="10.484775046384891"><ele>242.0</ele><time>2026-04-29T14:27:29.001Z</time></trkpt><trkpt lat="45.52117581765955" lon="10.484861468530273"><ele>242.00000000000003</ele><time>2026-04-29T14:27:30.001Z</time></trkpt><trkpt lat="45.521236188553225" lon="10.48495068107835"><ele>242.0</ele><time>2026-04-29T14:27:31Z</time></trkpt><trkpt lat="45.521293254535706" lon="10.48504357361197"><ele>242.0</ele><time>2026-04-29T14:27:32Z</time></trkpt><trkpt lat="45.52134040119988" lon="10.485151103568612"><ele>242.0</ele><time>2026-04-29T14:27:33Z</time></trkpt><trkpt lat="45.521374288969895" lon="10.485268483584193"><ele>242.00000000000003</ele><time>2026-04-29T14:27:34Z</time></trkpt><trkpt lat="45.521400364180536" lon="10.485387358523433"><ele>242.0</ele><time>2026-04-29T14:27:35Z</time></trkpt><trkpt lat="45.521416149393936" lon="10.485515667072848"><ele>240.2</ele><time>2026-04-29T14:27:36Z</time></trkpt><trkpt lat="45.52142965316141" lon="10.485641176029569"><ele>238.39999999999998</ele><time>2026-04-29T14:27:37Z</time></trkpt><trkpt lat="45.52144509272379" lon="10.48576803152555"><ele>236.60000000000002</ele><time>2026-04-29T14:27:38Z</time></trkpt><trkpt lat="45.52146121577971" lon="10.485901966947932"><ele>234.8</ele><time>2026-04-29T14:27:39Z</time></trkpt><trkpt lat="45.52147393244128" lon="10.486037157937265"><ele>233.0</ele><time>2026-04-29T14:27:40Z</time></trkpt><trkpt lat="45.5214820170318" lon="10.48617051883573"><ele>232.0</ele><time>2026-04-29T14:27:41Z</time></trkpt><trkpt lat="45.52148775583085" lon="10.486309751555483"><ele>231.0</ele><time>2026-04-29T14:27:42Z</time></trkpt><trkpt lat="45.5214807108298" lon="10.48644799296815"><ele>230.0</ele><time>2026-04-29T14:27:43Z</time></trkpt><trkpt lat="45.521465654621544" lon="10.486585632670785"><ele>229.0</ele><time>2026-04-29T14:27:44Z</time></trkpt><trkpt lat="45.52143998382546" lon="10.486722696863321"><ele>228.0</ele><time>2026-04-29T14:27:45Z</time></trkpt><trkpt lat="45.52140857629653" lon="10.486854617200638"><ele>228.0</ele><time>2026-04-29T14:27:46Z</time></trkpt><trkpt lat="45.52137197010547" lon="10.486987118724493"><ele>228.0</ele><time>2026-04-29T14:27:47Z</time></trkpt><trkpt lat="45.52133765957439" lon="10.48711895092976"><ele>228.0</ele><time>2026-04-29T14:27:48Z</time></trkpt><trkpt lat="45.52130191696984" lon="10.487253786731271"><ele>228.0</ele><time>2026-04-29T14:27:49Z</time></trkpt><trkpt lat="45.52126871794482" lon="10.487389802458592"><ele>228.0</ele><time>2026-04-29T14:27:50Z</time></trkpt><trkpt lat="45.521231886810796" lon="10.487520623831392"><ele>227.0</ele><time>2026-04-29T14:27:51Z</time></trkpt><trkpt lat="45.52119850423277" lon="10.487655475090632"><ele>226.0</ele><time>2026-04-29T14:27:52Z</time></trkpt><trkpt lat="45.52116192200326" lon="10.487787763448221"><ele>225.0</ele><time>2026-04-29T14:27:53Z</time></trkpt><trkpt lat="45.5211277866636" lon="10.487919923482012"><ele>224.0</ele><time>2026-04-29T14:27:54Z</time></trkpt><trkpt lat="45.52109391177919" lon="10.488049191139854"><ele>223.0</ele><time>2026-04-29T14:27:55Z</time></trkpt><trkpt lat="45.52105780184148" lon="10.488179439052724"><ele>222.60000000000002</ele><time>2026-04-29T14:27:56Z</time></trkpt><trkpt lat="45.52102552543662" lon="10.488309800683746"><ele>222.20000000000002</ele><time>2026-04-29T14:27:57Z</time></trkpt><trkpt lat="45.520992060737115" lon="10.48843926647594"><ele>221.8</ele><time>2026-04-29T14:27:58Z</time></trkpt><trkpt lat="45.520954420503955" lon="10.488566224455285"><ele>221.4</ele><time>2026-04-29T14:27:59Z</time></trkpt><trkpt lat="45.52091864389356" lon="10.488695685088148"><ele>221.0</ele><time>2026-04-29T14:28:00Z</time></trkpt><trkpt lat="45.520884914817444" lon="10.488818535003976"><ele>220.8</ele><time>2026-04-29T14:28:01Z</time></trkpt><trkpt lat="45.52085843727885" lon="10.488948331656882"><ele>220.60000000000002</ele><time>2026-04-29T14:28:02Z</time></trkpt><trkpt lat="45.52084322100211" lon="10.489081291351436"><ele>220.4</ele><time>2026-04-29T14:28:03Z</time></trkpt><trkpt lat="45.520844313548345" lon="10.489211521206014"><ele>220.2</ele><time>2026-04-29T14:28:04Z</time></trkpt><trkpt lat="45.5208732631113" lon="10.489338971213908"><ele>220.0</ele><time>2026-04-29T14:28:05Z</time></trkpt><trkpt lat="45.520917154906435" lon="10.489452618181762"><ele>219.99999999999997</ele><time>2026-04-29T14:28:06Z</time></trkpt><trkpt lat="45.52096064389714" lon="10.489562389980506"><ele>220.0</ele><time>2026-04-29T14:28:07Z</time></trkpt><trkpt lat="45.521006420168334" lon="10.489672488564805"><ele>220.0</ele><time>2026-04-29T14:28:08Z</time></trkpt><trkpt lat="45.52104878873077" lon="10.489782252019506"><ele>220.0</ele><time>2026-04-29T14:28:09Z</time></trkpt><trkpt lat="45.521088927861655" lon="10.489890263017351"><ele>219.99999999999997</ele><time>2026-04-29T14:28:10Z</time></trkpt><trkpt lat="45.5211354039656" lon="10.489999035719478"><ele>220.0</ele><time>2026-04-29T14:28:11Z</time></trkpt><trkpt lat="45.52117889532001" lon="10.490106890203597"><ele>219.8</ele><time>2026-04-29T14:28:12Z</time></trkpt><trkpt lat="45.52122411997204" lon="10.490218086380025"><ele>219.6</ele><time>2026-04-29T14:28:13Z</time></trkpt><trkpt lat="45.52127195113525" lon="10.49033412928527"><ele>219.39999999999998</ele><time>2026-04-29T14:28:14Z</time></trkpt><trkpt lat="45.521316276240086" lon="10.490451001133238"><ele>219.2</ele><time>2026-04-29T14:28:15Z</time></trkpt><trkpt lat="45.52135802922672" lon="10.49057429116735"><ele>219.0</ele><time>2026-04-29T14:28:16Z</time></trkpt><trkpt lat="45.52140399903286" lon="10.490696852122007"><ele>218.2</ele><time>2026-04-29T14:28:17Z</time></trkpt><trkpt lat="45.52145428875386" lon="10.490818928029253"><ele>217.39999999999998</ele><time>2026-04-29T14:28:18Z</time></trkpt><trkpt lat="45.52150367675271" lon="10.490939718563904"><ele>216.6</ele><time>2026-04-29T14:28:19Z</time></trkpt><trkpt lat="45.52155303791499" lon="10.491062350598417"><ele>215.8</ele><time>2026-04-29T14:28:20Z</time></trkpt><trkpt lat="45.52160180391249" lon="10.49118715841671"><ele>215.0</ele><time>2026-04-29T14:28:21Z</time></trkpt><trkpt lat="45.52165173097852" lon="10.49131061820431"><ele>214.0</ele><time>2026-04-29T14:28:22Z</time></trkpt><trkpt lat="45.521700136150535" lon="10.491438111631583"><ele>213.0</ele><time>2026-04-29T14:28:23Z</time></trkpt><trkpt lat="45.521748278074" lon="10.491561820029535"><ele>212.0</ele><time>2026-04-29T14:28:24Z</time></trkpt><trkpt lat="45.52179842632367" lon="10.491688474038854"><ele>211.0</ele><time>2026-04-29T14:28:25Z</time></trkpt><trkpt lat="45.521831999343426" lon="10.491820333743073"><ele>210.0</ele><time>2026-04-29T14:28:26Z</time></trkpt><trkpt lat="45.52186905359089" lon="10.491949992907113"><ele>210.0</ele><time>2026-04-29T14:28:27Z</time></trkpt><trkpt lat="45.521899033417974" lon="10.492073844680474"><ele>210.0</ele><time>2026-04-29T14:28:28Z</time></trkpt><trkpt lat="45.52193134367782" lon="10.49219516651461"><ele>210.0</ele><time>2026-04-29T14:28:29Z</time></trkpt><trkpt lat="45.52196445854084" lon="10.492314510581185"><ele>210.0</ele><time>2026-04-29T14:28:30Z</time></trkpt><trkpt lat="45.52199703344946" lon="10.49243751425525"><ele>210.0</ele><time>2026-04-29T14:28:31Z</time></trkpt><trkpt lat="45.52202028625037" lon="10.492559691426537"><ele>210.83333333333334</ele><time>2026-04-29T14:28:32Z</time></trkpt><trkpt lat="45.52204668735142" lon="10.492679583024877"><ele>211.66666666666669</ele><time>2026-04-29T14:28:33Z</time></trkpt><trkpt lat="45.52207026395576" lon="10.492803824028204"><ele>212.5</ele><time>2026-04-29T14:28:34Z</time></trkpt><trkpt lat="45.52209603402391" lon="10.49292339727795"><ele>213.33333333333334</ele><time>2026-04-29T14:28:35Z</time></trkpt><trkpt lat="45.52212246283513" lon="10.493040233709712"><ele>214.16666666666669</ele><time>2026-04-29T14:28:36Z</time></trkpt><trkpt lat="45.52214650489049" lon="10.493159978936731"><ele>215.0</ele><time>2026-04-29T14:28:37Z</time></trkpt><trkpt lat="45.522172714080185" lon="10.493280509012497"><ele>216.0</ele><time>2026-04-29T14:28:38Z</time></trkpt><trkpt lat="45.52219592271402" lon="10.493403023557546"><ele>217.0</ele><time>2026-04-29T14:28:39Z</time></trkpt><trkpt lat="45.52221881304062" lon="10.493524734389078"><ele>218.0</ele><time>2026-04-29T14:28:40Z</time></trkpt><trkpt lat="45.522247575375864" lon="10.493646654401394"><ele>219.0</ele><time>2026-04-29T14:28:41Z</time></trkpt><trkpt lat="45.52227572331263" lon="10.493771041894064"><ele>220.0</ele><time>2026-04-29T14:28:42Z</time></trkpt><trkpt lat="45.522299696992555" lon="10.493898226206"><ele>220.0</ele><time>2026-04-29T14:28:43Z</time></trkpt><trkpt lat="45.52232509973899" lon="10.494028130206225"><ele>220.0</ele><time>2026-04-29T14:28:44Z</time></trkpt><trkpt lat="45.52235237134912" lon="10.494155192805858"><ele>220.0</ele><time>2026-04-29T14:28:45Z</time></trkpt><trkpt lat="45.52237988398959" lon="10.494283390862492"><ele>220.0</ele><time>2026-04-29T14:28:46Z</time></trkpt><trkpt lat="45.52240620123246" lon="10.49440935385593"><ele>220.0</ele><time>2026-04-29T14:28:47Z</time></trkpt><trkpt lat="45.522432665289685" lon="10.494537243994847"><ele>218.4</ele><time>2026-04-29T14:28:48Z</time></trkpt><trkpt lat="45.522460484185125" lon="10.494662895625579"><ele>216.8</ele><time>2026-04-29T14:28:49Z</time></trkpt><trkpt lat="45.522494223502605" lon="10.49478883582539"><ele>215.2</ele><time>2026-04-29T14:28:50Z</time></trkpt><trkpt lat="45.52253263257178" lon="10.49490883373816"><ele>213.6</ele><time>2026-04-29T14:28:51Z</time></trkpt><trkpt lat="45.52258296253632" lon="10.495023383034411"><ele>212.0</ele><time>2026-04-29T14:28:52Z</time></trkpt><trkpt lat="45.5226457099706" lon="10.495125218589616"><ele>212.0</ele><time>2026-04-29T14:28:53Z</time></trkpt><trkpt lat="45.52271589232904" lon="10.495222211038428"><ele>212.0</ele><time>2026-04-29T14:28:54Z</time></trkpt><trkpt lat="45.5227894989662" lon="10.495324671175524"><ele>212.0</ele><time>2026-04-29T14:28:55Z</time></trkpt><trkpt lat="45.52286368195815" lon="10.495426262238844"><ele>212.0</ele><time>2026-04-29T14:28:56Z</time></trkpt><trkpt lat="45.52294252745263" lon="10.495525279015459"><ele>212.0</ele><time>2026-04-29T14:28:57Z</time></trkpt><trkpt lat="45.52301807559391" lon="10.495631990784139"><ele>211.8</ele><time>2026-04-29T14:28:58Z</time></trkpt><trkpt lat="45.523098562361305" lon="10.495733129072088"><ele>211.6</ele><time>2026-04-29T14:28:59Z</time></trkpt><trkpt lat="45.523173754991966" lon="10.495841351991618"><ele>211.4</ele><time>2026-04-29T14:29:00Z</time></trkpt><trkpt lat="45.52324940830588" lon="10.495939888709744"><ele>211.20000000000002</ele><time>2026-04-29T14:29:01Z</time></trkpt><trkpt lat="45.523320253296724" lon="10.496051837754608"><ele>211.0</ele><time>2026-04-29T14:29:02Z</time></trkpt><trkpt lat="45.52338522493543" lon="10.496163446178485"><ele>208.60000000000002</ele><time>2026-04-29T14:29:03Z</time></trkpt><trkpt lat="45.523445752661914" lon="10.496282118280241"><ele>206.2</ele><time>2026-04-29T14:29:04Z</time></trkpt><trkpt lat="45.52349654625844" lon="10.49640299668083"><ele>203.8</ele><time>2026-04-29T14:29:05Z</time></trkpt><trkpt lat="45.52353965793767" lon="10.49652343463475"><ele>201.39999999999998</ele><time>2026-04-29T14:29:05.999Z</time></trkpt><trkpt lat="45.5235844106075" lon="10.496648204705807"><ele>199.0</ele><time>2026-04-29T14:29:06.999Z</time></trkpt><trkpt lat="45.523627168041784" lon="10.496767577664873"><ele>199.0</ele><time>2026-04-29T14:29:07.999Z</time></trkpt><trkpt lat="45.523678204562515" lon="10.496893146185736"><ele>199.0</ele><time>2026-04-29T14:29:08.999Z</time></trkpt><trkpt lat="45.52371921778732" lon="10.497011562104344"><ele>199.0</ele><time>2026-04-29T14:29:09.999Z</time></trkpt><trkpt lat="45.523759217039796" lon="10.497128308667055"><ele>199.0</ele><time>2026-04-29T14:29:10.999Z</time></trkpt><trkpt lat="45.52380444785111" lon="10.497247161279663"><ele>199.0</ele><time>2026-04-29T14:29:11.999Z</time></trkpt><trkpt lat="45.52384967102007" lon="10.497359353772566"><ele>199.16666666666666</ele><time>2026-04-29T14:29:12.999Z</time></trkpt><trkpt lat="45.52389860113602" lon="10.497468814807128"><ele>199.33333333333331</ele><time>2026-04-29T14:29:13.999Z</time></trkpt><trkpt lat="45.52395087167409" lon="10.497573717775753"><ele>199.5</ele><time>2026-04-29T14:29:14.999Z</time></trkpt><trkpt lat="45.52400676105814" lon="10.497669006291579"><ele>199.66666666666669</ele><time>2026-04-29T14:29:15.999Z</time></trkpt><trkpt lat="45.52407377930282" lon="10.497758416174475"><ele>199.83333333333334</ele><time>2026-04-29T14:29:16.999Z</time></trkpt><trkpt lat="45.52414532333143" lon="10.497823284707165"><ele>200.0</ele><time>2026-04-29T14:29:17.999Z</time></trkpt><trkpt lat="45.52421391127874" lon="10.49788380405728"><ele>199.16666666666669</ele><time>2026-04-29T14:29:18.999Z</time></trkpt><trkpt lat="45.52428734101554" lon="10.497940119738358"><ele>198.33333333333334</ele><time>2026-04-29T14:29:19.999Z</time></trkpt><trkpt lat="45.524363420155424" lon="10.497984561677017"><ele>197.5</ele><time>2026-04-29T14:29:20.999Z</time></trkpt><trkpt lat="45.52443961509516" lon="10.498030814955124"><ele>196.66666666666669</ele><time>2026-04-29T14:29:22Z</time></trkpt><trkpt lat="45.52451524082594" lon="10.498071417770165"><ele>195.83333333333334</ele><time>2026-04-29T14:29:23Z</time></trkpt><trkpt lat="45.52459354972384" lon="10.498117419959147"><ele>195.0</ele><time>2026-04-29T14:29:24Z</time></trkpt><trkpt lat="45.524665843838896" lon="10.498166047506885"><ele>195.0</ele><time>2026-04-29T14:29:25Z</time></trkpt><trkpt lat="45.524734304459685" lon="10.498206195526212"><ele>195.0</ele><time>2026-04-29T14:29:26Z</time></trkpt><trkpt lat="45.52481274620117" lon="10.4982703016907"><ele>195.0</ele><time>2026-04-29T14:29:27Z</time></trkpt><trkpt lat="45.52488553813666" lon="10.49831963710528"><ele>195.0</ele><time>2026-04-29T14:29:28Z</time></trkpt><trkpt lat="45.524953855625135" lon="10.498368133292072"><ele>195.0</ele><time>2026-04-29T14:29:29Z</time></trkpt><trkpt lat="45.525023178320104" lon="10.498419819462121"><ele>195.0</ele><time>2026-04-29T14:29:30Z</time></trkpt><trkpt lat="45.52508793417524" lon="10.49847169255562"><ele>195.0</ele><time>2026-04-29T14:29:31Z</time></trkpt><trkpt lat="45.52515215642748" lon="10.498522432910958"><ele>195.0</ele><time>2026-04-29T14:29:32Z</time></trkpt><trkpt lat="45.525218796019665" lon="10.498568000874794"><ele>195.0</ele><time>2026-04-29T14:29:33Z</time></trkpt><trkpt lat="45.525282237976796" lon="10.498610499755904"><ele>195.0</ele><time>2026-04-29T14:29:34Z</time></trkpt><trkpt lat="45.52534429415893" lon="10.49866005634636"><ele>195.0</ele><time>2026-04-29T14:29:35Z</time></trkpt><trkpt lat="45.525402941794" lon="10.49871071433806"><ele>195.0</ele><time>2026-04-29T14:29:36Z</time></trkpt><trkpt lat="45.525467133686554" lon="10.498753805003465"><ele>195.0</ele><time>2026-04-29T14:29:37Z</time></trkpt><trkpt lat="45.52552228092229" lon="10.498806195135568"><ele>196.0</ele><time>2026-04-29T14:29:38Z</time></trkpt><trkpt lat="45.525575053768904" lon="10.498868958869839"><ele>197.0</ele><time>2026-04-29T14:29:39Z</time></trkpt><trkpt lat="45.52562509337653" lon="10.498927797082576"><ele>198.0</ele><time>2026-04-29T14:29:40Z</time></trkpt><trkpt lat="45.5256723387431" lon="10.498992480578453"><ele>199.0</ele><time>2026-04-29T14:29:41Z</time></trkpt><trkpt lat="45.5257127615768" lon="10.499063696618638"><ele>200.0</ele><time>2026-04-29T14:29:42Z</time></trkpt><trkpt lat="45.52574945863045" lon="10.499139878282698"><ele>201.0</ele><time>2026-04-29T14:29:43Z</time></trkpt><trkpt lat="45.52581226291472" lon="10.49929360548638"><ele>201.0</ele><time>2026-04-29T14:29:45Z</time></trkpt><trkpt lat="45.525860734646415" lon="10.499447673157416"><ele>201.0</ele><time>2026-04-29T14:29:47Z</time></trkpt><trkpt lat="45.525903331961814" lon="10.499609132681735"><ele>201.0</ele><time>2026-04-29T14:29:49Z</time></trkpt><trkpt lat="45.525944162375666" lon="10.499764687872425"><ele>201.0</ele><time>2026-04-29T14:29:51Z</time></trkpt><trkpt lat="45.52598462349109" lon="10.499922266349301"><ele>200.4</ele><time>2026-04-29T14:29:53Z</time></trkpt><trkpt lat="45.52602154444806" lon="10.50008685986164"><ele>199.8</ele><time>2026-04-29T14:29:55Z</time></trkpt><trkpt lat="45.52606076357658" lon="10.500237758892155"><ele>199.20000000000002</ele><time>2026-04-29T14:29:57Z</time></trkpt><trkpt lat="45.52609824641407" lon="10.500371437875208"><ele>198.60000000000002</ele><time>2026-04-29T14:29:59Z</time></trkpt><trkpt lat="45.52612677766425" lon="10.5005061529246"><ele>198.0</ele><time>2026-04-29T14:30:01Z</time></trkpt><trkpt lat="45.526156603719436" lon="10.500644117035497"><ele>197.5</ele><time>2026-04-29T14:30:03Z</time></trkpt><trkpt lat="45.52617255097715" lon="10.500750344807543"><ele>197.0</ele><time>2026-04-29T14:30:05Z</time></trkpt><trkpt lat="45.52619517776099" lon="10.500848105366913"><ele>196.5</ele><time>2026-04-29T14:30:06Z</time></trkpt><trkpt lat="45.52621400983437" lon="10.500959551798475"><ele>196.0</ele><time>2026-04-29T14:30:08Z</time></trkpt><trkpt lat="45.52624445756135" lon="10.501084156665668"><ele>195.5</ele><time>2026-04-29T14:30:10Z</time></trkpt><trkpt lat="45.52628118023093" lon="10.501221112717314"><ele>195.0</ele><time>2026-04-29T14:30:12Z</time></trkpt><trkpt lat="45.5263346283242" lon="10.501349776560996"><ele>197.0</ele><time>2026-04-29T14:30:14Z</time></trkpt><trkpt lat="45.52640927048997" lon="10.501469001425905"><ele>199.0</ele><time>2026-04-29T14:30:16Z</time></trkpt><trkpt lat="45.52647557611548" lon="10.501558447704069"><ele>201.0</ele><time>2026-04-29T14:30:18Z</time></trkpt><trkpt lat="45.52653957346958" lon="10.5016661451507"><ele>203.0</ele><time>2026-04-29T14:30:19Z</time></trkpt><trkpt lat="45.52663349454895" lon="10.50176829146439"><ele>205.0</ele><time>2026-04-29T14:30:21Z</time></trkpt><trkpt lat="45.52672647990274" lon="10.501870950414395"><ele>205.0</ele><time>2026-04-29T14:30:23Z</time></trkpt><trkpt lat="45.52682081383722" lon="10.501974486327558"><ele>205.0</ele><time>2026-04-29T14:30:25Z</time></trkpt><trkpt lat="45.526913612115855" lon="10.502077469454267"><ele>205.0</ele><time>2026-04-29T14:30:27Z</time></trkpt><trkpt lat="45.527006708282116" lon="10.50217695444181"><ele>205.0</ele><time>2026-04-29T14:30:29Z</time></trkpt><trkpt lat="45.527101279043286" lon="10.5022838074882"><ele>205.5</ele><time>2026-04-29T14:30:31Z</time></trkpt><trkpt lat="45.52719425534931" lon="10.502375596435517"><ele>206.0</ele><time>2026-04-29T14:30:33Z</time></trkpt><trkpt lat="45.5272871062235" lon="10.502487591092974"><ele>206.5</ele><time>2026-04-29T14:30:35Z</time></trkpt><trkpt lat="45.52738100443616" lon="10.5025888728577"><ele>207.0</ele><time>2026-04-29T14:30:37Z</time></trkpt><trkpt lat="45.527477136653836" lon="10.50270050310164"><ele>207.0</ele><time>2026-04-29T14:30:39Z</time></trkpt><trkpt lat="45.52755663989311" lon="10.50279205556941"><ele>207.0</ele><time>2026-04-29T14:30:41Z</time></trkpt><trkpt lat="45.52762463409513" lon="10.502935691174931"><ele>207.0</ele><time>2026-04-29T14:30:43Z</time></trkpt><trkpt lat="45.52766076816397" lon="10.503015015719367"><ele>207.0</ele><time>2026-04-29T14:30:44Z</time></trkpt><trkpt lat="45.52772548557867" lon="10.503155564379993"><ele>207.0</ele><time>2026-04-29T14:30:46Z</time></trkpt><trkpt lat="45.527795891737405" lon="10.503295257045492"><ele>207.39999999999998</ele><time>2026-04-29T14:30:48Z</time></trkpt><trkpt lat="45.52782942950673" lon="10.50338097069078"><ele>207.79999999999998</ele><time>2026-04-29T14:30:49Z</time></trkpt><trkpt lat="45.52789215058761" lon="10.503519713704742"><ele>208.2</ele><time>2026-04-29T14:30:51Z</time></trkpt><trkpt lat="45.52794988519877" lon="10.503649899097338"><ele>208.6</ele><time>2026-04-29T14:30:53Z</time></trkpt><trkpt lat="45.52798833846174" lon="10.503795775742043"><ele>209.0</ele><time>2026-04-29T14:30:55Z</time></trkpt><trkpt lat="45.52800745623248" lon="10.503940729854573"><ele>209.0</ele><time>2026-04-29T14:30:57Z</time></trkpt><trkpt lat="45.52799894982525" lon="10.504084539544149"><ele>209.0</ele><time>2026-04-29T14:30:59Z</time></trkpt></trkseg></trk></gpx>